Wetterdaten: Sonntag, 28.02.2016
Datum Zeit Temp. A. Feuchte A. Luftdruck Regen Wind Richtung Richtung Sonnenschein ET UV Solar Taupunkt Windchill Windben Empfang
28.02.2016 00:00 1,3 C 82 % 1007,5 hPa 0,0 l/m 2,6 km/h (1 Bft) O-NO 57 0 min 0,000 mm 0,0 UV-I 0 W/m -1,4 C 1,3 C 3,2 km/h (1 Bft) 100,00 %
28.02.2016 00:02 1,2 C 82 % 1007,5 hPa 0,0 l/m 4,5 km/h (1 Bft) O-NO 62 0 min 0,000 mm 0,0 UV-I 0 W/m -1,5 C 1,2 C 6,4 km/h (2 Bft) 97,78 %
28.02.2016 00:03 1,2 C 82 % 1007,4 hPa 0,0 l/m 3,6 km/h (1 Bft) O-NO 69 0 min 0,000 mm 0,0 UV-I 0 W/m -1,5 C 1,2 C 6,4 km/h (2 Bft) 100,00 %
28.02.2016 00:04 1,2 C 82 % 1007,5 hPa 0,0 l/m 4,1 km/h (1 Bft) O-NO 69 0 min 0,000 mm 0,0 UV-I 0 W/m -1,5 C 1,2 C 4,8 km/h (1 Bft) 96,55 %
28.02.2016 00:05 1,1 C 82 % 1007,5 hPa 0,0 l/m 5,0 km/h (1 Bft) O-NO 69 0 min 0,000 mm 0,0 UV-I 0 W/m -1,6 C 1,1 C 6,4 km/h (2 Bft) 100,00 %
28.02.2016 00:06 1,1 C 82 % 1007,5 hPa 0,0 l/m 5,1 km/h (1 Bft) O-NO 71 0 min 0,000 mm 0,0 UV-I 0 W/m -1,6 C 1,1 C 6,4 km/h (2 Bft) 100,00 %
28.02.2016 00:07 1,1 C 83 % 1007,4 hPa 0,0 l/m 5,3 km/h (1 Bft) O-NO 71 0 min 0,000 mm 0,0 UV-I 0 W/m -1,5 C 1,1 C 6,4 km/h (2 Bft) 100,00 %
28.02.2016 00:08 1,1 C 83 % 1007,5 hPa 0,0 l/m 5,6 km/h (1 Bft) O-NO 75 0 min 0,000 mm 0,0 UV-I 0 W/m -1,5 C 1,1 C 8,0 km/h (2 Bft) 100,00 %
28.02.2016 00:09 1,1 C 83 % 1007,4 hPa 0,0 l/m 3,7 km/h (1 Bft) O-NO 74 0 min 0,000 mm 0,0 UV-I 0 W/m -1,5 C 1,1 C 6,4 km/h (2 Bft) 100,00 %
28.02.2016 00:10 1,1 C 83 % 1007,4 hPa 0,0 l/m 3,9 km/h (1 Bft) O-NO 74 0 min 0,000 mm 0,0 UV-I 0 W/m -1,5 C 1,1 C 4,8 km/h (1 Bft) 100,00 %
28.02.2016 00:11 1,1 C 83 % 1007,3 hPa 0,0 l/m 3,8 km/h (1 Bft) O-NO 73 0 min 0,000 mm 0,0 UV-I 0 W/m -1,5 C 1,1 C 4,8 km/h (1 Bft) 100,00 %
28.02.2016 00:12 1,2 C 83 % 1007,4 hPa 0,0 l/m 3,9 km/h (1 Bft) O-NO 73 0 min 0,000 mm 0,0 UV-I 0 W/m -1,4 C 1,2 C 4,8 km/h (1 Bft) 100,00 %
28.02.2016 00:13 1,3 C 82 % 1007,4 hPa 0,0 l/m 3,1 km/h (1 Bft) O-NO 73 0 min 0,000 mm 0,0 UV-I 0 W/m -1,4 C 1,3 C 4,8 km/h (1 Bft) 100,00 %
28.02.2016 00:14 1,3 C 82 % 1007,3 hPa 0,0 l/m 4,1 km/h (1 Bft) O-NO 73 0 min 0,000 mm 0,0 UV-I 0 W/m -1,4 C 1,3 C 6,4 km/h (2 Bft) 100,00 %
28.02.2016 00:15 1,4 C 82 % 1007,3 hPa 0,0 l/m 4,1 km/h (1 Bft) O-NO 73 0 min 0,000 mm 0,0 UV-I 0 W/m -1,3 C 1,4 C 4,8 km/h (1 Bft) 100,00 %
28.02.2016 00:16 1,4 C 82 % 1007,4 hPa 0,0 l/m 3,7 km/h (1 Bft) O-NO 73 0 min 0,000 mm 0,0 UV-I 0 W/m -1,3 C 1,4 C 4,8 km/h (1 Bft) 100,00 %
28.02.2016 00:17 1,4 C 81 % 1007,4 hPa 0,0 l/m 4,2 km/h (1 Bft) O-NO 73 0 min 0,000 mm 0,0 UV-I 0 W/m -1,5 C 1,4 C 6,4 km/h (2 Bft) 100,00 %
28.02.2016 00:18 1,4 C 81 % 1007,4 hPa 0,0 l/m 3,8 km/h (1 Bft) O-NO 73 0 min 0,000 mm 0,0 UV-I 0 W/m -1,5 C 1,4 C 4,8 km/h (1 Bft) 100,00 %
28.02.2016 00:19 1,3 C 81 % 1007,3 hPa 0,0 l/m 3,5 km/h (1 Bft) O-NO 73 0 min 0,000 mm 0,0 UV-I 0 W/m -1,6 C 1,3 C 4,8 km/h (1 Bft) 95,83 %
28.02.2016 00:20 1,3 C 81 % 1007,3 hPa 0,0 l/m 3,2 km/h (1 Bft) O-NO 73 0 min 0,000 mm 0,0 UV-I 0 W/m -1,6 C 1,3 C 3,2 km/h (1 Bft) 100,00 %
28.02.2016 00:21 1,3 C 82 % 1007,3 hPa 0,0 l/m 3,8 km/h (1 Bft) O-NO 73 0 min 0,000 mm 0,0 UV-I 0 W/m -1,4 C 1,3 C 4,8 km/h (1 Bft) 100,00 %
28.02.2016 00:22 1,3 C 82 % 1007,3 hPa 0,0 l/m 3,1 km/h (1 Bft) O-NO 73 0 min 0,000 mm 0,0 UV-I 0 W/m -1,4 C 1,3 C 4,8 km/h (1 Bft) 100,00 %
28.02.2016 00:23 1,3 C 82 % 1007,3 hPa 0,0 l/m 4,1 km/h (1 Bft) O-NO 69 0 min 0,000 mm 0,0 UV-I 0 W/m -1,4 C 1,3 C 6,4 km/h (2 Bft) 92,31 %
28.02.2016 00:24 1,3 C 82 % 1007,2 hPa 0,0 l/m 4,4 km/h (1 Bft) N-NO 26 0 min 0,000 mm 0,0 UV-I 0 W/m -1,4 C 1,3 C 6,4 km/h (2 Bft) 100,00 %
28.02.2016 00:25 1,3 C 82 % 1007,2 hPa 0,0 l/m 1,4 km/h (1 Bft) N-NO 26 0 min 0,000 mm 0,0 UV-I 0 W/m -1,4 C 1,3 C 4,8 km/h (1 Bft) 96,55 %
28.02.2016 00:26 1,2 C 82 % 1007,2 hPa 0,0 l/m 2,5 km/h (1 Bft) N-NO 26 0 min 0,000 mm 0,0 UV-I 0 W/m -1,5 C 1,2 C 3,2 km/h (1 Bft) 100,00 %
28.02.2016 00:27 1,1 C 82 % 1007,2 hPa 0,0 l/m 1,7 km/h (1 Bft) N-NO 27 0 min 0,000 mm 0,0 UV-I 0 W/m -1,6 C 1,1 C 4,8 km/h (1 Bft) 100,00 %
28.02.2016 00:28 1,0 C 83 % 1007,2 hPa 0,0 l/m 4,4 km/h (1 Bft) N-NO 29 0 min 0,000 mm 0,0 UV-I 0 W/m -1,6 C 1,0 C 4,8 km/h (1 Bft) 100,00 %
28.02.2016 00:29 0,9 C 83 % 1007,2 hPa 0,0 l/m 5,1 km/h (1 Bft) NO 36 0 min 0,000 mm 0,0 UV-I 0 W/m -1,7 C 0,9 C 6,4 km/h (2 Bft) 100,00 %
28.02.2016 00:30 0,9 C 83 % 1007,2 hPa 0,0 l/m 3,9 km/h (1 Bft) NO 46 0 min 0,000 mm 0,0 UV-I 0 W/m -1,7 C 0,9 C 4,8 km/h (1 Bft) 100,00 %
28.02.2016 00:31 0,9 C 83 % 1007,3 hPa 0,0 l/m 4,8 km/h (1 Bft) O-NO 62 0 min 0,000 mm 0,0 UV-I 0 W/m -1,7 C 0,9 C 6,4 km/h (2 Bft) 95,65 %
28.02.2016 00:32 0,9 C 83 % 1007,3 hPa 0,0 l/m 4,8 km/h (1 Bft) O-NO 68 0 min 0,000 mm 0,0 UV-I 0 W/m -1,7 C 0,9 C 6,4 km/h (2 Bft) 100,00 %
28.02.2016 00:33 0,9 C 83 % 1007,3 hPa 0,0 l/m 4,2 km/h (1 Bft) O-NO 69 0 min 0,000 mm 0,0 UV-I 0 W/m -1,7 C 0,9 C 6,4 km/h (2 Bft) 100,00 %
28.02.2016 00:34 0,9 C 83 % 1007,3 hPa 0,0 l/m 4,5 km/h (1 Bft) O 95 0 min 0,000 mm 0,0 UV-I 0 W/m -1,7 C 0,9 C 4,8 km/h (1 Bft) 100,00 %
28.02.2016 00:35 0,8 C 83 % 1007,3 hPa 0,0 l/m 3,5 km/h (1 Bft) O-SO 123 0 min 0,000 mm 0,0 UV-I 0 W/m -1,8 C 0,8 C 4,8 km/h (1 Bft) 100,00 %
28.02.2016 00:36 0,7 C 83 % 1007,4 hPa 0,0 l/m 3,6 km/h (1 Bft) SO 133 0 min 0,000 mm 0,0 UV-I 0 W/m -1,8 C 0,7 C 6,4 km/h (2 Bft) 100,00 %
28.02.2016 00:37 0,6 C 84 % 1007,4 hPa 0,0 l/m 3,2 km/h (1 Bft) SO 134 0 min 0,000 mm 0,0 UV-I 0 W/m -1,8 C 0,6 C 6,4 km/h (2 Bft) 100,00 %
28.02.2016 00:38 0,6 C 85 % 1007,4 hPa 0,0 l/m 2,2 km/h (1 Bft) SO 134 0 min 0,000 mm 0,0 UV-I 0 W/m -1,6 C 0,6 C 3,2 km/h (1 Bft) 100,00 %
28.02.2016 00:39 0,6 C 85 % 1007,5 hPa 0,0 l/m 4,4 km/h (1 Bft) O 95 0 min 0,000 mm 0,0 UV-I 0 W/m -1,6 C 0,6 C 8,0 km/h (2 Bft) 100,00 %
28.02.2016 00:40 0,6 C 85 % 1007,5 hPa 0,0 l/m 4,6 km/h (1 Bft) O-SO 113 0 min 0,000 mm 0,0 UV-I 0 W/m -1,6 C 0,6 C 6,4 km/h (2 Bft) 100,00 %
28.02.2016 00:41 0,6 C 84 % 1007,5 hPa 0,0 l/m 5,4 km/h (1 Bft) O-SO 115 0 min 0,000 mm 0,0 UV-I 0 W/m -1,8 C 0,6 C 6,4 km/h (2 Bft) 96,67 %
28.02.2016 00:42 0,5 C 85 % 1007,4 hPa 0,0 l/m 5,1 km/h (1 Bft) O 90 0 min 0,000 mm 0,0 UV-I 0 W/m -1,7 C 0,5 C 6,4 km/h (2 Bft) 100,00 %
28.02.2016 00:43 0,6 C 85 % 1007,5 hPa 0,0 l/m 5,8 km/h (2 Bft) O 92 0 min 0,000 mm 0,0 UV-I 0 W/m -1,6 C 0,6 C 8,0 km/h (2 Bft) 100,00 %
28.02.2016 00:44 0,7 C 84 % 1007,4 hPa 0,0 l/m 6,1 km/h (2 Bft) O-NO 65 0 min 0,000 mm 0,0 UV-I 0 W/m -1,7 C 0,7 C 8,0 km/h (2 Bft) 100,00 %
28.02.2016 00:45 0,7 C 84 % 1007,4 hPa 0,0 l/m 5,2 km/h (1 Bft) O-NO 67 0 min 0,000 mm 0,0 UV-I 0 W/m -1,7 C 0,7 C 6,4 km/h (2 Bft) 100,00 %
28.02.2016 00:46 0,8 C 84 % 1007,4 hPa 0,0 l/m 4,0 km/h (1 Bft) O-NO 66 0 min 0,000 mm 0,0 UV-I 0 W/m -1,6 C 0,8 C 4,8 km/h (1 Bft) 100,00 %
28.02.2016 00:47 0,9 C 84 % 1007,4 hPa 0,0 l/m 4,4 km/h (1 Bft) O-NO 60 0 min 0,000 mm 0,0 UV-I 0 W/m -1,5 C 0,9 C 6,4 km/h (2 Bft) 95,83 %
28.02.2016 00:48 1,0 C 84 % 1007,3 hPa 0,0 l/m 5,4 km/h (1 Bft) NO 54 0 min 0,000 mm 0,0 UV-I 0 W/m -1,4 C 1,0 C 6,4 km/h (2 Bft) 100,00 %
28.02.2016 00:49 1,1 C 83 % 1007,3 hPa 0,0 l/m 6,7 km/h (2 Bft) O-NO 59 0 min 0,000 mm 0,0 UV-I 0 W/m -1,5 C 0,8 C 8,0 km/h (2 Bft) 100,00 %
28.02.2016 00:50 1,2 C 83 % 1007,3 hPa 0,0 l/m 5,7 km/h (1 Bft) O-NO 66 0 min 0,000 mm 0,0 UV-I 0 W/m -1,4 C 1,2 C 6,4 km/h (2 Bft) 100,00 %
28.02.2016 00:51 1,2 C 82 % 1007,3 hPa 0,0 l/m 4,8 km/h (1 Bft) O-NO 73 0 min 0,000 mm 0,0 UV-I 0 W/m -1,5 C 1,2 C 6,4 km/h (2 Bft) 100,00 %
28.02.2016 00:52 1,3 C 82 % 1007,3 hPa 0,0 l/m 5,5 km/h (1 Bft) O-NO 69 0 min 0,000 mm 0,0 UV-I 0 W/m -1,4 C 1,3 C 8,0 km/h (2 Bft) 100,00 %
28.02.2016 00:53 1,3 C 82 % 1007,3 hPa 0,0 l/m 5,8 km/h (2 Bft) O-NO 77 0 min 0,000 mm 0,0 UV-I 0 W/m -1,4 C 1,3 C 8,0 km/h (2 Bft) 100,00 %
28.02.2016 00:54 1,3 C 82 % 1007,3 hPa 0,0 l/m 6,0 km/h (2 Bft) O-NO 74 0 min 0,000 mm 0,0 UV-I 0 W/m -1,4 C 1,3 C 8,0 km/h (2 Bft) 100,00 %
28.02.2016 00:55 1,3 C 82 % 1007,3 hPa 0,0 l/m 4,4 km/h (1 Bft) O-NO 73 0 min 0,000 mm 0,0 UV-I 0 W/m -1,4 C 1,3 C 6,4 km/h (2 Bft) 95,83 %
28.02.2016 00:56 1,3 C 82 % 1007,3 hPa 0,0 l/m 5,9 km/h (2 Bft) O-NO 66 0 min 0,000 mm 0,0 UV-I 0 W/m -1,4 C 1,3 C 8,0 km/h (2 Bft) 100,00 %
28.02.2016 00:57 1,3 C 82 % 1007,3 hPa 0,0 l/m 6,2 km/h (2 Bft) O-NO 66 0 min 0,000 mm 0,0 UV-I 0 W/m -1,4 C 1,3 C 8,0 km/h (2 Bft) 100,00 %
28.02.2016 00:58 1,3 C 82 % 1007,3 hPa 0,0 l/m 7,2 km/h (2 Bft) O-NO 69 0 min 0,000 mm 0,0 UV-I 0 W/m -1,4 C 0,5 C 9,7 km/h (2 Bft) 100,00 %
28.02.2016 00:59 1,2 C 82 % 1007,3 hPa 0,0 l/m 4,7 km/h (1 Bft) O 80 0 min 0,000 mm 0,0 UV-I 0 W/m -1,5 C 1,2 C 6,4 km/h (2 Bft) 100,00 %
28.02.2016 01:00 1,2 C 82 % 1007,4 hPa 0,0 l/m 5,2 km/h (1 Bft) O 82 0 min 0,000 mm 0,0 UV-I 0 W/m -1,5 C 1,2 C 8,0 km/h (2 Bft) 100,00 %
28.02.2016 01:01 1,2 C 82 % 1007,4 hPa 0,0 l/m 6,8 km/h (2 Bft) NO 55 0 min 0,000 mm 0,0 UV-I 0 W/m -1,5 C 0,8 C 8,0 km/h (2 Bft) 100,00 %
28.02.2016 01:02 1,1 C 82 % 1007,3 hPa 0,0 l/m 6,7 km/h (2 Bft) O-NO 75 0 min 0,000 mm 0,0 UV-I 0 W/m -1,6 C 0,8 C 11,3 km/h (2 Bft) 96,30 %
28.02.2016 01:03 1,1 C 82 % 1007,4 hPa 0,0 l/m 6,4 km/h (2 Bft) O-NO 61 0 min 0,000 mm 0,0 UV-I 0 W/m -1,6 C 1,1 C 9,7 km/h (2 Bft) 100,00 %
28.02.2016 01:04 1,1 C 82 % 1007,3 hPa 0,0 l/m 5,0 km/h (1 Bft) O-NO 58 0 min 0,000 mm 0,0 UV-I 0 W/m -1,6 C 1,1 C 8,0 km/h (2 Bft) 100,00 %
28.02.2016 01:05 1,2 C 82 % 1007,3 hPa 0,0 l/m 3,9 km/h (1 Bft) O-NO 59 0 min 0,000 mm 0,0 UV-I 0 W/m -1,5 C 1,2 C 6,4 km/h (2 Bft) 95,65 %
28.02.2016 01:06 1,2 C 82 % 1007,3 hPa 0,0 l/m 5,6 km/h (1 Bft) O-NO 65 0 min 0,000 mm 0,0 UV-I 0 W/m -1,5 C 1,2 C 6,4 km/h (2 Bft) 100,00 %
28.02.2016 01:07 1,3 C 82 % 1007,2 hPa 0,0 l/m 3,4 km/h (1 Bft) O-NO 60 0 min 0,000 mm 0,0 UV-I 0 W/m -1,4 C 1,3 C 4,8 km/h (1 Bft) 100,00 %
28.02.2016 01:08 1,3 C 82 % 1007,2 hPa 0,0 l/m 3,8 km/h (1 Bft) O-NO 59 0 min 0,000 mm 0,0 UV-I 0 W/m -1,4 C 1,3 C 6,4 km/h (2 Bft) 95,83 %
28.02.2016 01:09 1,3 C 82 % 1007,2 hPa 0,0 l/m 4,2 km/h (1 Bft) O-NO 60 0 min 0,000 mm 0,0 UV-I 0 W/m -1,4 C 1,3 C 4,8 km/h (1 Bft) 100,00 %
28.02.2016 01:10 1,3 C 82 % 1007,3 hPa 0,0 l/m 3,4 km/h (1 Bft) O-NO 63 0 min 0,000 mm 0,0 UV-I 0 W/m -1,4 C 1,3 C 4,8 km/h (1 Bft) 100,00 %
28.02.2016 01:11 1,3 C 82 % 1007,4 hPa 0,0 l/m 4,3 km/h (1 Bft) O 82 0 min 0,000 mm 0,0 UV-I 0 W/m -1,4 C 1,3 C 6,4 km/h (2 Bft) 100,00 %
28.02.2016 01:12 1,3 C 82 % 1007,5 hPa 0,0 l/m 3,1 km/h (1 Bft) O 82 0 min 0,000 mm 0,0 UV-I 0 W/m -1,4 C 1,3 C 4,8 km/h (1 Bft) 100,00 %
28.02.2016 01:13 1,3 C 82 % 1007,5 hPa 0,0 l/m 2,7 km/h (1 Bft) O 83 0 min 0,000 mm 0,0 UV-I 0 W/m -1,4 C 1,3 C 4,8 km/h (1 Bft) 100,00 %
28.02.2016 01:14 1,2 C 82 % 1007,5 hPa 0,0 l/m 1,9 km/h (1 Bft) O 83 0 min 0,000 mm 0,0 UV-I 0 W/m -1,5 C 1,2 C 3,2 km/h (1 Bft) 96,30 %
28.02.2016 01:15 1,2 C 82 % 1007,5 hPa 0,0 l/m 1,9 km/h (1 Bft) O 83 0 min 0,000 mm 0,0 UV-I 0 W/m -1,5 C 1,2 C 3,2 km/h (1 Bft) 100,00 %
28.02.2016 01:16 1,1 C 82 % 1007,5 hPa 0,0 l/m 3,5 km/h (1 Bft) O 83 0 min 0,000 mm 0,0 UV-I 0 W/m -1,6 C 1,1 C 4,8 km/h (1 Bft) 96,30 %
28.02.2016 01:17 1,1 C 82 % 1007,5 hPa 0,0 l/m 6,4 km/h (2 Bft) O-NO 66 0 min 0,000 mm 0,0 UV-I 0 W/m -1,6 C 1,1 C 8,0 km/h (2 Bft) 100,00 %
28.02.2016 01:18 1,1 C 83 % 1007,4 hPa 0,0 l/m 3,8 km/h (1 Bft) O-NO 66 0 min 0,000 mm 0,0 UV-I 0 W/m -1,5 C 1,1 C 6,4 km/h (2 Bft) 100,00 %
28.02.2016 01:19 1,2 C 83 % 1007,4 hPa 0,0 l/m 3,8 km/h (1 Bft) O-NO 66 0 min 0,000 mm 0,0 UV-I 0 W/m -1,4 C 1,2 C 4,8 km/h (1 Bft) 100,00 %
28.02.2016 01:20 1,2 C 83 % 1007,4 hPa 0,0 l/m 3,2 km/h (1 Bft) O-NO 66 0 min 0,000 mm 0,0 UV-I 0 W/m -1,4 C 1,2 C 4,8 km/h (1 Bft) 95,65 %
28.02.2016 01:21 1,3 C 82 % 1007,4 hPa 0,0 l/m 3,1 km/h (1 Bft) O-NO 66 0 min 0,000 mm 0,0 UV-I 0 W/m -1,4 C 1,3 C 3,2 km/h (1 Bft) 100,00 %
28.02.2016 01:22 1,3 C 82 % 1007,3 hPa 0,0 l/m 3,6 km/h (1 Bft) O-NO 66 0 min 0,000 mm 0,0 UV-I 0 W/m -1,4 C 1,3 C 4,8 km/h (1 Bft) 92,31 %
28.02.2016 01:23 1,3 C 82 % 1007,4 hPa 0,0 l/m 3,7 km/h (1 Bft) O-NO 61 0 min 0,000 mm 0,0 UV-I 0 W/m -1,4 C 1,3 C 4,8 km/h (1 Bft) 95,83 %
28.02.2016 01:24 1,3 C 82 % 1007,3 hPa 0,0 l/m 3,8 km/h (1 Bft) O-NO 61 0 min 0,000 mm 0,0 UV-I 0 W/m -1,4 C 1,3 C 4,8 km/h (1 Bft) 100,00 %
28.02.2016 01:25 1,3 C 82 % 1007,4 hPa 0,0 l/m 3,6 km/h (1 Bft) O-NO 61 0 min 0,000 mm 0,0 UV-I 0 W/m -1,4 C 1,3 C 4,8 km/h (1 Bft) 92,59 %
28.02.2016 01:26 1,2 C 82 % 1007,4 hPa 0,0 l/m 3,5 km/h (1 Bft) O-NO 61 0 min 0,000 mm 0,0 UV-I 0 W/m -1,5 C 1,2 C 4,8 km/h (1 Bft) 100,00 %
28.02.2016 01:27 1,2 C 82 % 1007,4 hPa 0,0 l/m 0,2 km/h (0 Bft) O-NO 61 0 min 0,000 mm 0,0 UV-I 0 W/m -1,5 C 1,2 C 1,6 km/h (1 Bft) 96,30 %
28.02.2016 01:28 1,2 C 82 % 1007,4 hPa 0,0 l/m 0,6 km/h (0 Bft) O-NO 61 0 min 0,000 mm 0,0 UV-I 0 W/m -1,5 C 1,2 C 1,6 km/h (1 Bft) 100,00 %
28.02.2016 01:29 1,1 C 83 % 1007,4 hPa 0,0 l/m 0,7 km/h (0 Bft) O-NO 61 0 min 0,000 mm 0,0 UV-I 0 W/m -1,5 C 1,1 C 1,6 km/h (1 Bft) 96,30 %
28.02.2016 01:30 0,9 C 83 % 1007,4 hPa 0,0 l/m 2,2 km/h (1 Bft) O-NO 61 0 min 0,000 mm 0,0 UV-I 0 W/m -1,7 C 0,9 C 3,2 km/h (1 Bft) 95,65 %
28.02.2016 01:31 0,9 C 83 % 1007,5 hPa 0,0 l/m 3,0 km/h (1 Bft) O-NO 64 0 min 0,000 mm 0,0 UV-I 0 W/m -1,7 C 0,9 C 4,8 km/h (1 Bft) 100,00 %
28.02.2016 01:32 0,8 C 83 % 1007,5 hPa 0,0 l/m 3,5 km/h (1 Bft) O-NO 67 0 min 0,000 mm 0,0 UV-I 0 W/m -1,8 C 0,8 C 4,8 km/h (1 Bft) 91,30 %
28.02.2016 01:33 0,8 C 83 % 1007,5 hPa 0,0 l/m 4,2 km/h (1 Bft) O 88 0 min 0,000 mm 0,0 UV-I 0 W/m -1,8 C 0,8 C 6,4 km/h (2 Bft) 100,00 %
28.02.2016 01:34 0,7 C 84 % 1007,5 hPa 0,0 l/m 4,7 km/h (1 Bft) O-SO 112 0 min 0,000 mm 0,0 UV-I 0 W/m -1,7 C 0,7 C 4,8 km/h (1 Bft) 96,15 %
28.02.2016 01:35 0,6 C 84 % 1007,5 hPa 0,0 l/m 4,1 km/h (1 Bft) O-SO 112 0 min 0,000 mm 0,0 UV-I 0 W/m -1,8 C 0,6 C 4,8 km/h (1 Bft) 100,00 %
28.02.2016 01:36 0,4 C 85 % 1007,5 hPa 0,0 l/m 4,1 km/h (1 Bft) O 92 0 min 0,000 mm 0,0 UV-I 0 W/m -1,8 C 0,4 C 4,8 km/h (1 Bft) 96,15 %
28.02.2016 01:37 0,3 C 85 % 1007,5 hPa 0,0 l/m 4,5 km/h (1 Bft) O 92 0 min 0,000 mm 0,0 UV-I 0 W/m -1,9 C 0,3 C 6,4 km/h (2 Bft) 100,00 %
28.02.2016 01:38 0,3 C 85 % 1007,6 hPa 0,0 l/m 4,5 km/h (1 Bft) O 84 0 min 0,000 mm 0,0 UV-I 0 W/m -1,9 C 0,3 C 4,8 km/h (1 Bft) 95,83 %
28.02.2016 01:39 0,2 C 85 % 1007,5 hPa 0,0 l/m 4,4 km/h (1 Bft) O 84 0 min 0,000 mm 0,0 UV-I 0 W/m -2,0 C 0,2 C 4,8 km/h (1 Bft) 95,65 %
28.02.2016 01:40 0,3 C 86 % 1007,5 hPa 0,0 l/m 4,7 km/h (1 Bft) O-NO 60 0 min 0,000 mm 0,0 UV-I 0 W/m -1,8 C 0,3 C 6,4 km/h (2 Bft) 100,00 %
28.02.2016 01:41 0,3 C 86 % 1007,5 hPa 0,0 l/m 6,5 km/h (2 Bft) O-NO 59 0 min 0,000 mm 0,0 UV-I 0 W/m -1,8 C 0,2 C 8,0 km/h (2 Bft) 88,46 %
28.02.2016 01:42 0,4 C 86 % 1007,4 hPa 0,0 l/m 6,6 km/h (2 Bft) NO 54 0 min 0,000 mm 0,0 UV-I 0 W/m -1,7 C 0,2 C 8,0 km/h (2 Bft) 100,00 %
28.02.2016 01:43 0,5 C 86 % 1007,4 hPa 0,0 l/m 5,4 km/h (1 Bft) O-NO 63 0 min 0,000 mm 0,0 UV-I 0 W/m -1,6 C 0,5 C 8,0 km/h (2 Bft) 95,65 %
28.02.2016 01:44 0,6 C 85 % 1007,4 hPa 0,0 l/m 5,3 km/h (1 Bft) O-NO 66 0 min 0,000 mm 0,0 UV-I 0 W/m -1,6 C 0,6 C 8,0 km/h (2 Bft) 100,00 %
28.02.2016 01:45 0,7 C 85 % 1007,4 hPa 0,0 l/m 6,3 km/h (2 Bft) O-NO 63 0 min 0,000 mm 0,0 UV-I 0 W/m -1,5 C 0,7 C 8,0 km/h (2 Bft) 92,31 %
28.02.2016 01:46 0,8 C 85 % 1007,5 hPa 0,0 l/m 4,8 km/h (1 Bft) NO 51 0 min 0,000 mm 0,0 UV-I 0 W/m -1,4 C 0,8 C 6,4 km/h (2 Bft) 100,00 %
28.02.2016 01:47 0,8 C 85 % 1007,4 hPa 0,0 l/m 3,9 km/h (1 Bft) NO 51 0 min 0,000 mm 0,0 UV-I 0 W/m -1,4 C 0,8 C 4,8 km/h (1 Bft) 86,96 %
28.02.2016 01:48 0,9 C 84 % 1007,5 hPa 0,0 l/m 2,4 km/h (1 Bft) NO 51 0 min 0,000 mm 0,0 UV-I 0 W/m -1,5 C 0,9 C 3,2 km/h (1 Bft) 95,83 %
28.02.2016 01:49 0,9 C 84 % 1007,4 hPa 0,0 l/m 3,4 km/h (1 Bft) NO 51 0 min 0,000 mm 0,0 UV-I 0 W/m -1,5 C 0,9 C 4,8 km/h (1 Bft) 100,00 %
28.02.2016 01:50 0,9 C 84 % 1007,5 hPa 0,0 l/m 2,2 km/h (1 Bft) NO 51 0 min 0,000 mm 0,0 UV-I 0 W/m -1,5 C 0,9 C 3,2 km/h (1 Bft) 93,33 %
28.02.2016 01:51 0,9 C 84 % 1007,4 hPa 0,0 l/m 3,1 km/h (1 Bft) NO 51 0 min 0,000 mm 0,0 UV-I 0 W/m -1,5 C 0,9 C 4,8 km/h (1 Bft) 100,00 %
28.02.2016 01:52 0,8 C 84 % 1007,4 hPa 0,0 l/m 3,8 km/h (1 Bft) NO 51 0 min 0,000 mm 0,0 UV-I 0 W/m -1,6 C 0,8 C 4,8 km/h (1 Bft) 92,59 %
28.02.2016 01:53 0,8 C 84 % 1007,4 hPa 0,0 l/m 3,0 km/h (1 Bft) NO 51 0 min 0,000 mm 0,0 UV-I 0 W/m -1,6 C 0,8 C 4,8 km/h (1 Bft) 100,00 %
28.02.2016 01:54 0,8 C 84 % 1007,4 hPa 0,0 l/m 3,3 km/h (1 Bft) NO 51 0 min 0,000 mm 0,0 UV-I 0 W/m -1,6 C 0,8 C 4,8 km/h (1 Bft) 95,83 %
28.02.2016 01:55 0,7 C 84 % 1007,4 hPa 0,0 l/m 2,2 km/h (1 Bft) NO 51 0 min 0,000 mm 0,0 UV-I 0 W/m -1,7 C 0,7 C 3,2 km/h (1 Bft) 95,65 %
28.02.2016 01:56 0,7 C 84 % 1007,5 hPa 0,0 l/m 1,7 km/h (1 Bft) NO 51 0 min 0,000 mm 0,0 UV-I 0 W/m -1,7 C 0,7 C 3,2 km/h (1 Bft) 100,00 %
28.02.2016 01:57 0,7 C 85 % 1007,5 hPa 0,0 l/m 0,9 km/h (0 Bft) NO 51 0 min 0,000 mm 0,0 UV-I 0 W/m -1,5 C 0,7 C 1,6 km/h (1 Bft) 100,00 %
28.02.2016 01:58 0,7 C 85 % 1007,5 hPa 0,0 l/m 3,2 km/h (1 Bft) O-NO 67 0 min 0,000 mm 0,0 UV-I 0 W/m -1,5 C 0,7 C 4,8 km/h (1 Bft) 100,00 %
28.02.2016 01:59 0,6 C 85 % 1007,6 hPa 0,0 l/m 3,0 km/h (1 Bft) O-NO 67 0 min 0,000 mm 0,0 UV-I 0 W/m -1,6 C 0,6 C 3,2 km/h (1 Bft) 100,00 %
28.02.2016 02:00 0,6 C 85 % 1007,5 hPa 0,0 l/m 3,8 km/h (1 Bft) O-NO 67 0 min 0,000 mm 0,0 UV-I 0 W/m -1,6 C 0,6 C 4,8 km/h (1 Bft) 100,00 %
28.02.2016 02:01 0,5 C 85 % 1007,5 hPa 0,0 l/m 4,5 km/h (1 Bft) O-NO 65 0 min 0,000 mm 0,0 UV-I 0 W/m -1,7 C 0,5 C 6,4 km/h (2 Bft) 95,83 %
28.02.2016 02:02 0,5 C 85 % 1007,5 hPa 0,0 l/m 3,4 km/h (1 Bft) O-NO 65 0 min 0,000 mm 0,0 UV-I 0 W/m -1,7 C 0,5 C 4,8 km/h (1 Bft) 100,00 %
28.02.2016 02:03 0,5 C 85 % 1007,6 hPa 0,0 l/m 2,3 km/h (1 Bft) O-NO 65 0 min 0,000 mm 0,0 UV-I 0 W/m -1,7 C 0,5 C 3,2 km/h (1 Bft) 100,00 %
28.02.2016 02:04 0,5 C 86 % 1007,6 hPa 0,0 l/m 2,4 km/h (1 Bft) O-NO 65 0 min 0,000 mm 0,0 UV-I 0 W/m -1,6 C 0,5 C 3,2 km/h (1 Bft) 96,15 %
28.02.2016 02:05 0,6 C 86 % 1007,7 hPa 0,0 l/m 1,4 km/h (1 Bft) O-NO 65 0 min 0,000 mm 0,0 UV-I 0 W/m -1,5 C 0,6 C 3,2 km/h (1 Bft) 96,30 %
28.02.2016 02:06 0,6 C 85 % 1007,7 hPa 0,0 l/m 0,0 km/h (0 Bft) O-NO 65 0 min 0,000 mm 0,0 UV-I 0 W/m -1,6 C 0,6 C 0,0 km/h (0 Bft) 100,00 %
28.02.2016 02:07 0,6 C 85 % 1007,6 hPa 0,0 l/m 1,5 km/h (1 Bft) O-NO 65 0 min 0,000 mm 0,0 UV-I 0 W/m -1,6 C 0,6 C 3,2 km/h (1 Bft) 100,00 %
28.02.2016 02:08 0,6 C 85 % 1007,6 hPa 0,0 l/m 1,6 km/h (1 Bft) O-NO 65 0 min 0,000 mm 0,0 UV-I 0 W/m -1,6 C 0,6 C 3,2 km/h (1 Bft) 100,00 %
28.02.2016 02:09 0,6 C 85 % 1007,6 hPa 0,0 l/m 0,8 km/h (0 Bft) O-NO 65 0 min 0,000 mm 0,0 UV-I 0 W/m -1,6 C 0,6 C 1,6 km/h (1 Bft) 100,00 %
28.02.2016 02:10 0,6 C 85 % 1007,7 hPa 0,0 l/m 0,8 km/h (0 Bft) O-NO 65 0 min 0,000 mm 0,0 UV-I 0 W/m -1,6 C 0,6 C 1,6 km/h (1 Bft) 100,00 %
28.02.2016 02:11 0,6 C 85 % 1007,7 hPa 0,0 l/m 1,5 km/h (1 Bft) O-NO 65 0 min 0,000 mm 0,0 UV-I 0 W/m -1,6 C 0,6 C 3,2 km/h (1 Bft) 100,00 %
28.02.2016 02:12 0,7 C 85 % 1007,7 hPa 0,0 l/m 2,4 km/h (1 Bft) O-NO 65 0 min 0,000 mm 0,0 UV-I 0 W/m -1,5 C 0,7 C 3,2 km/h (1 Bft) 100,00 %
28.02.2016 02:13 0,7 C 85 % 1007,7 hPa 0,0 l/m 0,7 km/h (0 Bft) O-NO 65 0 min 0,000 mm 0,0 UV-I 0 W/m -1,5 C 0,7 C 1,6 km/h (1 Bft) 100,00 %
28.02.2016 02:14 0,7 C 85 % 1007,7 hPa 0,0 l/m 0,3 km/h (0 Bft) O-NO 65 0 min 0,000 mm 0,0 UV-I 0 W/m -1,5 C 0,7 C 1,6 km/h (1 Bft) 100,00 %
28.02.2016 02:15 0,6 C 85 % 1007,7 hPa 0,0 l/m 0,2 km/h (0 Bft) O-NO 65 0 min 0,000 mm 0,0 UV-I 0 W/m -1,6 C 0,6 C 1,6 km/h (1 Bft) 100,00 %
28.02.2016 02:16 0,5 C 84 % 1007,7 hPa 0,0 l/m 1,2 km/h (1 Bft) O-NO 65 0 min 0,000 mm 0,0 UV-I 0 W/m -1,9 C 0,5 C 1,6 km/h (1 Bft) 100,00 %
28.02.2016 02:17 0,4 C 85 % 1007,6 hPa 0,0 l/m 1,5 km/h (1 Bft) O-NO 65 0 min 0,000 mm 0,0 UV-I 0 W/m -1,8 C 0,4 C 1,6 km/h (1 Bft) 100,00 %
28.02.2016 02:18 0,3 C 85 % 1007,7 hPa 0,0 l/m 0,6 km/h (0 Bft) O-NO 65 0 min 0,000 mm 0,0 UV-I 0 W/m -1,9 C 0,3 C 1,6 km/h (1 Bft) 95,83 %
28.02.2016 02:19 0,2 C 85 % 1007,6 hPa 0,0 l/m 1,0 km/h (0 Bft) O-NO 65 0 min 0,000 mm 0,0 UV-I 0 W/m -2,0 C 0,2 C 1,6 km/h (1 Bft) 100,00 %
28.02.2016 02:20 0,1 C 86 % 1007,7 hPa 0,0 l/m 0,7 km/h (0 Bft) O-NO 65 0 min 0,000 mm 0,0 UV-I 0 W/m -2,0 C 0,1 C 1,6 km/h (1 Bft) 96,30 %
28.02.2016 02:21 0,0 C 86 % 1007,7 hPa 0,0 l/m 0,0 km/h (0 Bft) O-NO 65 0 min 0,000 mm 0,0 UV-I 0 W/m -2,1 C 0,0 C 0,0 km/h (0 Bft) 100,00 %
28.02.2016 02:22 -0,1 C 87 % 1007,7 hPa 0,0 l/m 0,0 km/h (0 Bft) O-NO 65 0 min 0,000 mm 0,0 UV-I 0 W/m -2,0 C -0,1 C 0,0 km/h (0 Bft) 100,00 %
28.02.2016 02:23 -0,2 C 86 % 1007,7 hPa 0,0 l/m 0,0 km/h (0 Bft) O-NO 65 0 min 0,000 mm 0,0 UV-I 0 W/m -2,3 C -0,2 C 0,0 km/h (0 Bft) 100,00 %
28.02.2016 02:24 -0,2 C 87 % 1007,7 hPa 0,0 l/m 0,2 km/h (0 Bft) O-NO 65 0 min 0,000 mm 0,0 UV-I 0 W/m -2,1 C -0,2 C 1,6 km/h (1 Bft) 100,00 %
28.02.2016 02:25 -0,2 C 87 % 1007,7 hPa 0,0 l/m 0,3 km/h (0 Bft) O-NO 65 0 min 0,000 mm 0,0 UV-I 0 W/m -2,1 C -0,2 C 1,6 km/h (1 Bft) 100,00 %
28.02.2016 02:26 -0,3 C 87 % 1007,7 hPa 0,0 l/m 0,3 km/h (0 Bft) O-NO 65 0 min 0,000 mm 0,0 UV-I 0 W/m -2,2 C -0,3 C 1,6 km/h (1 Bft) 100,00 %
28.02.2016 02:27 -0,2 C 88 % 1007,6 hPa 0,0 l/m 1,3 km/h (1 Bft) O-NO 65 0 min 0,000 mm 0,0 UV-I 0 W/m -1,9 C -0,2 C 1,6 km/h (1 Bft) 100,00 %
28.02.2016 02:28 -0,2 C 88 % 1007,6 hPa 0,0 l/m 1,4 km/h (1 Bft) O-NO 65 0 min 0,000 mm 0,0 UV-I 0 W/m -1,9 C -0,2 C 1,6 km/h (1 Bft) 100,00 %
28.02.2016 02:29 -0,2 C 88 % 1007,6 hPa 0,0 l/m 1,7 km/h (1 Bft) O-NO 65 0 min 0,000 mm 0,0 UV-I 0 W/m -1,9 C -0,2 C 3,2 km/h (1 Bft) 100,00 %
28.02.2016 02:30 -0,2 C 88 % 1007,6 hPa 0,0 l/m 2,1 km/h (1 Bft) O-NO 65 0 min 0,000 mm 0,0 UV-I 0 W/m -1,9 C -0,2 C 3,2 km/h (1 Bft) 100,00 %
28.02.2016 02:31 -0,2 C 88 % 1007,6 hPa 0,0 l/m 2,7 km/h (1 Bft) O-NO 65 0 min 0,000 mm 0,0 UV-I 0 W/m -1,9 C -0,2 C 3,2 km/h (1 Bft) 100,00 %
28.02.2016 02:32 -0,1 C 88 % 1007,6 hPa 0,0 l/m 2,3 km/h (1 Bft) O-NO 65 0 min 0,000 mm 0,0 UV-I 0 W/m -1,8 C -0,1 C 3,2 km/h (1 Bft) 100,00 %
28.02.2016 02:33 -0,1 C 88 % 1007,5 hPa 0,0 l/m 3,1 km/h (1 Bft) O-NO 65 0 min 0,000 mm 0,0 UV-I 0 W/m -1,8 C -0,1 C 4,8 km/h (1 Bft) 100,00 %
28.02.2016 02:34 -0,1 C 88 % 1007,5 hPa 0,0 l/m 3,6 km/h (1 Bft) O-NO 65 0 min 0,000 mm 0,0 UV-I 0 W/m -1,8 C -0,1 C 4,8 km/h (1 Bft) 100,00 %
28.02.2016 02:35 -0,1 C 88 % 1007,6 hPa 0,0 l/m 3,8 km/h (1 Bft) O-NO 65 0 min 0,000 mm 0,0 UV-I 0 W/m -1,8 C -0,1 C 4,8 km/h (1 Bft) 95,65 %
28.02.2016 02:36 -0,1 C 88 % 1007,6 hPa 0,0 l/m 3,8 km/h (1 Bft) O-NO 65 0 min 0,000 mm 0,0 UV-I 0 W/m -1,8 C -0,1 C 4,8 km/h (1 Bft) 100,00 %
28.02.2016 02:37 -0,2 C 88 % 1007,6 hPa 0,0 l/m 4,0 km/h (1 Bft) O-NO 65 0 min 0,000 mm 0,0 UV-I 0 W/m -1,9 C -0,2 C 4,8 km/h (1 Bft) 100,00 %
28.02.2016 02:38 -0,1 C 88 % 1007,6 hPa 0,0 l/m 3,8 km/h (1 Bft) O-NO 64 0 min 0,000 mm 0,0 UV-I 0 W/m -1,8 C -0,1 C 4,8 km/h (1 Bft) 100,00 %
28.02.2016 02:39 -0,1 C 88 % 1007,5 hPa 0,0 l/m 3,4 km/h (1 Bft) O-NO 64 0 min 0,000 mm 0,0 UV-I 0 W/m -1,8 C -0,1 C 4,8 km/h (1 Bft) 100,00 %
28.02.2016 02:40 0,1 C 88 % 1007,5 hPa 0,0 l/m 3,8 km/h (1 Bft) O-NO 64 0 min 0,000 mm 0,0 UV-I 0 W/m -1,6 C 0,1 C 4,8 km/h (1 Bft) 100,00 %
28.02.2016 02:41 0,2 C 88 % 1007,5 hPa 0,0 l/m 4,4 km/h (1 Bft) O-NO 63 0 min 0,000 mm 0,0 UV-I 0 W/m -1,5 C 0,2 C 4,8 km/h (1 Bft) 100,00 %
28.02.2016 02:42 0,2 C 87 % 1007,5 hPa 0,0 l/m 3,9 km/h (1 Bft) O-NO 63 0 min 0,000 mm 0,0 UV-I 0 W/m -1,7 C 0,2 C 4,8 km/h (1 Bft) 100,00 %
28.02.2016 02:43 0,3 C 87 % 1007,5 hPa 0,0 l/m 4,0 km/h (1 Bft) O-NO 63 0 min 0,000 mm 0,0 UV-I 0 W/m -1,6 C 0,3 C 4,8 km/h (1 Bft) 100,00 %
28.02.2016 02:44 0,4 C 87 % 1007,5 hPa 0,0 l/m 3,7 km/h (1 Bft) O-NO 63 0 min 0,000 mm 0,0 UV-I 0 W/m -1,5 C 0,4 C 4,8 km/h (1 Bft) 96,15 %
28.02.2016 02:45 0,4 C 87 % 1007,5 hPa 0,0 l/m 2,6 km/h (1 Bft) O-NO 63 0 min 0,000 mm 0,0 UV-I 0 W/m -1,5 C 0,4 C 4,8 km/h (1 Bft) 100,00 %
28.02.2016 02:46 0,4 C 86 % 1007,5 hPa 0,0 l/m 3,8 km/h (1 Bft) O-NO 63 0 min 0,000 mm 0,0 UV-I 0 W/m -1,7 C 0,4 C 6,4 km/h (2 Bft) 100,00 %
28.02.2016 02:47 0,3 C 86 % 1007,5 hPa 0,0 l/m 5,0 km/h (1 Bft) O-NO 69 0 min 0,000 mm 0,0 UV-I 0 W/m -1,8 C 0,3 C 6,4 km/h (2 Bft) 95,83 %
28.02.2016 02:48 0,3 C 86 % 1007,5 hPa 0,0 l/m 4,9 km/h (1 Bft) O-NO 73 0 min 0,000 mm 0,0 UV-I 0 W/m -1,8 C 0,3 C 6,4 km/h (2 Bft) 100,00 %
28.02.2016 02:49 0,2 C 86 % 1007,5 hPa 0,0 l/m 3,9 km/h (1 Bft) O-NO 73 0 min 0,000 mm 0,0 UV-I 0 W/m -1,9 C 0,2 C 4,8 km/h (1 Bft) 100,00 %
28.02.2016 02:50 0,2 C 86 % 1007,5 hPa 0,0 l/m 4,4 km/h (1 Bft) O 83 0 min 0,000 mm 0,0 UV-I 0 W/m -1,9 C 0,2 C 6,4 km/h (2 Bft) 96,15 %
28.02.2016 02:51 0,1 C 86 % 1007,5 hPa 0,0 l/m 4,3 km/h (1 Bft) O-NO 75 0 min 0,000 mm 0,0 UV-I 0 W/m -2,0 C 0,1 C 4,8 km/h (1 Bft) 100,00 %
28.02.2016 02:52 0,1 C 87 % 1007,5 hPa 0,0 l/m 4,3 km/h (1 Bft) O-NO 73 0 min 0,000 mm 0,0 UV-I 0 W/m -1,8 C 0,1 C 6,4 km/h (2 Bft) 100,00 %
28.02.2016 02:53 0,1 C 87 % 1007,5 hPa 0,0 l/m 3,8 km/h (1 Bft) O-NO 70 0 min 0,000 mm 0,0 UV-I 0 W/m -1,8 C 0,1 C 4,8 km/h (1 Bft) 100,00 %
28.02.2016 02:54 0,2 C 87 % 1007,5 hPa 0,0 l/m 2,9 km/h (1 Bft) O-NO 70 0 min 0,000 mm 0,0 UV-I 0 W/m -1,7 C 0,2 C 4,8 km/h (1 Bft) 100,00 %
28.02.2016 02:55 0,3 C 87 % 1007,5 hPa 0,0 l/m 2,9 km/h (1 Bft) O-NO 70 0 min 0,000 mm 0,0 UV-I 0 W/m -1,6 C 0,3 C 4,8 km/h (1 Bft) 100,00 %
28.02.2016 02:56 0,3 C 87 % 1007,5 hPa 0,0 l/m 3,8 km/h (1 Bft) O-NO 69 0 min 0,000 mm 0,0 UV-I 0 W/m -1,6 C 0,3 C 4,8 km/h (1 Bft) 100,00 %
28.02.2016 02:57 0,3 C 87 % 1007,5 hPa 0,0 l/m 3,4 km/h (1 Bft) O-NO 69 0 min 0,000 mm 0,0 UV-I 0 W/m -1,6 C 0,3 C 4,8 km/h (1 Bft) 100,00 %
28.02.2016 02:58 0,4 C 87 % 1007,5 hPa 0,0 l/m 2,1 km/h (1 Bft) O-NO 69 0 min 0,000 mm 0,0 UV-I 0 W/m -1,5 C 0,4 C 3,2 km/h (1 Bft) 100,00 %
28.02.2016 02:59 0,5 C 86 % 1007,5 hPa 0,0 l/m 3,4 km/h (1 Bft) O-NO 69 0 min 0,000 mm 0,0 UV-I 0 W/m -1,6 C 0,5 C 4,8 km/h (1 Bft) 96,15 %
28.02.2016 03:00 0,6 C 86 % 1007,6 hPa 0,0 l/m 4,4 km/h (1 Bft) O-NO 69 0 min 0,000 mm 0,0 UV-I 0 W/m -1,5 C 0,6 C 4,8 km/h (1 Bft) 95,83 %
28.02.2016 03:02 0,6 C 85 % 1007,6 hPa 0,0 l/m 4,2 km/h (1 Bft) O 84 0 min 0,000 mm 0,0 UV-I 0 W/m -1,6 C 0,6 C 6,4 km/h (2 Bft) 100,00 %
28.02.2016 03:03 0,5 C 85 % 1007,5 hPa 0,0 l/m 2,6 km/h (1 Bft) O 85 0 min 0,000 mm 0,0 UV-I 0 W/m -1,7 C 0,5 C 4,8 km/h (1 Bft) 96,15 %
28.02.2016 03:04 0,4 C 86 % 1007,5 hPa 0,0 l/m 3,0 km/h (1 Bft) O-NO 67 0 min 0,000 mm 0,0 UV-I 0 W/m -1,7 C 0,4 C 4,8 km/h (1 Bft) 98,67 %
28.02.2016 03:05 0,4 C 86 % 1007,5 hPa 0,0 l/m 3,8 km/h (1 Bft) O-NO 67 0 min 0,000 mm 0,0 UV-I 0 W/m -1,7 C 0,4 C 4,8 km/h (1 Bft) 98,00 %
28.02.2016 03:06 0,4 C 86 % 1007,5 hPa 0,0 l/m 3,9 km/h (1 Bft) O-NO 67 0 min 0,000 mm 0,0 UV-I 0 W/m -1,7 C 0,4 C 4,8 km/h (1 Bft) 100,00 %
28.02.2016 03:07 0,4 C 86 % 1007,5 hPa 0,0 l/m 4,5 km/h (1 Bft) O-NO 67 0 min 0,000 mm 0,0 UV-I 0 W/m -1,7 C 0,4 C 6,4 km/h (2 Bft) 100,00 %
28.02.2016 03:08 0,4 C 86 % 1007,5 hPa 0,0 l/m 3,9 km/h (1 Bft) O-NO 67 0 min 0,000 mm 0,0 UV-I 0 W/m -1,7 C 0,4 C 4,8 km/h (1 Bft) 100,00 %
28.02.2016 03:09 0,5 C 86 % 1007,6 hPa 0,0 l/m 4,5 km/h (1 Bft) O-NO 65 0 min 0,000 mm 0,0 UV-I 0 W/m -1,6 C 0,5 C 6,4 km/h (2 Bft) 100,00 %
28.02.2016 03:10 0,6 C 86 % 1007,6 hPa 0,0 l/m 5,3 km/h (1 Bft) O-NO 63 0 min 0,000 mm 0,0 UV-I 0 W/m -1,5 C 0,6 C 8,0 km/h (2 Bft) 100,00 %
28.02.2016 03:11 0,6 C 86 % 1007,5 hPa 0,0 l/m 5,0 km/h (1 Bft) O-NO 63 0 min 0,000 mm 0,0 UV-I 0 W/m -1,5 C 0,6 C 6,4 km/h (2 Bft) 100,00 %
28.02.2016 03:12 0,7 C 85 % 1007,5 hPa 0,0 l/m 4,4 km/h (1 Bft) O-NO 60 0 min 0,000 mm 0,0 UV-I 0 W/m -1,5 C 0,7 C 6,4 km/h (2 Bft) 100,00 %
28.02.2016 03:13 0,7 C 85 % 1007,4 hPa 0,0 l/m 5,0 km/h (1 Bft) O-NO 59 0 min 0,000 mm 0,0 UV-I 0 W/m -1,5 C 0,7 C 6,4 km/h (2 Bft) 100,00 %
28.02.2016 03:14 0,8 C 85 % 1007,4 hPa 0,0 l/m 4,4 km/h (1 Bft) O-NO 59 0 min 0,000 mm 0,0 UV-I 0 W/m -1,4 C 0,8 C 4,8 km/h (1 Bft) 100,00 %
28.02.2016 03:15 0,8 C 85 % 1007,3 hPa 0,0 l/m 3,3 km/h (1 Bft) O-NO 59 0 min 0,000 mm 0,0 UV-I 0 W/m -1,4 C 0,8 C 4,8 km/h (1 Bft) 100,00 %
28.02.2016 03:16 0,8 C 85 % 1007,3 hPa 0,0 l/m 3,1 km/h (1 Bft) O-NO 60 0 min 0,000 mm 0,0 UV-I 0 W/m -1,4 C 0,8 C 4,8 km/h (1 Bft) 100,00 %
28.02.2016 03:17 0,8 C 84 % 1007,3 hPa 0,0 l/m 4,9 km/h (1 Bft) O-NO 57 0 min 0,000 mm 0,0 UV-I 0 W/m -1,6 C 0,8 C 6,4 km/h (2 Bft) 100,00 %
28.02.2016 03:18 0,9 C 84 % 1007,3 hPa 0,0 l/m 5,2 km/h (1 Bft) O-NO 61 0 min 0,000 mm 0,0 UV-I 0 W/m -1,5 C 0,9 C 6,4 km/h (2 Bft) 100,00 %
28.02.2016 03:19 0,9 C 84 % 1007,3 hPa 0,0 l/m 5,1 km/h (1 Bft) O-NO 76 0 min 0,000 mm 0,0 UV-I 0 W/m -1,5 C 0,9 C 6,4 km/h (2 Bft) 100,00 %
28.02.2016 03:20 0,9 C 84 % 1007,3 hPa 0,0 l/m 5,7 km/h (1 Bft) O-NO 71 0 min 0,000 mm 0,0 UV-I 0 W/m -1,5 C 0,9 C 8,0 km/h (2 Bft) 96,15 %
28.02.2016 03:21 0,8 C 84 % 1007,3 hPa 0,0 l/m 6,2 km/h (2 Bft) O-NO 68 0 min 0,000 mm 0,0 UV-I 0 W/m -1,6 C 0,8 C 8,0 km/h (2 Bft) 100,00 %
28.02.2016 03:22 0,8 C 84 % 1007,4 hPa 0,0 l/m 6,6 km/h (2 Bft) O-NO 74 0 min 0,000 mm 0,0 UV-I 0 W/m -1,6 C 0,6 C 8,0 km/h (2 Bft) 100,00 %
28.02.2016 03:23 0,8 C 84 % 1007,4 hPa 0,0 l/m 5,0 km/h (1 Bft) O-NO 71 0 min 0,000 mm 0,0 UV-I 0 W/m -1,6 C 0,8 C 8,0 km/h (2 Bft) 100,00 %
28.02.2016 03:24 0,7 C 84 % 1007,5 hPa 0,0 l/m 5,7 km/h (1 Bft) O-NO 74 0 min 0,000 mm 0,0 UV-I 0 W/m -1,7 C 0,7 C 6,4 km/h (2 Bft) 100,00 %
28.02.2016 03:25 0,7 C 84 % 1007,4 hPa 0,0 l/m 5,8 km/h (2 Bft) O-NO 71 0 min 0,000 mm 0,0 UV-I 0 W/m -1,7 C 0,7 C 6,4 km/h (2 Bft) 100,00 %
28.02.2016 03:26 0,7 C 84 % 1007,4 hPa 0,0 l/m 6,3 km/h (2 Bft) O-NO 70 0 min 0,000 mm 0,0 UV-I 0 W/m -1,7 C 0,7 C 8,0 km/h (2 Bft) 96,15 %
28.02.2016 03:27 0,6 C 85 % 1007,5 hPa 0,0 l/m 4,5 km/h (1 Bft) O-NO 69 0 min 0,000 mm 0,0 UV-I 0 W/m -1,6 C 0,6 C 6,4 km/h (2 Bft) 100,00 %
28.02.2016 03:28 0,6 C 85 % 1007,5 hPa 0,0 l/m 4,3 km/h (1 Bft) O-NO 69 0 min 0,000 mm 0,0 UV-I 0 W/m -1,6 C 0,6 C 6,4 km/h (2 Bft) 90,91 %
28.02.2016 03:29 0,5 C 85 % 1007,5 hPa 0,0 l/m 2,9 km/h (1 Bft) O-NO 69 0 min 0,000 mm 0,0 UV-I 0 W/m -1,7 C 0,5 C 4,8 km/h (1 Bft) 100,00 %
28.02.2016 03:30 0,6 C 85 % 1007,4 hPa 0,0 l/m 2,1 km/h (1 Bft) O-NO 69 0 min 0,000 mm 0,0 UV-I 0 W/m -1,6 C 0,6 C 3,2 km/h (1 Bft) 100,00 %
28.02.2016 03:31 0,6 C 85 % 1007,5 hPa 0,0 l/m 2,3 km/h (1 Bft) O-NO 59 0 min 0,000 mm 0,0 UV-I 0 W/m -1,6 C 0,6 C 4,8 km/h (1 Bft) 100,00 %
28.02.2016 03:32 0,6 C 85 % 1007,5 hPa 0,0 l/m 3,5 km/h (1 Bft) O-NO 59 0 min 0,000 mm 0,0 UV-I 0 W/m -1,6 C 0,6 C 4,8 km/h (1 Bft) 100,00 %
28.02.2016 03:33 0,6 C 85 % 1007,5 hPa 0,0 l/m 2,9 km/h (1 Bft) O-NO 59 0 min 0,000 mm 0,0 UV-I 0 W/m -1,6 C 0,6 C 4,8 km/h (1 Bft) 100,00 %
28.02.2016 03:34 0,6 C 85 % 1007,5 hPa 0,0 l/m 3,6 km/h (1 Bft) O-NO 59 0 min 0,000 mm 0,0 UV-I 0 W/m -1,6 C 0,6 C 4,8 km/h (1 Bft) 100,00 %
28.02.2016 03:35 0,6 C 85 % 1007,5 hPa 0,0 l/m 4,9 km/h (1 Bft) O-NO 59 0 min 0,000 mm 0,0 UV-I 0 W/m -1,6 C 0,6 C 6,4 km/h (2 Bft) 100,00 %
28.02.2016 03:36 0,7 C 85 % 1007,5 hPa 0,0 l/m 4,4 km/h (1 Bft) O-NO 71 0 min 0,000 mm 0,0 UV-I 0 W/m -1,5 C 0,7 C 6,4 km/h (2 Bft) 95,83 %
28.02.2016 03:37 0,7 C 85 % 1007,6 hPa 0,0 l/m 4,4 km/h (1 Bft) O-NO 73 0 min 0,000 mm 0,0 UV-I 0 W/m -1,5 C 0,7 C 4,8 km/h (1 Bft) 95,65 %
28.02.2016 03:38 0,7 C 85 % 1007,6 hPa 0,0 l/m 3,2 km/h (1 Bft) O-NO 73 0 min 0,000 mm 0,0 UV-I 0 W/m -1,5 C 0,7 C 4,8 km/h (1 Bft) 93,10 %
28.02.2016 03:39 0,6 C 85 % 1007,6 hPa 0,0 l/m 4,1 km/h (1 Bft) O-NO 75 0 min 0,000 mm 0,0 UV-I 0 W/m -1,6 C 0,6 C 4,8 km/h (1 Bft) 98,73 %
28.02.2016 03:40 0,6 C 85 % 1007,6 hPa 0,0 l/m 4,6 km/h (1 Bft) O-NO 71 0 min 0,000 mm 0,0 UV-I 0 W/m -1,6 C 0,6 C 6,4 km/h (2 Bft) 95,24 %
28.02.2016 03:41 0,6 C 85 % 1007,5 hPa 0,0 l/m 5,2 km/h (1 Bft) O-NO 73 0 min 0,000 mm 0,0 UV-I 0 W/m -1,6 C 0,6 C 8,0 km/h (2 Bft) 96,15 %
28.02.2016 03:42 0,5 C 85 % 1007,5 hPa 0,0 l/m 3,7 km/h (1 Bft) O-NO 73 0 min 0,000 mm 0,0 UV-I 0 W/m -1,7 C 0,5 C 4,8 km/h (1 Bft) 100,00 %
28.02.2016 03:43 0,5 C 85 % 1007,5 hPa 0,0 l/m 4,2 km/h (1 Bft) O-NO 73 0 min 0,000 mm 0,0 UV-I 0 W/m -1,7 C 0,5 C 4,8 km/h (1 Bft) 95,65 %
28.02.2016 03:44 0,4 C 85 % 1007,5 hPa 0,0 l/m 3,2 km/h (1 Bft) O-NO 73 0 min 0,000 mm 0,0 UV-I 0 W/m -1,8 C 0,4 C 4,8 km/h (1 Bft) 91,67 %
28.02.2016 03:45 0,4 C 86 % 1007,5 hPa 0,0 l/m 3,2 km/h (1 Bft) O-NO 73 0 min 0,000 mm 0,0 UV-I 0 W/m -1,7 C 0,4 C 4,8 km/h (1 Bft) 92,86 %
28.02.2016 03:46 0,4 C 86 % 1007,5 hPa 0,0 l/m 3,0 km/h (1 Bft) O-NO 73 0 min 0,000 mm 0,0 UV-I 0 W/m -1,7 C 0,4 C 4,8 km/h (1 Bft) 95,83 %
28.02.2016 03:47 0,4 C 86 % 1007,5 hPa 0,0 l/m 3,1 km/h (1 Bft) O-NO 73 0 min 0,000 mm 0,0 UV-I 0 W/m -1,7 C 0,4 C 3,2 km/h (1 Bft) 96,55 %
28.02.2016 03:48 0,5 C 86 % 1007,6 hPa 0,0 l/m 2,5 km/h (1 Bft) O-NO 73 0 min 0,000 mm 0,0 UV-I 0 W/m -1,6 C 0,5 C 3,2 km/h (1 Bft) 100,00 %
28.02.2016 03:49 0,5 C 86 % 1007,5 hPa 0,0 l/m 2,4 km/h (1 Bft) O-NO 73 0 min 0,000 mm 0,0 UV-I 0 W/m -1,6 C 0,5 C 3,2 km/h (1 Bft) 92,31 %
28.02.2016 03:50 0,5 C 86 % 1007,6 hPa 0,0 l/m 2,0 km/h (1 Bft) O-NO 73 0 min 0,000 mm 0,0 UV-I 0 W/m -1,6 C 0,5 C 3,2 km/h (1 Bft) 100,00 %
28.02.2016 03:51 0,5 C 86 % 1007,6 hPa 0,0 l/m 3,3 km/h (1 Bft) O-NO 73 0 min 0,000 mm 0,0 UV-I 0 W/m -1,6 C 0,5 C 4,8 km/h (1 Bft) 96,15 %
28.02.2016 03:52 0,4 C 86 % 1007,6 hPa 0,0 l/m 3,1 km/h (1 Bft) O-NO 73 0 min 0,000 mm 0,0 UV-I 0 W/m -1,7 C 0,4 C 4,8 km/h (1 Bft) 95,83 %
28.02.2016 03:53 0,4 C 86 % 1007,5 hPa 0,0 l/m 4,2 km/h (1 Bft) O-NO 71 0 min 0,000 mm 0,0 UV-I 0 W/m -1,7 C 0,4 C 6,4 km/h (2 Bft) 95,65 %
28.02.2016 03:54 0,4 C 86 % 1007,5 hPa 0,0 l/m 4,0 km/h (1 Bft) O-NO 71 0 min 0,000 mm 0,0 UV-I 0 W/m -1,7 C 0,4 C 4,8 km/h (1 Bft) 96,30 %
28.02.2016 03:55 0,5 C 86 % 1007,4 hPa 0,0 l/m 4,8 km/h (1 Bft) O-NO 70 0 min 0,000 mm 0,0 UV-I 0 W/m -1,6 C 0,5 C 6,4 km/h (2 Bft) 100,00 %
28.02.2016 03:56 0,5 C 86 % 1007,5 hPa 0,0 l/m 4,9 km/h (1 Bft) NO 50 0 min 0,000 mm 0,0 UV-I 0 W/m -1,6 C 0,5 C 6,4 km/h (2 Bft) 91,67 %
28.02.2016 03:57 0,6 C 86 % 1007,5 hPa 0,0 l/m 5,0 km/h (1 Bft) O-NO 65 0 min 0,000 mm 0,0 UV-I 0 W/m -1,5 C 0,6 C 6,4 km/h (2 Bft) 100,00 %
28.02.2016 03:58 0,6 C 86 % 1007,5 hPa 0,0 l/m 5,3 km/h (1 Bft) O-NO 71 0 min 0,000 mm 0,0 UV-I 0 W/m -1,5 C 0,6 C 6,4 km/h (2 Bft) 95,65 %
28.02.2016 03:59 0,7 C 85 % 1007,5 hPa 0,0 l/m 5,1 km/h (1 Bft) O-NO 72 0 min 0,000 mm 0,0 UV-I 0 W/m -1,5 C 0,7 C 6,4 km/h (2 Bft) 96,88 %
28.02.2016 04:00 0,7 C 85 % 1007,5 hPa 0,0 l/m 4,3 km/h (1 Bft) O-NO 74 0 min 0,000 mm 0,0 UV-I 0 W/m -1,5 C 0,7 C 4,8 km/h (1 Bft) 100,00 %
28.02.2016 04:01 0,6 C 85 % 1007,5 hPa 0,0 l/m 4,9 km/h (1 Bft) O-NO 76 0 min 0,000 mm 0,0 UV-I 0 W/m -1,6 C 0,6 C 6,4 km/h (2 Bft) 100,00 %
28.02.2016 04:02 0,6 C 85 % 1007,5 hPa 0,0 l/m 5,2 km/h (1 Bft) O 82 0 min 0,000 mm 0,0 UV-I 0 W/m -1,6 C 0,6 C 6,4 km/h (2 Bft) 100,00 %
28.02.2016 04:03 0,5 C 85 % 1007,5 hPa 0,0 l/m 4,1 km/h (1 Bft) O-NO 78 0 min 0,000 mm 0,0 UV-I 0 W/m -1,7 C 0,5 C 6,4 km/h (2 Bft) 95,83 %
28.02.2016 04:04 0,5 C 86 % 1007,4 hPa 0,0 l/m 5,6 km/h (1 Bft) O-NO 57 0 min 0,000 mm 0,0 UV-I 0 W/m -1,6 C 0,5 C 8,0 km/h (2 Bft) 100,00 %
28.02.2016 04:05 0,6 C 86 % 1007,4 hPa 0,0 l/m 4,4 km/h (1 Bft) NO 56 0 min 0,000 mm 0,0 UV-I 0 W/m -1,5 C 0,6 C 6,4 km/h (2 Bft) 95,83 %
28.02.2016 04:06 0,6 C 86 % 1007,3 hPa 0,0 l/m 4,4 km/h (1 Bft) NO 47 0 min 0,000 mm 0,0 UV-I 0 W/m -1,5 C 0,6 C 6,4 km/h (2 Bft) 100,00 %
28.02.2016 04:07 0,7 C 86 % 1007,3 hPa 0,0 l/m 5,9 km/h (2 Bft) NO 42 0 min 0,000 mm 0,0 UV-I 0 W/m -1,4 C 0,7 C 8,0 km/h (2 Bft) 96,30 %
28.02.2016 04:08 0,7 C 86 % 1007,3 hPa 0,0 l/m 5,4 km/h (1 Bft) NO 51 0 min 0,000 mm 0,0 UV-I 0 W/m -1,4 C 0,7 C 6,4 km/h (2 Bft) 96,15 %
28.02.2016 04:09 0,7 C 86 % 1007,3 hPa 0,0 l/m 5,1 km/h (1 Bft) O-NO 68 0 min 0,000 mm 0,0 UV-I 0 W/m -1,4 C 0,7 C 8,0 km/h (2 Bft) 100,00 %
28.02.2016 04:10 0,7 C 86 % 1007,4 hPa 0,0 l/m 6,2 km/h (2 Bft) O-NO 67 0 min 0,000 mm 0,0 UV-I 0 W/m -1,4 C 0,7 C 9,7 km/h (2 Bft) 90,91 %
28.02.2016 04:11 0,7 C 86 % 1007,4 hPa 0,0 l/m 6,9 km/h (2 Bft) O-NO 59 0 min 0,000 mm 0,0 UV-I 0 W/m -1,4 C 0,2 C 11,3 km/h (2 Bft) 100,00 %
28.02.2016 04:12 0,7 C 85 % 1007,4 hPa 0,0 l/m 6,4 km/h (2 Bft) O-NO 61 0 min 0,000 mm 0,0 UV-I 0 W/m -1,5 C 0,7 C 8,0 km/h (2 Bft) 92,86 %
28.02.2016 04:13 0,8 C 85 % 1007,3 hPa 0,0 l/m 5,8 km/h (2 Bft) O-NO 67 0 min 0,000 mm 0,0 UV-I 0 W/m -1,4 C 0,8 C 8,0 km/h (2 Bft) 100,00 %
28.02.2016 04:14 0,8 C 86 % 1007,4 hPa 0,0 l/m 7,2 km/h (2 Bft) O-NO 78 0 min 0,000 mm 0,0 UV-I 0 W/m -1,3 C -0,0 C 11,3 km/h (2 Bft) 96,15 %
28.02.2016 04:15 0,8 C 86 % 1007,4 hPa 0,0 l/m 7,4 km/h (2 Bft) O 80 0 min 0,000 mm 0,0 UV-I 0 W/m -1,3 C -0,2 C 9,7 km/h (2 Bft) 100,00 %
28.02.2016 04:16 0,8 C 86 % 1007,4 hPa 0,0 l/m 6,1 km/h (2 Bft) O 90 0 min 0,000 mm 0,0 UV-I 0 W/m -1,3 C 0,8 C 9,7 km/h (2 Bft) 100,00 %
28.02.2016 04:17 0,8 C 86 % 1007,4 hPa 0,0 l/m 8,7 km/h (2 Bft) O-NO 77 0 min 0,000 mm 0,0 UV-I 0 W/m -1,3 C -1,5 C 12,9 km/h (3 Bft) 100,00 %
28.02.2016 04:18 0,8 C 86 % 1007,4 hPa 0,0 l/m 11,4 km/h (2 Bft) O 81 0 min 0,000 mm 0,0 UV-I 0 W/m -1,3 C -3,6 C 14,5 km/h (3 Bft) 100,00 %
28.02.2016 04:19 0,8 C 86 % 1007,4 hPa 0,0 l/m 12,5 km/h (3 Bft) O-NO 78 0 min 0,000 mm 0,0 UV-I 0 W/m -1,3 C -4,4 C 14,5 km/h (3 Bft) 93,10 %
28.02.2016 04:20 0,8 C 86 % 1007,4 hPa 0,0 l/m 12,2 km/h (2 Bft) O 94 0 min 0,000 mm 0,0 UV-I 0 W/m -1,3 C -4,2 C 16,1 km/h (3 Bft) 100,00 %
28.02.2016 04:21 0,8 C 86 % 1007,4 hPa 0,0 l/m 7,1 km/h (2 Bft) NO 54 0 min 0,000 mm 0,0 UV-I 0 W/m -1,3 C 0,1 C 9,7 km/h (2 Bft) 100,00 %
28.02.2016 04:22 0,9 C 86 % 1007,4 hPa 0,0 l/m 11,5 km/h (2 Bft) O-NO 58 0 min 0,000 mm 0,0 UV-I 0 W/m -1,2 C -3,6 C 16,1 km/h (3 Bft) 100,00 %
28.02.2016 04:23 0,9 C 86 % 1007,4 hPa 0,0 l/m 10,8 km/h (2 Bft) O-NO 67 0 min 0,000 mm 0,0 UV-I 0 W/m -1,2 C -3,1 C 14,5 km/h (3 Bft) 100,00 %
28.02.2016 04:24 0,9 C 86 % 1007,4 hPa 0,0 l/m 11,7 km/h (2 Bft) NO 46 0 min 0,000 mm 0,0 UV-I 0 W/m -1,2 C -3,8 C 16,1 km/h (3 Bft) 100,00 %
28.02.2016 04:25 1,0 C 86 % 1007,4 hPa 0,0 l/m 8,9 km/h (2 Bft) O-NO 59 0 min 0,000 mm 0,0 UV-I 0 W/m -1,1 C -1,4 C 12,9 km/h (3 Bft) 100,00 %
28.02.2016 04:26 1,1 C 86 % 1007,3 hPa 0,0 l/m 13,9 km/h (3 Bft) O-NO 71 0 min 0,000 mm 0,0 UV-I 0 W/m -1,0 C -5,0 C 17,7 km/h (3 Bft) 100,00 %
28.02.2016 04:27 1,1 C 86 % 1007,3 hPa 0,0 l/m 11,7 km/h (2 Bft) O-NO 69 0 min 0,000 mm 0,0 UV-I 0 W/m -1,0 C -3,5 C 17,7 km/h (3 Bft) 100,00 %
28.02.2016 04:28 1,1 C 86 % 1007,3 hPa 0,0 l/m 9,1 km/h (2 Bft) O-NO 59 0 min 0,000 mm 0,0 UV-I 0 W/m -1,0 C -1,5 C 14,5 km/h (3 Bft) 91,67 %
28.02.2016 04:29 1,1 C 86 % 1007,3 hPa 0,0 l/m 9,6 km/h (2 Bft) O-NO 74 0 min 0,000 mm 0,0 UV-I 0 W/m -1,0 C -1,9 C 12,9 km/h (3 Bft) 96,55 %
28.02.2016 04:30 1,2 C 86 % 1007,4 hPa 0,0 l/m 12,4 km/h (3 Bft) O-NO 77 0 min 0,000 mm 0,0 UV-I 0 W/m -0,9 C -3,9 C 14,5 km/h (3 Bft) 91,67 %
28.02.2016 04:31 1,2 C 85 % 1007,5 hPa 0,0 l/m 8,2 km/h (2 Bft) O-NO 66 0 min 0,000 mm 0,0 UV-I 0 W/m -1,0 C -0,6 C 12,9 km/h (3 Bft) 100,00 %
28.02.2016 04:32 1,2 C 85 % 1007,5 hPa 0,0 l/m 10,9 km/h (2 Bft) O-NO 58 0 min 0,000 mm 0,0 UV-I 0 W/m -1,0 C -2,8 C 14,5 km/h (3 Bft) 100,00 %
28.02.2016 04:33 1,2 C 85 % 1007,5 hPa 0,0 l/m 9,9 km/h (2 Bft) NO 56 0 min 0,000 mm 0,0 UV-I 0 W/m -1,0 C -2,0 C 14,5 km/h (3 Bft) 100,00 %
28.02.2016 04:34 1,2 C 85 % 1007,5 hPa 0,0 l/m 11,6 km/h (2 Bft) O-NO 71 0 min 0,000 mm 0,0 UV-I 0 W/m -1,0 C -3,3 C 14,5 km/h (3 Bft) 100,00 %
28.02.2016 04:35 1,2 C 85 % 1007,5 hPa 0,0 l/m 13,5 km/h (3 Bft) O-NO 76 0 min 0,000 mm 0,0 UV-I 0 W/m -1,0 C -4,6 C 16,1 km/h (3 Bft) 100,00 %
28.02.2016 04:36 1,2 C 85 % 1007,5 hPa 0,0 l/m 11,4 km/h (2 Bft) O-NO 61 0 min 0,000 mm 0,0 UV-I 0 W/m -1,0 C -3,2 C 16,1 km/h (3 Bft) 100,00 %
28.02.2016 04:37 1,2 C 85 % 1007,5 hPa 0,0 l/m 10,8 km/h (2 Bft) O 82 0 min 0,000 mm 0,0 UV-I 0 W/m -1,0 C -2,7 C 12,9 km/h (3 Bft) 100,00 %
28.02.2016 04:38 1,2 C 85 % 1007,4 hPa 0,0 l/m 9,6 km/h (2 Bft) O-NO 66 0 min 0,000 mm 0,0 UV-I 0 W/m -1,0 C -1,8 C 14,5 km/h (3 Bft) 100,00 %
28.02.2016 04:39 1,3 C 85 % 1007,5 hPa 0,0 l/m 10,7 km/h (2 Bft) NO 52 0 min 0,000 mm 0,0 UV-I 0 W/m -0,9 C -2,6 C 12,9 km/h (3 Bft) 100,00 %
28.02.2016 04:40 1,3 C 85 % 1007,5 hPa 0,0 l/m 11,1 km/h (2 Bft) O-NO 60 0 min 0,000 mm 0,0 UV-I 0 W/m -0,9 C -2,9 C 14,5 km/h (3 Bft) 91,30 %
28.02.2016 04:41 1,3 C 85 % 1007,5 hPa 0,0 l/m 11,1 km/h (2 Bft) O-NO 66 0 min 0,000 mm 0,0 UV-I 0 W/m -0,9 C -2,9 C 14,5 km/h (3 Bft) 95,83 %
28.02.2016 04:42 1,3 C 85 % 1007,5 hPa 0,0 l/m 12,4 km/h (3 Bft) O-NO 78 0 min 0,000 mm 0,0 UV-I 0 W/m -0,9 C -3,8 C 16,1 km/h (3 Bft) 96,15 %
28.02.2016 04:43 1,3 C 85 % 1007,5 hPa 0,0 l/m 11,7 km/h (2 Bft) O 95 0 min 0,000 mm 0,0 UV-I 0 W/m -0,9 C -3,3 C 14,5 km/h (3 Bft) 100,00 %
28.02.2016 04:44 1,3 C 85 % 1007,5 hPa 0,0 l/m 12,5 km/h (3 Bft) O 94 0 min 0,000 mm 0,0 UV-I 0 W/m -0,9 C -3,8 C 16,1 km/h (3 Bft) 100,00 %
28.02.2016 04:45 1,3 C 85 % 1007,5 hPa 0,0 l/m 14,9 km/h (3 Bft) O-NO 78 0 min 0,000 mm 0,0 UV-I 0 W/m -0,9 C -5,3 C 17,7 km/h (3 Bft) 100,00 %
28.02.2016 04:46 1,3 C 85 % 1007,5 hPa 0,0 l/m 13,6 km/h (3 Bft) O-NO 60 0 min 0,000 mm 0,0 UV-I 0 W/m -0,9 C -4,6 C 16,1 km/h (3 Bft) 100,00 %
28.02.2016 04:47 1,3 C 85 % 1007,5 hPa 0,0 l/m 10,6 km/h (2 Bft) O-NO 78 0 min 0,000 mm 0,0 UV-I 0 W/m -0,9 C -2,5 C 14,5 km/h (3 Bft) 100,00 %
28.02.2016 04:48 1,4 C 85 % 1007,5 hPa 0,0 l/m 11,7 km/h (2 Bft) O-NO 57 0 min 0,000 mm 0,0 UV-I 0 W/m -0,8 C -3,2 C 14,5 km/h (3 Bft) 100,00 %
28.02.2016 04:49 1,4 C 85 % 1007,5 hPa 0,0 l/m 9,7 km/h (2 Bft) O-NO 59 0 min 0,000 mm 0,0 UV-I 0 W/m -0,8 C -1,7 C 12,9 km/h (3 Bft) 100,00 %
28.02.2016 04:50 1,4 C 85 % 1007,6 hPa 0,0 l/m 9,6 km/h (2 Bft) O-NO 71 0 min 0,000 mm 0,0 UV-I 0 W/m -0,8 C -1,6 C 12,9 km/h (3 Bft) 100,00 %
28.02.2016 04:51 1,4 C 85 % 1007,6 hPa 0,0 l/m 12,1 km/h (2 Bft) NO 53 0 min 0,000 mm 0,0 UV-I 0 W/m -0,8 C -3,5 C 17,7 km/h (3 Bft) 98,54 %
28.02.2016 04:52 1,5 C 85 % 1007,6 hPa 0,0 l/m 10,5 km/h (2 Bft) O 79 0 min 0,000 mm 0,0 UV-I 0 W/m -0,7 C -2,2 C 14,5 km/h (3 Bft) 100,00 %
28.02.2016 04:53 1,5 C 85 % 1007,6 hPa 0,0 l/m 8,6 km/h (2 Bft) O-NO 63 0 min 0,000 mm 0,0 UV-I 0 W/m -0,7 C -0,6 C 12,9 km/h (3 Bft) 100,00 %
28.02.2016 04:54 1,6 C 85 % 1007,6 hPa 0,0 l/m 9,5 km/h (2 Bft) O-NO 74 0 min 0,000 mm 0,0 UV-I 0 W/m -0,6 C -1,3 C 12,9 km/h (3 Bft) 100,00 %
28.02.2016 04:55 1,6 C 85 % 1007,6 hPa 0,0 l/m 8,4 km/h (2 Bft) O-NO 70 0 min 0,000 mm 0,0 UV-I 0 W/m -0,6 C -0,3 C 12,9 km/h (3 Bft) 100,00 %
28.02.2016 04:56 1,6 C 85 % 1007,6 hPa 0,0 l/m 8,4 km/h (2 Bft) O-NO 59 0 min 0,000 mm 0,0 UV-I 0 W/m -0,6 C -0,3 C 12,9 km/h (3 Bft) 100,00 %
28.02.2016 04:57 1,6 C 85 % 1007,6 hPa 0,0 l/m 9,5 km/h (2 Bft) O-NO 63 0 min 0,000 mm 0,0 UV-I 0 W/m -0,6 C -1,3 C 12,9 km/h (3 Bft) 100,00 %
28.02.2016 04:58 1,6 C 85 % 1007,6 hPa 0,0 l/m 7,9 km/h (2 Bft) O 80 0 min 0,000 mm 0,0 UV-I 0 W/m -0,6 C 0,1 C 14,5 km/h (3 Bft) 100,00 %
28.02.2016 04:59 1,6 C 85 % 1007,6 hPa 0,0 l/m 9,8 km/h (2 Bft) O-NO 59 0 min 0,000 mm 0,0 UV-I 0 W/m -0,6 C -1,5 C 14,5 km/h (3 Bft) 100,00 %
28.02.2016 05:00 1,6 C 85 % 1007,6 hPa 0,0 l/m 6,8 km/h (2 Bft) NO 49 0 min 0,000 mm 0,0 UV-I 0 W/m -0,6 C 1,2 C 8,0 km/h (2 Bft) 100,00 %
28.02.2016 05:02 1,7 C 85 % 1007,8 hPa 0,0 l/m 8,6 km/h (2 Bft) O-NO 71 0 min 0,000 mm 0,0 UV-I 0 W/m -0,5 C -0,4 C 12,9 km/h (3 Bft) 100,00 %
28.02.2016 05:03 1,7 C 85 % 1007,8 hPa 0,0 l/m 7,7 km/h (2 Bft) O-NO 68 0 min 0,000 mm 0,0 UV-I 0 W/m -0,5 C 0,4 C 12,9 km/h (3 Bft) 100,00 %
28.02.2016 05:04 1,7 C 85 % 1007,8 hPa 0,0 l/m 6,4 km/h (2 Bft) O-NO 67 0 min 0,000 mm 0,0 UV-I 0 W/m -0,5 C 1,7 C 11,3 km/h (2 Bft) 100,00 %
28.02.2016 05:05 1,7 C 85 % 1007,8 hPa 0,0 l/m 7,8 km/h (2 Bft) O-NO 59 0 min 0,000 mm 0,0 UV-I 0 W/m -0,5 C 0,3 C 9,7 km/h (2 Bft) 100,00 %
28.02.2016 05:06 1,7 C 85 % 1007,8 hPa 0,0 l/m 6,6 km/h (2 Bft) O-NO 77 0 min 0,000 mm 0,0 UV-I 0 W/m -0,5 C 1,5 C 11,3 km/h (2 Bft) 100,00 %
28.02.2016 05:07 1,7 C 85 % 1007,8 hPa 0,0 l/m 8,4 km/h (2 Bft) O-NO 59 0 min 0,000 mm 0,0 UV-I 0 W/m -0,5 C -0,2 C 11,3 km/h (2 Bft) 100,00 %
28.02.2016 05:08 1,7 C 85 % 1007,8 hPa 0,0 l/m 8,6 km/h (2 Bft) NO 54 0 min 0,000 mm 0,0 UV-I 0 W/m -0,5 C -0,4 C 12,9 km/h (3 Bft) 100,00 %
28.02.2016 05:09 1,7 C 85 % 1007,8 hPa 0,0 l/m 10,3 km/h (2 Bft) NO 51 0 min 0,000 mm 0,0 UV-I 0 W/m -0,5 C -1,8 C 12,9 km/h (3 Bft) 100,00 %
28.02.2016 05:10 1,7 C 85 % 1007,8 hPa 0,0 l/m 9,7 km/h (2 Bft) O-NO 72 0 min 0,000 mm 0,0 UV-I 0 W/m -0,5 C -1,3 C 12,9 km/h (3 Bft) 100,00 %
28.02.2016 05:11 1,7 C 85 % 1007,8 hPa 0,0 l/m 9,0 km/h (2 Bft) O-NO 72 0 min 0,000 mm 0,0 UV-I 0 W/m -0,5 C -0,8 C 14,5 km/h (3 Bft) 100,00 %
28.02.2016 05:12 1,7 C 85 % 1007,7 hPa 0,0 l/m 10,1 km/h (2 Bft) O 80 0 min 0,000 mm 0,0 UV-I 0 W/m -0,5 C -1,7 C 14,5 km/h (3 Bft) 100,00 %
28.02.2016 05:13 1,7 C 85 % 1007,7 hPa 0,0 l/m 10,4 km/h (2 Bft) O-NO 63 0 min 0,000 mm 0,0 UV-I 0 W/m -0,5 C -1,9 C 12,9 km/h (3 Bft) 98,99 %
28.02.2016 05:14 1,7 C 85 % 1007,7 hPa 0,0 l/m 8,6 km/h (2 Bft) O-NO 68 0 min 0,000 mm 0,0 UV-I 0 W/m -0,5 C -0,4 C 12,9 km/h (3 Bft) 100,00 %
28.02.2016 05:15 1,7 C 85 % 1007,7 hPa 0,0 l/m 7,9 km/h (2 Bft) O-NO 66 0 min 0,000 mm 0,0 UV-I 0 W/m -0,5 C 0,2 C 11,3 km/h (2 Bft) 100,00 %
28.02.2016 05:16 1,7 C 85 % 1007,8 hPa 0,0 l/m 7,8 km/h (2 Bft) O-NO 76 0 min 0,000 mm 0,0 UV-I 0 W/m -0,5 C 0,3 C 12,9 km/h (3 Bft) 100,00 %
28.02.2016 05:17 1,6 C 85 % 1007,7 hPa 0,0 l/m 7,9 km/h (2 Bft) O 84 0 min 0,000 mm 0,0 UV-I 0 W/m -0,6 C 0,1 C 11,3 km/h (2 Bft) 100,00 %
28.02.2016 05:18 1,6 C 85 % 1007,7 hPa 0,0 l/m 7,4 km/h (2 Bft) O-NO 69 0 min 0,000 mm 0,0 UV-I 0 W/m -0,6 C 0,6 C 11,3 km/h (2 Bft) 100,00 %
28.02.2016 05:19 1,6 C 85 % 1007,7 hPa 0,0 l/m 6,6 km/h (2 Bft) O-NO 76 0 min 0,000 mm 0,0 UV-I 0 W/m -0,6 C 1,4 C 8,0 km/h (2 Bft) 100,00 %
28.02.2016 05:20 1,6 C 85 % 1007,7 hPa 0,0 l/m 8,4 km/h (2 Bft) O-NO 71 0 min 0,000 mm 0,0 UV-I 0 W/m -0,6 C -0,3 C 12,9 km/h (3 Bft) 100,00 %
28.02.2016 05:21 1,6 C 85 % 1007,7 hPa 0,0 l/m 8,7 km/h (2 Bft) O-NO 71 0 min 0,000 mm 0,0 UV-I 0 W/m -0,6 C -0,6 C 12,9 km/h (3 Bft) 95,83 %
28.02.2016 05:22 1,6 C 85 % 1007,8 hPa 0,0 l/m 10,7 km/h (2 Bft) O-NO 69 0 min 0,000 mm 0,0 UV-I 0 W/m -0,6 C -2,2 C 14,5 km/h (3 Bft) 100,00 %
28.02.2016 05:23 1,6 C 85 % 1007,8 hPa 0,0 l/m 11,1 km/h (2 Bft) O-NO 57 0 min 0,000 mm 0,0 UV-I 0 W/m -0,6 C -2,5 C 14,5 km/h (3 Bft) 100,00 %
28.02.2016 05:24 1,6 C 85 % 1007,8 hPa 0,0 l/m 11,0 km/h (2 Bft) NO 52 0 min 0,000 mm 0,0 UV-I 0 W/m -0,6 C -2,4 C 16,1 km/h (3 Bft) 100,00 %
28.02.2016 05:25 1,6 C 85 % 1007,7 hPa 0,0 l/m 12,1 km/h (2 Bft) NO 53 0 min 0,000 mm 0,0 UV-I 0 W/m -0,6 C -3,2 C 16,1 km/h (3 Bft) 100,00 %
28.02.2016 05:26 1,7 C 85 % 1007,8 hPa 0,0 l/m 9,5 km/h (2 Bft) O-NO 75 0 min 0,000 mm 0,0 UV-I 0 W/m -0,5 C -1,2 C 14,5 km/h (3 Bft) 100,00 %
28.02.2016 05:27 1,7 C 85 % 1007,8 hPa 0,0 l/m 10,9 km/h (2 Bft) O-NO 74 0 min 0,000 mm 0,0 UV-I 0 W/m -0,5 C -2,3 C 14,5 km/h (3 Bft) 100,00 %
28.02.2016 05:28 1,7 C 85 % 1007,8 hPa 0,0 l/m 12,4 km/h (3 Bft) O-NO 59 0 min 0,000 mm 0,0 UV-I 0 W/m -0,5 C -3,3 C 17,7 km/h (3 Bft) 96,55 %
28.02.2016 05:29 1,7 C 85 % 1007,8 hPa 0,0 l/m 12,8 km/h (3 Bft) O-NO 64 0 min 0,000 mm 0,0 UV-I 0 W/m -0,5 C -3,6 C 16,1 km/h (3 Bft) 100,00 %
28.02.2016 05:30 1,7 C 85 % 1007,8 hPa 0,0 l/m 10,9 km/h (2 Bft) O-NO 63 0 min 0,000 mm 0,0 UV-I 0 W/m -0,5 C -2,3 C 16,1 km/h (3 Bft) 100,00 %
28.02.2016 05:31 1,8 C 85 % 1007,8 hPa 0,0 l/m 14,0 km/h (3 Bft) O-NO 74 0 min 0,000 mm 0,0 UV-I 0 W/m -0,4 C -4,2 C 19,3 km/h (3 Bft) 100,00 %
28.02.2016 05:32 1,8 C 85 % 1007,8 hPa 0,0 l/m 9,9 km/h (2 Bft) O 80 0 min 0,000 mm 0,0 UV-I 0 W/m -0,4 C -1,4 C 16,1 km/h (3 Bft) 100,00 %
28.02.2016 05:33 1,8 C 85 % 1007,8 hPa 0,0 l/m 9,8 km/h (2 Bft) O-NO 61 0 min 0,000 mm 0,0 UV-I 0 W/m -0,4 C -1,3 C 12,9 km/h (3 Bft) 100,00 %
28.02.2016 05:34 1,8 C 85 % 1007,7 hPa 0,0 l/m 11,1 km/h (2 Bft) NO 52 0 min 0,000 mm 0,0 UV-I 0 W/m -0,4 C -2,3 C 16,1 km/h (3 Bft) 100,00 %
28.02.2016 05:35 1,8 C 85 % 1007,7 hPa 0,0 l/m 12,9 km/h (3 Bft) O-NO 76 0 min 0,000 mm 0,0 UV-I 0 W/m -0,4 C -3,5 C 19,3 km/h (3 Bft) 100,00 %
28.02.2016 05:36 1,8 C 85 % 1007,7 hPa 0,0 l/m 12,2 km/h (2 Bft) O-NO 60 0 min 0,000 mm 0,0 UV-I 0 W/m -0,4 C -3,1 C 16,1 km/h (3 Bft) 100,00 %
28.02.2016 05:37 1,8 C 85 % 1007,7 hPa 0,0 l/m 13,5 km/h (3 Bft) O 79 0 min 0,000 mm 0,0 UV-I 0 W/m -0,4 C -3,9 C 17,7 km/h (3 Bft) 95,65 %
28.02.2016 05:38 1,9 C 85 % 1007,7 hPa 0,0 l/m 14,9 km/h (3 Bft) NO 46 0 min 0,000 mm 0,0 UV-I 0 W/m -0,3 C -4,6 C 20,9 km/h (4 Bft) 100,00 %
28.02.2016 05:39 1,9 C 84 % 1007,7 hPa 0,0 l/m 13,6 km/h (3 Bft) O-NO 71 0 min 0,000 mm 0,0 UV-I 0 W/m -0,5 C -3,9 C 17,7 km/h (3 Bft) 100,00 %
28.02.2016 05:40 1,9 C 84 % 1007,7 hPa 0,0 l/m 11,3 km/h (2 Bft) O-NO 63 0 min 0,000 mm 0,0 UV-I 0 W/m -0,5 C -2,3 C 14,5 km/h (3 Bft) 100,00 %
28.02.2016 05:41 1,9 C 84 % 1007,7 hPa 0,0 l/m 11,6 km/h (2 Bft) O-NO 67 0 min 0,000 mm 0,0 UV-I 0 W/m -0,5 C -2,5 C 16,1 km/h (3 Bft) 100,00 %
28.02.2016 05:42 1,8 C 85 % 1007,7 hPa 0,0 l/m 14,2 km/h (3 Bft) O-NO 67 0 min 0,000 mm 0,0 UV-I 0 W/m -0,4 C -4,3 C 17,7 km/h (3 Bft) 100,00 %
28.02.2016 05:43 1,8 C 85 % 1007,7 hPa 0,0 l/m 12,6 km/h (3 Bft) NO 44 0 min 0,000 mm 0,0 UV-I 0 W/m -0,4 C -3,3 C 17,7 km/h (3 Bft) 100,00 %
28.02.2016 05:44 1,8 C 85 % 1007,7 hPa 0,0 l/m 9,7 km/h (2 Bft) O-NO 61 0 min 0,000 mm 0,0 UV-I 0 W/m -0,4 C -1,2 C 14,5 km/h (3 Bft) 100,00 %
28.02.2016 05:45 1,8 C 85 % 1007,7 hPa 0,0 l/m 10,9 km/h (2 Bft) O-NO 59 0 min 0,000 mm 0,0 UV-I 0 W/m -0,4 C -2,1 C 16,1 km/h (3 Bft) 100,00 %
28.02.2016 05:46 1,8 C 85 % 1007,7 hPa 0,0 l/m 9,8 km/h (2 Bft) NO 55 0 min 0,000 mm 0,0 UV-I 0 W/m -0,4 C -1,3 C 12,9 km/h (3 Bft) 100,00 %
28.02.2016 05:47 1,8 C 85 % 1007,7 hPa 0,0 l/m 9,1 km/h (2 Bft) NO 44 0 min 0,000 mm 0,0 UV-I 0 W/m -0,4 C -0,7 C 12,9 km/h (3 Bft) 92,86 %
28.02.2016 05:48 1,8 C 85 % 1007,7 hPa 0,0 l/m 6,7 km/h (2 Bft) O-NO 59 0 min 0,000 mm 0,0 UV-I 0 W/m -0,4 C 1,5 C 9,7 km/h (2 Bft) 100,00 %
28.02.2016 05:49 1,8 C 85 % 1007,7 hPa 0,0 l/m 7,3 km/h (2 Bft) NO 38 0 min 0,000 mm 0,0 UV-I 0 W/m -0,4 C 0,9 C 9,7 km/h (2 Bft) 95,65 %
28.02.2016 05:50 1,7 C 85 % 1007,7 hPa 0,0 l/m 8,6 km/h (2 Bft) O-NO 66 0 min 0,000 mm 0,0 UV-I 0 W/m -0,5 C -0,4 C 12,9 km/h (3 Bft) 100,00 %
28.02.2016 05:51 1,7 C 85 % 1007,7 hPa 0,0 l/m 8,9 km/h (2 Bft) O-NO 59 0 min 0,000 mm 0,0 UV-I 0 W/m -0,5 C -0,7 C 12,9 km/h (3 Bft) 96,15 %
28.02.2016 05:52 1,7 C 85 % 1007,7 hPa 0,0 l/m 7,7 km/h (2 Bft) O-NO 74 0 min 0,000 mm 0,0 UV-I 0 W/m -0,5 C 0,4 C 11,3 km/h (2 Bft) 96,30 %
28.02.2016 05:53 1,7 C 85 % 1007,8 hPa 0,0 l/m 10,4 km/h (2 Bft) NO 54 0 min 0,000 mm 0,0 UV-I 0 W/m -0,5 C -1,9 C 14,5 km/h (3 Bft) 100,00 %
28.02.2016 05:54 1,7 C 85 % 1007,8 hPa 0,0 l/m 7,7 km/h (2 Bft) NO 55 0 min 0,000 mm 0,0 UV-I 0 W/m -0,5 C 0,4 C 9,7 km/h (2 Bft) 96,30 %
28.02.2016 05:55 1,7 C 85 % 1007,8 hPa 0,0 l/m 8,2 km/h (2 Bft) O-NO 76 0 min 0,000 mm 0,0 UV-I 0 W/m -0,5 C -0,0 C 14,5 km/h (3 Bft) 100,00 %
28.02.2016 05:56 1,7 C 85 % 1007,8 hPa 0,0 l/m 10,5 km/h (2 Bft) O-NO 78 0 min 0,000 mm 0,0 UV-I 0 W/m -0,5 C -2,0 C 14,5 km/h (3 Bft) 96,15 %
28.02.2016 05:57 1,7 C 85 % 1007,7 hPa 0,0 l/m 9,7 km/h (2 Bft) O-NO 61 0 min 0,000 mm 0,0 UV-I 0 W/m -0,5 C -1,3 C 14,5 km/h (3 Bft) 100,00 %
28.02.2016 05:58 1,7 C 85 % 1007,7 hPa 0,0 l/m 11,5 km/h (2 Bft) O-NO 59 0 min 0,000 mm 0,0 UV-I 0 W/m -0,5 C -2,7 C 16,1 km/h (3 Bft) 91,30 %
28.02.2016 05:59 1,7 C 85 % 1007,7 hPa 0,0 l/m 9,1 km/h (2 Bft) NO 47 0 min 0,000 mm 0,0 UV-I 0 W/m -0,5 C -0,8 C 11,3 km/h (2 Bft) 100,00 %
28.02.2016 06:00 1,7 C 85 % 1007,7 hPa 0,0 l/m 10,9 km/h (2 Bft) NO 50 0 min 0,025 mm 0,0 UV-I 0 W/m -0,5 C -2,3 C 14,5 km/h (3 Bft) 96,55 %
28.02.2016 06:02 1,7 C 85 % 1007,6 hPa 0,0 l/m 10,4 km/h (2 Bft) NO 56 0 min 0,000 mm 0,0 UV-I 0 W/m -0,5 C -1,9 C 14,5 km/h (3 Bft) 97,56 %
28.02.2016 06:03 1,7 C 85 % 1007,6 hPa 0,0 l/m 11,9 km/h (2 Bft) NO 55 0 min 0,000 mm 0,0 UV-I 0 W/m -0,5 C -3,0 C 14,5 km/h (3 Bft) 96,67 %
28.02.2016 06:04 1,7 C 85 % 1007,5 hPa 0,0 l/m 6,0 km/h (2 Bft) O-NO 72 0 min 0,000 mm 0,0 UV-I 0 W/m -0,5 C 1,7 C 8,0 km/h (2 Bft) 95,65 %
28.02.2016 06:05 1,7 C 85 % 1007,5 hPa 0,0 l/m 8,9 km/h (2 Bft) NO 49 0 min 0,000 mm 0,0 UV-I 0 W/m -0,5 C -0,7 C 12,9 km/h (3 Bft) 95,83 %
28.02.2016 06:06 1,7 C 85 % 1007,5 hPa 0,0 l/m 8,9 km/h (2 Bft) NO 49 0 min 0,000 mm 0,0 UV-I 0 W/m -0,5 C -0,7 C 12,9 km/h (3 Bft) 100,00 %
28.02.2016 06:07 1,6 C 85 % 1007,6 hPa 0,0 l/m 8,2 km/h (2 Bft) NO 49 0 min 0,000 mm 0,0 UV-I 0 W/m -0,6 C -0,2 C 9,7 km/h (2 Bft) 95,83 %
28.02.2016 06:08 1,6 C 86 % 1007,6 hPa 0,0 l/m 6,8 km/h (2 Bft) NO 36 0 min 0,000 mm 0,0 UV-I 0 W/m -0,5 C 1,2 C 9,7 km/h (2 Bft) 96,15 %
28.02.2016 06:09 1,6 C 86 % 1007,7 hPa 0,0 l/m 3,5 km/h (1 Bft) NO 41 0 min 0,000 mm 0,0 UV-I 0 W/m -0,5 C 1,6 C 6,4 km/h (2 Bft) 100,00 %
28.02.2016 06:10 1,5 C 86 % 1007,8 hPa 0,0 l/m 2,3 km/h (1 Bft) NO 44 0 min 0,000 mm 0,0 UV-I 0 W/m -0,6 C 1,5 C 6,4 km/h (2 Bft) 96,15 %
28.02.2016 06:11 1,5 C 86 % 1007,9 hPa 0,0 l/m 2,0 km/h (1 Bft) NO 44 0 min 0,000 mm 0,0 UV-I 0 W/m -0,6 C 1,5 C 3,2 km/h (1 Bft) 100,00 %
28.02.2016 06:12 1,5 C 86 % 1007,9 hPa 0,0 l/m 1,7 km/h (1 Bft) NO 44 0 min 0,000 mm 0,0 UV-I 0 W/m -0,6 C 1,5 C 4,8 km/h (1 Bft) 91,30 %
28.02.2016 06:13 1,4 C 86 % 1007,9 hPa 0,0 l/m 5,5 km/h (1 Bft) NO 54 0 min 0,000 mm 0,0 UV-I 0 W/m -0,7 C 1,4 C 8,0 km/h (2 Bft) 100,00 %
28.02.2016 06:14 1,4 C 86 % 1007,9 hPa 0,0 l/m 6,3 km/h (2 Bft) NO 55 0 min 0,000 mm 0,0 UV-I 0 W/m -0,7 C 1,4 C 8,0 km/h (2 Bft) 95,65 %
28.02.2016 06:15 1,4 C 86 % 1007,9 hPa 0,0 l/m 5,1 km/h (1 Bft) O-NO 59 0 min 0,000 mm 0,0 UV-I 0 W/m -0,7 C 1,4 C 6,4 km/h (2 Bft) 100,00 %
28.02.2016 06:16 1,4 C 86 % 1007,8 hPa 0,0 l/m 6,4 km/h (2 Bft) NO 46 0 min 0,000 mm 0,0 UV-I 0 W/m -0,7 C 1,4 C 8,0 km/h (2 Bft) 96,15 %
28.02.2016 06:17 1,4 C 86 % 1007,8 hPa 0,0 l/m 6,6 km/h (2 Bft) NO 45 0 min 0,000 mm 0,0 UV-I 0 W/m -0,7 C 1,2 C 8,0 km/h (2 Bft) 95,83 %
28.02.2016 06:18 1,4 C 86 % 1007,8 hPa 0,0 l/m 7,8 km/h (2 Bft) NO 49 0 min 0,000 mm 0,0 UV-I 0 W/m -0,7 C 0,0 C 9,7 km/h (2 Bft) 100,00 %
28.02.2016 06:19 1,4 C 86 % 1007,8 hPa 0,0 l/m 8,4 km/h (2 Bft) NO 55 0 min 0,000 mm 0,0 UV-I 0 W/m -0,7 C -0,5 C 11,3 km/h (2 Bft) 91,30 %
28.02.2016 06:20 1,4 C 86 % 1007,8 hPa 0,0 l/m 6,8 km/h (2 Bft) NO 51 0 min 0,000 mm 0,0 UV-I 0 W/m -0,7 C 1,0 C 9,7 km/h (2 Bft) 100,00 %
28.02.2016 06:21 1,4 C 86 % 1007,8 hPa 0,0 l/m 8,9 km/h (2 Bft) O-NO 59 0 min 0,000 mm 0,0 UV-I 0 W/m -0,7 C -1,0 C 11,3 km/h (2 Bft) 96,30 %
28.02.2016 06:22 1,4 C 86 % 1007,8 hPa 0,0 l/m 8,7 km/h (2 Bft) O-NO 74 0 min 0,000 mm 0,0 UV-I 0 W/m -0,7 C -0,8 C 9,7 km/h (2 Bft) 100,00 %
28.02.2016 06:23 1,4 C 86 % 1007,8 hPa 0,0 l/m 9,5 km/h (2 Bft) O-NO 66 0 min 0,000 mm 0,0 UV-I 0 W/m -0,7 C -1,5 C 12,9 km/h (3 Bft) 100,00 %
28.02.2016 06:24 1,4 C 85 % 1007,8 hPa 0,0 l/m 9,5 km/h (2 Bft) NO 39 0 min 0,000 mm 0,0 UV-I 0 W/m -0,8 C -1,5 C 12,9 km/h (3 Bft) 96,30 %
28.02.2016 06:25 1,5 C 85 % 1007,8 hPa 0,0 l/m 7,2 km/h (2 Bft) O-NO 57 0 min 0,000 mm 0,0 UV-I 0 W/m -0,7 C 0,7 C 11,3 km/h (2 Bft) 92,86 %
28.02.2016 06:26 1,5 C 85 % 1007,7 hPa 0,0 l/m 7,6 km/h (2 Bft) NO 38 0 min 0,000 mm 0,0 UV-I 0 W/m -0,7 C 0,3 C 9,7 km/h (2 Bft) 100,00 %
28.02.2016 06:27 1,5 C 85 % 1007,8 hPa 0,0 l/m 7,9 km/h (2 Bft) O-NO 58 0 min 0,000 mm 0,0 UV-I 0 W/m -0,7 C 0,0 C 9,7 km/h (2 Bft) 100,00 %
28.02.2016 06:28 1,6 C 85 % 1007,8 hPa 0,0 l/m 9,3 km/h (2 Bft) O-NO 66 0 min 0,000 mm 0,0 UV-I 0 W/m -0,6 C -1,1 C 12,9 km/h (3 Bft) 100,00 %
28.02.2016 06:29 1,6 C 85 % 1007,8 hPa 0,0 l/m 7,2 km/h (2 Bft) O-NO 59 0 min 0,000 mm 0,0 UV-I 0 W/m -0,6 C 0,8 C 9,7 km/h (2 Bft) 100,00 %
28.02.2016 06:30 1,6 C 85 % 1007,8 hPa 0,0 l/m 8,3 km/h (2 Bft) O-NO 65 0 min 0,000 mm 0,0 UV-I 0 W/m -0,6 C -0,2 C 9,7 km/h (2 Bft) 100,00 %
28.02.2016 06:31 1,6 C 85 % 1007,7 hPa 0,0 l/m 8,1 km/h (2 Bft) O-NO 59 0 min 0,000 mm 0,0 UV-I 0 W/m -0,6 C -0,1 C 9,7 km/h (2 Bft) 96,55 %
28.02.2016 06:32 1,6 C 85 % 1007,7 hPa 0,0 l/m 8,0 km/h (2 Bft) NO 44 0 min 0,000 mm 0,0 UV-I 0 W/m -0,6 C 0,0 C 11,3 km/h (2 Bft) 100,00 %
28.02.2016 06:33 1,6 C 85 % 1007,8 hPa 0,0 l/m 9,3 km/h (2 Bft) O-NO 61 0 min 0,000 mm 0,0 UV-I 0 W/m -0,6 C -1,1 C 12,9 km/h (3 Bft) 100,00 %
28.02.2016 06:34 1,6 C 85 % 1007,8 hPa 0,0 l/m 7,2 km/h (2 Bft) NO 55 0 min 0,000 mm 0,0 UV-I 0 W/m -0,6 C 0,8 C 11,3 km/h (2 Bft) 92,31 %
28.02.2016 06:35 1,6 C 85 % 1007,8 hPa 0,0 l/m 7,9 km/h (2 Bft) O-NO 63 0 min 0,000 mm 0,0 UV-I 0 W/m -0,6 C 0,1 C 9,7 km/h (2 Bft) 100,00 %
28.02.2016 06:36 1,6 C 85 % 1007,8 hPa 0,0 l/m 7,9 km/h (2 Bft) O-NO 61 0 min 0,000 mm 0,0 UV-I 0 W/m -0,6 C 0,1 C 11,3 km/h (2 Bft) 100,00 %
28.02.2016 06:37 1,6 C 85 % 1007,9 hPa 0,0 l/m 7,3 km/h (2 Bft) NO 51 0 min 0,000 mm 0,0 UV-I 0 W/m -0,6 C 0,7 C 9,7 km/h (2 Bft) 100,00 %
28.02.2016 06:38 1,6 C 85 % 1007,9 hPa 0,0 l/m 7,3 km/h (2 Bft) O-NO 67 0 min 0,000 mm 0,0 UV-I 0 W/m -0,6 C 0,7 C 9,7 km/h (2 Bft) 100,00 %
28.02.2016 06:39 1,6 C 85 % 1007,9 hPa 0,0 l/m 6,1 km/h (2 Bft) O-NO 59 0 min 0,000 mm 0,0 UV-I 0 W/m -0,6 C 1,6 C 6,4 km/h (2 Bft) 100,00 %
28.02.2016 06:40 1,6 C 85 % 1007,9 hPa 0,0 l/m 7,5 km/h (2 Bft) O-NO 58 0 min 0,000 mm 0,0 UV-I 0 W/m -0,6 C 0,5 C 9,7 km/h (2 Bft) 100,00 %
28.02.2016 06:41 1,6 C 85 % 1007,9 hPa 0,0 l/m 5,8 km/h (2 Bft) NO 47 0 min 0,000 mm 0,0 UV-I 0 W/m -0,6 C 1,6 C 8,0 km/h (2 Bft) 100,00 %
28.02.2016 06:42 1,6 C 85 % 1007,9 hPa 0,0 l/m 5,6 km/h (1 Bft) O-NO 59 0 min 0,000 mm 0,0 UV-I 0 W/m -0,6 C 1,6 C 9,7 km/h (2 Bft) 100,00 %
28.02.2016 06:43 1,6 C 85 % 1007,9 hPa 0,0 l/m 6,2 km/h (2 Bft) O-NO 63 0 min 0,000 mm 0,0 UV-I 0 W/m -0,6 C 1,6 C 8,0 km/h (2 Bft) 100,00 %
28.02.2016 06:44 1,6 C 85 % 1007,9 hPa 0,0 l/m 5,5 km/h (1 Bft) O-NO 62 0 min 0,000 mm 0,0 UV-I 0 W/m -0,6 C 1,6 C 8,0 km/h (2 Bft) 100,00 %
28.02.2016 06:45 1,6 C 85 % 1007,9 hPa 0,0 l/m 6,0 km/h (2 Bft) O-NO 59 0 min 0,000 mm 0,0 UV-I 0 W/m -0,6 C 1,6 C 8,0 km/h (2 Bft) 100,00 %
28.02.2016 06:46 1,6 C 85 % 1007,9 hPa 0,0 l/m 7,2 km/h (2 Bft) NO 50 0 min 0,000 mm 0,0 UV-I 0 W/m -0,6 C 0,8 C 11,3 km/h (2 Bft) 100,00 %
28.02.2016 06:47 1,6 C 85 % 1007,9 hPa 0,0 l/m 8,7 km/h (2 Bft) NO 55 0 min 0,000 mm 0,0 UV-I 0 W/m -0,6 C -0,6 C 12,9 km/h (3 Bft) 100,00 %
28.02.2016 06:48 1,6 C 85 % 1007,8 hPa 0,0 l/m 9,0 km/h (2 Bft) NO 55 0 min 0,000 mm 0,0 UV-I 0 W/m -0,6 C -0,9 C 14,5 km/h (3 Bft) 100,00 %
28.02.2016 06:49 1,7 C 85 % 1007,8 hPa 0,0 l/m 7,4 km/h (2 Bft) NO 51 0 min 0,000 mm 0,0 UV-I 0 W/m -0,5 C 0,7 C 9,7 km/h (2 Bft) 100,00 %
28.02.2016 06:50 1,7 C 85 % 1007,8 hPa 0,0 l/m 8,7 km/h (2 Bft) O-NO 57 0 min 0,000 mm 0,0 UV-I 0 W/m -0,5 C -0,5 C 12,9 km/h (3 Bft) 100,00 %
28.02.2016 06:51 1,7 C 85 % 1007,8 hPa 0,0 l/m 11,0 km/h (2 Bft) NO 56 0 min 0,000 mm 0,0 UV-I 0 W/m -0,5 C -2,3 C 14,5 km/h (3 Bft) 100,00 %
28.02.2016 06:52 1,7 C 85 % 1007,8 hPa 0,0 l/m 11,3 km/h (2 Bft) O-NO 60 0 min 0,000 mm 0,0 UV-I 0 W/m -0,5 C -2,6 C 14,5 km/h (3 Bft) 100,00 %
28.02.2016 06:53 1,7 C 85 % 1007,8 hPa 0,0 l/m 6,8 km/h (2 Bft) N-NO 32 0 min 0,000 mm 0,0 UV-I 0 W/m -0,5 C 1,3 C 9,7 km/h (2 Bft) 100,00 %
28.02.2016 06:54 1,7 C 85 % 1007,8 hPa 0,0 l/m 7,2 km/h (2 Bft) NO 45 0 min 0,000 mm 0,0 UV-I 0 W/m -0,5 C 0,9 C 9,7 km/h (2 Bft) 100,00 %
28.02.2016 06:55 1,7 C 85 % 1007,8 hPa 0,0 l/m 7,4 km/h (2 Bft) NO 42 0 min 0,000 mm 0,0 UV-I 0 W/m -0,5 C 0,7 C 9,7 km/h (2 Bft) 100,00 %
28.02.2016 06:56 1,7 C 85 % 1007,8 hPa 0,0 l/m 5,9 km/h (2 Bft) NO 42 0 min 0,000 mm 0,0 UV-I 0 W/m -0,5 C 1,7 C 8,0 km/h (2 Bft) 100,00 %
28.02.2016 06:57 1,7 C 85 % 1007,8 hPa 0,0 l/m 6,4 km/h (2 Bft) O-NO 75 0 min 0,000 mm 0,0 UV-I 2 W/m -0,5 C 1,7 C 11,3 km/h (2 Bft) 96,88 %
28.02.2016 06:58 1,7 C 85 % 1007,9 hPa 0,0 l/m 8,2 km/h (2 Bft) O 80 0 min 0,000 mm 0,0 UV-I 5 W/m -0,5 C -0,0 C 11,3 km/h (2 Bft) 100,00 %
28.02.2016 06:59 1,7 C 86 % 1007,9 hPa 0,0 l/m 9,3 km/h (2 Bft) NO 39 0 min 0,000 mm 0,0 UV-I 5 W/m -0,4 C -1,0 C 14,5 km/h (3 Bft) 100,00 %
28.02.2016 07:00 1,7 C 86 % 1007,9 hPa 0,0 l/m 6,1 km/h (2 Bft) N-NO 32 0 min 0,000 mm 0,0 UV-I 5 W/m -0,4 C 1,7 C 8,0 km/h (2 Bft) 100,00 %
28.02.2016 07:02 1,7 C 86 % 1007,8 hPa 0,0 l/m 8,9 km/h (2 Bft) NO 43 0 min 0,000 mm 0,0 UV-I 5 W/m -0,4 C -0,7 C 14,5 km/h (3 Bft) 98,21 %
28.02.2016 07:03 1,7 C 86 % 1007,9 hPa 0,0 l/m 10,5 km/h (2 Bft) NO 37 0 min 0,000 mm 0,0 UV-I 6 W/m -0,4 C -2,0 C 17,7 km/h (3 Bft) 100,00 %
28.02.2016 07:04 1,7 C 86 % 1007,9 hPa 0,0 l/m 11,4 km/h (2 Bft) NO 39 0 min 0,000 mm 0,0 UV-I 7 W/m -0,4 C -2,6 C 20,9 km/h (4 Bft) 100,00 %
28.02.2016 07:05 1,7 C 86 % 1007,8 hPa 0,0 l/m 9,9 km/h (2 Bft) N-NO 33 0 min 0,000 mm 0,0 UV-I 7 W/m -0,4 C -1,5 C 14,5 km/h (3 Bft) 100,00 %
28.02.2016 07:06 1,7 C 86 % 1007,8 hPa 0,0 l/m 11,3 km/h (2 Bft) N-NO 32 0 min 0,000 mm 0,0 UV-I 7 W/m -0,4 C -2,6 C 14,5 km/h (3 Bft) 100,00 %
28.02.2016 07:07 1,8 C 86 % 1007,8 hPa 0,0 l/m 9,8 km/h (2 Bft) O-NO 65 0 min 0,000 mm 0,0 UV-I 8 W/m -0,3 C -1,3 C 14,5 km/h (3 Bft) 100,00 %
28.02.2016 07:08 1,8 C 86 % 1007,8 hPa 0,0 l/m 8,6 km/h (2 Bft) NO 51 0 min 0,000 mm 0,0 UV-I 9 W/m -0,3 C -0,3 C 11,3 km/h (2 Bft) 100,00 %
28.02.2016 07:09 1,8 C 86 % 1007,9 hPa 0,0 l/m 9,9 km/h (2 Bft) NO 38 0 min 0,000 mm 0,0 UV-I 9 W/m -0,3 C -1,4 C 14,5 km/h (3 Bft) 100,00 %
28.02.2016 07:10 1,8 C 86 % 1007,9 hPa 0,0 l/m 7,8 km/h (2 Bft) NO 49 0 min 0,000 mm 0,0 UV-I 9 W/m -0,3 C 0,4 C 11,3 km/h (2 Bft) 100,00 %
28.02.2016 07:11 1,8 C 86 % 1007,9 hPa 0,0 l/m 6,7 km/h (2 Bft) O-NO 59 0 min 0,000 mm 0,0 UV-I 9 W/m -0,3 C 1,5 C 9,7 km/h (2 Bft) 95,65 %
28.02.2016 07:12 1,8 C 86 % 1007,9 hPa 0,0 l/m 8,1 km/h (2 Bft) O-NO 65 0 min 0,000 mm 0,0 UV-I 11 W/m -0,3 C 0,2 C 9,7 km/h (2 Bft) 100,00 %
28.02.2016 07:13 1,8 C 86 % 1008,0 hPa 0,0 l/m 8,3 km/h (2 Bft) O-NO 60 0 min 0,000 mm 0,0 UV-I 11 W/m -0,3 C -0,0 C 11,3 km/h (2 Bft) 100,00 %
28.02.2016 07:14 1,8 C 86 % 1008,0 hPa 0,0 l/m 10,4 km/h (2 Bft) O-NO 68 0 min 0,000 mm 0,0 UV-I 11 W/m -0,3 C -1,8 C 14,5 km/h (3 Bft) 100,00 %
28.02.2016 07:15 1,8 C 86 % 1008,0 hPa 0,0 l/m 11,0 km/h (2 Bft) NO 44 0 min 0,000 mm 0,0 UV-I 11 W/m -0,3 C -2,2 C 16,1 km/h (3 Bft) 100,00 %
28.02.2016 07:16 1,8 C 86 % 1008,0 hPa 0,0 l/m 10,0 km/h (2 Bft) O-NO 63 0 min 0,000 mm 0,0 UV-I 12 W/m -0,3 C -1,5 C 14,5 km/h (3 Bft) 100,00 %
28.02.2016 07:17 1,8 C 86 % 1008,0 hPa 0,0 l/m 9,2 km/h (2 Bft) O-NO 63 0 min 0,000 mm 0,0 UV-I 12 W/m -0,3 C -0,8 C 14,5 km/h (3 Bft) 95,65 %
28.02.2016 07:18 1,8 C 86 % 1008,0 hPa 0,0 l/m 9,4 km/h (2 Bft) O-NO 58 0 min 0,000 mm 0,0 UV-I 12 W/m -0,3 C -1,0 C 12,9 km/h (3 Bft) 100,00 %
28.02.2016 07:19 1,8 C 86 % 1008,0 hPa 0,0 l/m 8,8 km/h (2 Bft) NO 51 0 min 0,000 mm 0,0 UV-I 14 W/m -0,3 C -0,5 C 12,9 km/h (3 Bft) 100,00 %
28.02.2016 07:22 1,8 C 86 % 1008,0 hPa 0,0 l/m 11,1 km/h (2 Bft) NO 53 0 min 0,000 mm 0,0 UV-I 16 W/m -0,3 C -2,3 C 14,5 km/h (3 Bft) 100,00 %
28.02.2016 07:23 1,8 C 86 % 1008,0 hPa 0,0 l/m 7,7 km/h (2 Bft) O-NO 62 0 min 0,000 mm 0,0 UV-I 18 W/m -0,3 C 0,5 C 9,7 km/h (2 Bft) 95,83 %
28.02.2016 07:24 1,8 C 86 % 1008,0 hPa 0,0 l/m 8,7 km/h (2 Bft) NO 55 0 min 0,000 mm 0,0 UV-I 18 W/m -0,3 C -0,4 C 11,3 km/h (2 Bft) 100,00 %
28.02.2016 07:25 1,8 C 86 % 1008,1 hPa 0,0 l/m 9,4 km/h (2 Bft) NO 52 0 min 0,000 mm 0,0 UV-I 18 W/m -0,3 C -1,0 C 12,9 km/h (3 Bft) 100,00 %
28.02.2016 07:26 1,8 C 86 % 1008,1 hPa 0,0 l/m 8,0 km/h (2 Bft) NO 46 0 min 0,000 mm 0,0 UV-I 19 W/m -0,3 C 0,2 C 9,7 km/h (2 Bft) 100,00 %
28.02.2016 07:27 1,8 C 86 % 1008,1 hPa 0,0 l/m 10,8 km/h (2 Bft) NO 45 0 min 0,000 mm 0,0 UV-I 19 W/m -0,3 C -2,1 C 14,5 km/h (3 Bft) 100,00 %
28.02.2016 07:28 1,8 C 86 % 1008,0 hPa 0,0 l/m 9,1 km/h (2 Bft) O-NO 69 0 min 0,000 mm 0,0 UV-I 20 W/m -0,3 C -0,7 C 12,9 km/h (3 Bft) 94,12 %
28.02.2016 07:29 1,8 C 86 % 1008,1 hPa 0,0 l/m 13,4 km/h (3 Bft) O-NO 59 0 min 0,000 mm 0,0 UV-I 21 W/m -0,3 C -3,8 C 17,7 km/h (3 Bft) 100,00 %
28.02.2016 07:30 1,8 C 86 % 1008,0 hPa 0,0 l/m 10,9 km/h (2 Bft) NO 48 0 min 0,000 mm 0,0 UV-I 21 W/m -0,3 C -2,1 C 16,1 km/h (3 Bft) 100,00 %
28.02.2016 07:31 1,9 C 86 % 1008,0 hPa 0,0 l/m 13,2 km/h (3 Bft) NO 45 0 min 0,000 mm 0,0 UV-I 23 W/m -0,2 C -3,6 C 16,1 km/h (3 Bft) 100,00 %
28.02.2016 07:32 1,9 C 86 % 1008,1 hPa 0,0 l/m 11,9 km/h (2 Bft) NO 44 0 min 0,000 mm 0,0 UV-I 23 W/m -0,2 C -2,7 C 16,1 km/h (3 Bft) 100,00 %
28.02.2016 07:33 1,8 C 86 % 1008,1 hPa 0,0 l/m 10,4 km/h (2 Bft) O-NO 70 0 min 0,000 mm 0,0 UV-I 24 W/m -0,3 C -1,8 C 14,5 km/h (3 Bft) 95,65 %
28.02.2016 07:34 1,8 C 86 % 1008,1 hPa 0,0 l/m 12,3 km/h (3 Bft) NO 42 0 min 0,000 mm 0,0 UV-I 25 W/m -0,3 C -3,1 C 17,7 km/h (3 Bft) 100,00 %
28.02.2016 07:35 1,9 C 86 % 1008,1 hPa 0,0 l/m 10,7 km/h (2 Bft) NO 38 0 min 0,000 mm 0,0 UV-I 26 W/m -0,2 C -1,9 C 17,7 km/h (3 Bft) 100,00 %
28.02.2016 07:36 1,8 C 86 % 1008,0 hPa 0,0 l/m 8,4 km/h (2 Bft) NO 38 0 min 0,000 mm 0,0 UV-I 26 W/m -0,3 C -0,1 C 14,5 km/h (3 Bft) 100,00 %
28.02.2016 07:37 1,8 C 86 % 1008,0 hPa 0,0 l/m 9,0 km/h (2 Bft) NO 36 0 min 0,000 mm 0,0 UV-I 27 W/m -0,3 C -0,6 C 14,5 km/h (3 Bft) 100,00 %
28.02.2016 07:38 1,8 C 86 % 1008,0 hPa 0,0 l/m 10,1 km/h (2 Bft) NO 36 0 min 0,000 mm 0,0 UV-I 28 W/m -0,3 C -1,5 C 14,5 km/h (3 Bft) 100,00 %
28.02.2016 07:39 1,8 C 87 % 1008,1 hPa 0,0 l/m 9,7 km/h (2 Bft) NO 39 0 min 0,000 mm 0,0 UV-I 28 W/m -0,1 C -1,2 C 16,1 km/h (3 Bft) 100,00 %
28.02.2016 07:40 1,8 C 87 % 1008,2 hPa 0,0 l/m 8,4 km/h (2 Bft) O-NO 60 0 min 0,000 mm 0,0 UV-I 29 W/m -0,1 C -0,1 C 11,3 km/h (2 Bft) 100,00 %
28.02.2016 07:41 1,8 C 87 % 1008,2 hPa 0,0 l/m 9,2 km/h (2 Bft) O-NO 58 0 min 0,000 mm 0,0 UV-I 30 W/m -0,1 C -0,8 C 14,5 km/h (3 Bft) 100,00 %
28.02.2016 07:42 1,9 C 87 % 1008,3 hPa 0,0 l/m 9,5 km/h (2 Bft) NO 54 0 min 0,000 mm 0,0 UV-I 30 W/m -0,0 C -1,0 C 12,9 km/h (3 Bft) 100,00 %
28.02.2016 07:43 1,8 C 87 % 1008,2 hPa 0,0 l/m 7,9 km/h (2 Bft) NO 36 0 min 0,000 mm 0,0 UV-I 31 W/m -0,1 C 0,3 C 11,3 km/h (2 Bft) 100,00 %
28.02.2016 07:44 1,9 C 87 % 1008,2 hPa 0,0 l/m 10,3 km/h (2 Bft) O-NO 57 0 min 0,000 mm 0,0 UV-I 32 W/m -0,0 C -1,6 C 14,5 km/h (3 Bft) 100,00 %
28.02.2016 07:45 1,9 C 87 % 1008,2 hPa 0,0 l/m 10,4 km/h (2 Bft) O-NO 63 0 min 0,000 mm 0,0 UV-I 32 W/m -0,0 C -1,7 C 16,1 km/h (3 Bft) 95,65 %
28.02.2016 07:46 1,9 C 87 % 1008,2 hPa 0,0 l/m 7,9 km/h (2 Bft) O-NO 74 0 min 0,000 mm 0,0 UV-I 33 W/m -0,0 C 0,4 C 12,9 km/h (3 Bft) 96,30 %
28.02.2016 07:47 1,9 C 87 % 1008,2 hPa 0,0 l/m 8,5 km/h (2 Bft) NO 49 0 min 0,000 mm 0,0 UV-I 33 W/m -0,0 C -0,1 C 12,9 km/h (3 Bft) 100,00 %
28.02.2016 07:48 1,9 C 87 % 1008,2 hPa 0,0 l/m 9,7 km/h (2 Bft) NO 55 0 min 0,000 mm 0,0 UV-I 33 W/m -0,0 C -1,1 C 12,9 km/h (3 Bft) 100,00 %
28.02.2016 07:49 1,9 C 87 % 1008,2 hPa 0,0 l/m 7,2 km/h (2 Bft) NO 40 0 min 0,000 mm 0,0 UV-I 34 W/m -0,0 C 1,1 C 11,3 km/h (2 Bft) 100,00 %
28.02.2016 07:50 1,9 C 87 % 1008,2 hPa 0,0 l/m 7,6 km/h (2 Bft) O-NO 57 0 min 0,000 mm 0,0 UV-I 35 W/m -0,0 C 0,7 C 11,3 km/h (2 Bft) 100,00 %
28.02.2016 07:51 1,9 C 87 % 1008,2 hPa 0,0 l/m 12,7 km/h (3 Bft) O-NO 65 0 min 0,000 mm 0,0 UV-I 36 W/m -0,0 C -3,3 C 16,1 km/h (3 Bft) 95,65 %
28.02.2016 07:52 1,9 C 87 % 1008,2 hPa 0,0 l/m 11,7 km/h (2 Bft) N-NO 30 0 min 0,000 mm 0,0 UV-I 37 W/m -0,0 C -2,6 C 14,5 km/h (3 Bft) 95,83 %
28.02.2016 07:53 1,9 C 87 % 1008,2 hPa 0,0 l/m 8,4 km/h (2 Bft) NO 51 0 min 0,000 mm 0,0 UV-I 39 W/m -0,0 C -0,0 C 11,3 km/h (2 Bft) 96,15 %
28.02.2016 07:54 1,9 C 87 % 1008,2 hPa 0,0 l/m 9,0 km/h (2 Bft) NO 43 0 min 0,000 mm 0,0 UV-I 39 W/m -0,0 C -0,5 C 12,9 km/h (3 Bft) 93,33 %
28.02.2016 07:55 1,9 C 87 % 1008,2 hPa 0,0 l/m 7,6 km/h (2 Bft) O-NO 61 0 min 0,000 mm 0,0 UV-I 40 W/m -0,0 C 0,7 C 9,7 km/h (2 Bft) 100,00 %
28.02.2016 07:56 1,9 C 87 % 1008,2 hPa 0,0 l/m 12,1 km/h (2 Bft) NO 44 0 min 0,000 mm 0,0 UV-I 41 W/m -0,0 C -2,9 C 16,1 km/h (3 Bft) 86,67 %
28.02.2016 07:57 1,9 C 87 % 1008,2 hPa 0,0 l/m 13,3 km/h (3 Bft) NO 52 0 min 0,000 mm 0,0 UV-I 43 W/m -0,0 C -3,7 C 17,7 km/h (3 Bft) 100,00 %
28.02.2016 07:58 2,0 C 87 % 1008,2 hPa 0,0 l/m 13,4 km/h (3 Bft) O-NO 69 0 min 0,000 mm 0,0 UV-I 44 W/m 0,1 C -3,6 C 19,3 km/h (3 Bft) 95,65 %
28.02.2016 07:59 2,0 C 87 % 1008,3 hPa 0,0 l/m 9,3 km/h (2 Bft) NO 46 0 min 0,000 mm 0,0 UV-I 46 W/m 0,1 C -0,7 C 16,1 km/h (3 Bft) 100,00 %
28.02.2016 08:00 2,1 C 87 % 1008,3 hPa 0,0 l/m 9,9 km/h (2 Bft) NO 51 0 min 0,026 mm 0,0 UV-I 46 W/m 0,2 C -1,1 C 12,9 km/h (3 Bft) 90,91 %
28.02.2016 08:01 2,1 C 87 % 1008,3 hPa 0,0 l/m 8,4 km/h (2 Bft) NO 48 0 min 0,000 mm 0,0 UV-I 47 W/m 0,2 C 0,2 C 11,3 km/h (2 Bft) 100,00 %
28.02.2016 08:02 2,1 C 87 % 1008,3 hPa 0,0 l/m 12,1 km/h (2 Bft) NO 48 0 min 0,000 mm 0,0 UV-I 47 W/m 0,2 C -2,7 C 17,7 km/h (3 Bft) 95,65 %
28.02.2016 08:03 2,1 C 87 % 1008,3 hPa 0,0 l/m 12,5 km/h (3 Bft) O-NO 57 0 min 0,000 mm 0,0 UV-I 48 W/m 0,2 C -2,9 C 16,1 km/h (3 Bft) 95,83 %
28.02.2016 08:04 2,1 C 87 % 1008,4 hPa 0,0 l/m 9,5 km/h (2 Bft) NO 51 0 min 0,000 mm 0,0 UV-I 49 W/m 0,2 C -0,7 C 14,5 km/h (3 Bft) 100,00 %
28.02.2016 08:05 2,2 C 87 % 1008,4 hPa 0,0 l/m 7,3 km/h (2 Bft) O-NO 57 0 min 0,000 mm 0,0 UV-I 49 W/m 0,3 C 1,3 C 9,7 km/h (2 Bft) 95,83 %
28.02.2016 08:06 2,2 C 87 % 1008,5 hPa 0,0 l/m 7,2 km/h (2 Bft) O-NO 58 0 min 0,000 mm 0,0 UV-I 49 W/m 0,3 C 1,4 C 11,3 km/h (2 Bft) 100,00 %
28.02.2016 08:07 2,2 C 87 % 1008,5 hPa 0,0 l/m 8,6 km/h (2 Bft) O-NO 57 0 min 0,000 mm 0,0 UV-I 51 W/m 0,3 C 0,1 C 12,9 km/h (3 Bft) 95,83 %
28.02.2016 08:08 2,2 C 87 % 1008,5 hPa 0,0 l/m 11,6 km/h (2 Bft) NO 50 0 min 0,000 mm 0,0 UV-I 52 W/m 0,3 C -2,2 C 14,5 km/h (3 Bft) 100,00 %
28.02.2016 08:09 2,2 C 87 % 1008,5 hPa 0,0 l/m 8,0 km/h (2 Bft) NO 56 0 min 0,000 mm 0,0 UV-I 53 W/m 0,3 C 0,7 C 9,7 km/h (2 Bft) 93,33 %
28.02.2016 08:10 2,3 C 87 % 1008,5 hPa 0,0 l/m 8,6 km/h (2 Bft) NO 51 0 min 0,000 mm 0,0 UV-I 54 W/m 0,4 C 0,2 C 12,9 km/h (3 Bft) 91,30 %
28.02.2016 08:11 2,3 C 87 % 1008,5 hPa 0,0 l/m 9,1 km/h (2 Bft) NO 53 0 min 0,000 mm 0,0 UV-I 54 W/m 0,4 C -0,2 C 12,9 km/h (3 Bft) 96,30 %
28.02.2016 08:12 2,3 C 87 % 1008,5 hPa 0,0 l/m 9,7 km/h (2 Bft) NO 55 0 min 0,000 mm 0,0 UV-I 55 W/m 0,4 C -0,7 C 12,9 km/h (3 Bft) 98,72 %
28.02.2016 08:13 2,3 C 87 % 1008,5 hPa 0,0 l/m 9,0 km/h (2 Bft) NO 55 0 min 0,000 mm 0,0 UV-I 56 W/m 0,4 C -0,1 C 11,3 km/h (2 Bft) 97,56 %
28.02.2016 08:14 2,3 C 87 % 1008,5 hPa 0,0 l/m 10,1 km/h (2 Bft) O-NO 70 0 min 0,000 mm 0,0 UV-I 57 W/m 0,4 C -1,0 C 14,5 km/h (3 Bft) 88,46 %
28.02.2016 08:15 2,3 C 87 % 1008,5 hPa 0,0 l/m 10,7 km/h (2 Bft) NO 53 0 min 0,000 mm 0,0 UV-I 58 W/m 0,4 C -1,4 C 16,1 km/h (3 Bft) 100,00 %
28.02.2016 08:16 2,3 C 87 % 1008,5 hPa 0,0 l/m 10,5 km/h (2 Bft) O-NO 61 0 min 0,000 mm 0,0 UV-I 58 W/m 0,4 C -1,3 C 16,1 km/h (3 Bft) 93,33 %
28.02.2016 08:17 2,3 C 87 % 1008,5 hPa 0,0 l/m 9,9 km/h (2 Bft) NO 39 0 min 0,000 mm 0,0 UV-I 60 W/m 0,4 C -0,8 C 16,1 km/h (3 Bft) 100,00 %
28.02.2016 08:18 2,3 C 87 % 1008,5 hPa 0,0 l/m 12,6 km/h (3 Bft) NO 54 0 min 0,000 mm 0,0 UV-I 60 W/m 0,4 C -2,7 C 16,1 km/h (3 Bft) 95,83 %
28.02.2016 08:19 2,3 C 87 % 1008,5 hPa 0,0 l/m 13,4 km/h (3 Bft) O-NO 57 0 min 0,000 mm 0,0 UV-I 60 W/m 0,4 C -3,3 C 17,7 km/h (3 Bft) 96,15 %
28.02.2016 08:20 2,3 C 87 % 1008,5 hPa 0,0 l/m 9,9 km/h (2 Bft) NO 50 0 min 0,000 mm 0,0 UV-I 61 W/m 0,4 C -0,8 C 14,5 km/h (3 Bft) 100,00 %
28.02.2016 08:21 2,3 C 87 % 1008,5 hPa 0,0 l/m 8,5 km/h (2 Bft) NO 54 0 min 0,000 mm 0,0 UV-I 62 W/m 0,4 C 0,3 C 11,3 km/h (2 Bft) 96,67 %
28.02.2016 08:22 2,3 C 87 % 1008,5 hPa 0,0 l/m 7,9 km/h (2 Bft) O-NO 69 0 min 0,000 mm 0,0 UV-I 63 W/m 0,4 C 0,9 C 14,5 km/h (3 Bft) 100,00 %
28.02.2016 08:23 2,3 C 87 % 1008,5 hPa 0,0 l/m 9,0 km/h (2 Bft) NO 40 0 min 0,000 mm 0,0 UV-I 63 W/m 0,4 C -0,1 C 12,9 km/h (3 Bft) 95,65 %
28.02.2016 08:24 2,3 C 87 % 1008,5 hPa 0,0 l/m 8,8 km/h (2 Bft) NO 46 0 min 0,000 mm 0,0 UV-I 66 W/m 0,4 C 0,1 C 11,3 km/h (2 Bft) 100,00 %
28.02.2016 08:25 2,4 C 87 % 1008,4 hPa 0,0 l/m 7,9 km/h (2 Bft) NO 48 0 min 0,000 mm 0,0 UV-I 67 W/m 0,5 C 1,0 C 12,9 km/h (3 Bft) 100,00 %
28.02.2016 08:26 2,4 C 87 % 1008,4 hPa 0,0 l/m 11,3 km/h (2 Bft) NO 55 0 min 0,000 mm 0,0 UV-I 68 W/m 0,5 C -1,8 C 16,1 km/h (3 Bft) 93,33 %
28.02.2016 08:27 2,4 C 87 % 1008,4 hPa 0,0 l/m 10,5 km/h (2 Bft) N-NO 29 0 min 0,000 mm 0,0 UV-I 70 W/m 0,5 C -1,2 C 16,1 km/h (3 Bft) 100,00 %
28.02.2016 08:28 2,4 C 87 % 1008,4 hPa 0,0 l/m 13,5 km/h (3 Bft) NO 34 0 min 0,000 mm 0,0 UV-I 72 W/m 0,5 C -3,2 C 19,3 km/h (3 Bft) 96,30 %
28.02.2016 08:29 2,4 C 87 % 1008,3 hPa 0,0 l/m 13,1 km/h (3 Bft) O-NO 65 0 min 0,000 mm 0,0 UV-I 74 W/m 0,5 C -3,0 C 17,7 km/h (3 Bft) 100,00 %
28.02.2016 08:30 2,4 C 88 % 1008,3 hPa 0,0 l/m 12,9 km/h (3 Bft) NO 49 0 min 0,000 mm 0,0 UV-I 76 W/m 0,6 C -2,8 C 19,3 km/h (3 Bft) 93,10 %
28.02.2016 08:31 2,5 C 87 % 1008,3 hPa 0,0 l/m 10,6 km/h (2 Bft) O-NO 63 0 min 0,000 mm 0,0 UV-I 77 W/m 0,6 C -1,1 C 16,1 km/h (3 Bft) 100,00 %
28.02.2016 08:32 2,5 C 87 % 1008,3 hPa 0,0 l/m 9,3 km/h (2 Bft) NO 36 0 min 0,000 mm 0,0 UV-I 78 W/m 0,6 C -0,1 C 16,1 km/h (3 Bft) 100,00 %
28.02.2016 08:33 2,6 C 87 % 1008,4 hPa 0,0 l/m 9,7 km/h (2 Bft) O-NO 59 0 min 0,000 mm 0,0 UV-I 79 W/m 0,7 C -0,3 C 12,9 km/h (3 Bft) 100,00 %
28.02.2016 08:34 2,6 C 87 % 1008,4 hPa 0,0 l/m 15,9 km/h (3 Bft) O-NO 60 0 min 0,000 mm 0,0 UV-I 79 W/m 0,7 C -4,3 C 20,9 km/h (4 Bft) 96,15 %
28.02.2016 08:35 2,6 C 87 % 1008,4 hPa 0,0 l/m 12,2 km/h (2 Bft) NO 56 0 min 0,000 mm 0,0 UV-I 81 W/m 0,7 C -2,1 C 16,1 km/h (3 Bft) 100,00 %
28.02.2016 08:36 2,6 C 87 % 1008,4 hPa 0,0 l/m 15,6 km/h (3 Bft) NO 52 0 min 0,000 mm 0,0 UV-I 81 W/m 0,7 C -4,2 C 19,3 km/h (3 Bft) 100,00 %
28.02.2016 08:37 2,7 C 87 % 1008,4 hPa 0,0 l/m 8,9 km/h (2 Bft) NO 53 0 min 0,000 mm 0,0 UV-I 83 W/m 0,8 C 0,4 C 14,5 km/h (3 Bft) 100,00 %
28.02.2016 08:38 2,7 C 87 % 1008,4 hPa 0,0 l/m 9,0 km/h (2 Bft) O-NO 60 0 min 0,000 mm 0,0 UV-I 83 W/m 0,8 C 0,3 C 12,9 km/h (3 Bft) 97,73 %
28.02.2016 08:39 2,7 C 87 % 1008,4 hPa 0,0 l/m 11,7 km/h (2 Bft) NO 53 0 min 0,000 mm 0,0 UV-I 84 W/m 0,8 C -1,7 C 16,1 km/h (3 Bft) 91,67 %
28.02.2016 08:40 2,7 C 87 % 1008,5 hPa 0,0 l/m 12,7 km/h (3 Bft) NO 50 0 min 0,000 mm 0,0 UV-I 84 W/m 0,8 C -2,3 C 16,1 km/h (3 Bft) 100,00 %
28.02.2016 08:41 2,7 C 87 % 1008,5 hPa 0,0 l/m 9,1 km/h (2 Bft) O-NO 65 0 min 0,000 mm 0,0 UV-I 87 W/m 0,8 C 0,2 C 11,3 km/h (2 Bft) 100,00 %
28.02.2016 08:42 2,7 C 87 % 1008,5 hPa 0,0 l/m 10,6 km/h (2 Bft) NO 40 0 min 0,000 mm 0,0 UV-I 88 W/m 0,8 C -0,9 C 20,9 km/h (4 Bft) 100,00 %
28.02.2016 08:43 2,7 C 87 % 1008,5 hPa 0,0 l/m 16,2 km/h (3 Bft) NO 36 0 min 0,000 mm 0,0 UV-I 89 W/m 0,8 C -4,4 C 20,9 km/h (4 Bft) 98,62 %
28.02.2016 08:44 2,8 C 87 % 1008,4 hPa 0,0 l/m 11,4 km/h (2 Bft) NO 45 0 min 0,000 mm 0,0 UV-I 91 W/m 0,9 C -1,4 C 17,7 km/h (3 Bft) 100,00 %
28.02.2016 08:45 2,8 C 86 % 1008,5 hPa 0,0 l/m 13,6 km/h (3 Bft) NO 46 0 min 0,000 mm 0,0 UV-I 91 W/m 0,7 C -2,8 C 16,1 km/h (3 Bft) 100,00 %
28.02.2016 08:46 2,8 C 86 % 1008,5 hPa 0,0 l/m 16,3 km/h (3 Bft) O 85 0 min 0,000 mm 0,0 UV-I 93 W/m 0,7 C -4,3 C 19,3 km/h (3 Bft) 92,86 %
28.02.2016 08:47 2,8 C 86 % 1008,5 hPa 0,0 l/m 17,0 km/h (3 Bft) O-NO 61 0 min 0,000 mm 0,0 UV-I 95 W/m 0,7 C -4,6 C 20,9 km/h (4 Bft) 100,00 %
28.02.2016 08:48 2,8 C 86 % 1008,5 hPa 0,0 l/m 17,6 km/h (3 Bft) NO 53 0 min 0,000 mm 0,0 UV-I 97 W/m 0,7 C -4,9 C 20,9 km/h (4 Bft) 100,00 %
28.02.2016 08:49 2,8 C 86 % 1008,4 hPa 0,0 l/m 16,6 km/h (3 Bft) O-NO 66 0 min 0,000 mm 0,0 UV-I 98 W/m 0,7 C -4,4 C 20,9 km/h (4 Bft) 100,00 %
28.02.2016 08:50 2,8 C 86 % 1008,4 hPa 0,0 l/m 15,4 km/h (3 Bft) N 5 0 min 0,000 mm 0,0 UV-I 99 W/m 0,7 C -3,8 C 19,3 km/h (3 Bft) 100,00 %
28.02.2016 08:51 2,8 C 86 % 1008,4 hPa 0,0 l/m 14,3 km/h (3 Bft) O-NO 62 0 min 0,000 mm 0,0 UV-I 102 W/m 0,7 C -3,2 C 17,7 km/h (3 Bft) 100,00 %
28.02.2016 08:52 2,8 C 86 % 1008,4 hPa 0,0 l/m 12,8 km/h (3 Bft) NO 51 0 min 0,000 mm 0,0 UV-I 102 W/m 0,7 C -2,3 C 17,7 km/h (3 Bft) 100,00 %
28.02.2016 08:53 2,8 C 86 % 1008,4 hPa 0,0 l/m 15,2 km/h (3 Bft) O-NO 63 0 min 0,000 mm 0,0 UV-I 104 W/m 0,7 C -3,7 C 19,3 km/h (3 Bft) 100,00 %
28.02.2016 08:54 2,8 C 86 % 1008,4 hPa 0,0 l/m 13,9 km/h (3 Bft) O-NO 77 0 min 0,000 mm 0,0 UV-I 105 W/m 0,7 C -3,0 C 17,7 km/h (3 Bft) 100,00 %
28.02.2016 08:55 2,8 C 86 % 1008,4 hPa 0,0 l/m 15,3 km/h (3 Bft) NO 55 0 min 0,000 mm 0,0 UV-I 106 W/m 0,7 C -3,8 C 20,9 km/h (4 Bft) 96,15 %
28.02.2016 08:56 2,8 C 86 % 1008,5 hPa 0,0 l/m 15,6 km/h (3 Bft) O-NO 67 0 min 0,000 mm 0,0 UV-I 109 W/m 0,7 C -3,9 C 19,3 km/h (3 Bft) 100,00 %
28.02.2016 08:57 2,8 C 86 % 1008,5 hPa 0,0 l/m 17,1 km/h (3 Bft) O-NO 57 0 min 0,000 mm 0,0 UV-I 109 W/m 0,7 C -4,7 C 20,9 km/h (4 Bft) 100,00 %
28.02.2016 08:58 2,9 C 86 % 1008,5 hPa 0,0 l/m 15,1 km/h (3 Bft) NO 53 0 min 0,000 mm 0,0 UV-I 111 W/m 0,8 C -3,5 C 19,3 km/h (3 Bft) 100,00 %
28.02.2016 08:59 2,9 C 86 % 1008,6 hPa 0,0 l/m 15,6 km/h (3 Bft) O-NO 57 0 min 0,000 mm 0,0 UV-I 111 W/m 0,8 C -3,8 C 19,3 km/h (3 Bft) 100,00 %
28.02.2016 09:00 2,9 C 86 % 1008,6 hPa 0,0 l/m 14,1 km/h (3 Bft) O-NO 59 0 min 0,000 mm 0,0 UV-I 112 W/m 0,8 C -3,0 C 17,7 km/h (3 Bft) 100,00 %
28.02.2016 09:02 2,9 C 86 % 1008,6 hPa 0,0 l/m 17,1 km/h (3 Bft) O-NO 62 0 min 0,051 mm 0,0 UV-I 113 W/m 0,8 C -4,6 C 22,5 km/h (4 Bft) 98,00 %
28.02.2016 09:03 2,9 C 86 % 1008,6 hPa 0,0 l/m 14,1 km/h (3 Bft) O-NO 61 0 min 0,000 mm 0,0 UV-I 113 W/m 0,8 C -3,0 C 19,3 km/h (3 Bft) 100,00 %
28.02.2016 09:04 2,9 C 86 % 1008,6 hPa 0,0 l/m 11,4 km/h (2 Bft) O-NO 58 0 min 0,000 mm 0,0 UV-I 111 W/m 0,8 C -1,3 C 16,1 km/h (3 Bft) 100,00 %
28.02.2016 09:05 2,9 C 86 % 1008,6 hPa 0,0 l/m 13,6 km/h (3 Bft) NO 55 0 min 0,000 mm 0,0 UV-I 111 W/m 0,8 C -2,7 C 17,7 km/h (3 Bft) 100,00 %
28.02.2016 09:06 2,9 C 86 % 1008,6 hPa 0,0 l/m 13,7 km/h (3 Bft) NO 55 0 min 0,000 mm 0,0 UV-I 108 W/m 0,8 C -2,7 C 16,1 km/h (3 Bft) 100,00 %
28.02.2016 09:07 2,9 C 86 % 1008,6 hPa 0,0 l/m 8,9 km/h (2 Bft) NO 38 0 min 0,000 mm 0,0 UV-I 106 W/m 0,8 C 0,6 C 12,9 km/h (3 Bft) 93,33 %
28.02.2016 09:08 2,9 C 86 % 1008,7 hPa 0,0 l/m 7,5 km/h (2 Bft) O-NO 67 0 min 0,000 mm 0,0 UV-I 103 W/m 0,8 C 1,9 C 11,3 km/h (2 Bft) 97,56 %
28.02.2016 09:09 2,9 C 86 % 1008,7 hPa 0,0 l/m 8,3 km/h (2 Bft) NO 42 0 min 0,000 mm 0,0 UV-I 100 W/m 0,8 C 1,1 C 9,7 km/h (2 Bft) 100,00 %
28.02.2016 09:10 2,9 C 86 % 1008,7 hPa 0,0 l/m 10,0 km/h (2 Bft) O-NO 57 0 min 0,000 mm 0,0 UV-I 98 W/m 0,8 C -0,2 C 16,1 km/h (3 Bft) 100,00 %
28.02.2016 09:11 2,9 C 86 % 1008,6 hPa 0,0 l/m 10,6 km/h (2 Bft) NO 44 0 min 0,000 mm 0,0 UV-I 97 W/m 0,8 C -0,7 C 16,1 km/h (3 Bft) 100,00 %
28.02.2016 09:12 2,9 C 86 % 1008,6 hPa 0,0 l/m 12,2 km/h (2 Bft) NO 43 0 min 0,000 mm 0,0 UV-I 96 W/m 0,8 C -1,8 C 16,1 km/h (3 Bft) 96,30 %
28.02.2016 09:13 2,9 C 85 % 1008,6 hPa 0,0 l/m 14,6 km/h (3 Bft) N-NO 27 0 min 0,000 mm 0,0 UV-I 96 W/m 0,6 C -3,2 C 19,3 km/h (3 Bft) 100,00 %
28.02.2016 09:14 2,9 C 85 % 1008,5 hPa 0,0 l/m 12,2 km/h (2 Bft) NO 42 0 min 0,000 mm 0,0 UV-I 97 W/m 0,6 C -1,8 C 16,1 km/h (3 Bft) 98,68 %
28.02.2016 09:15 2,9 C 85 % 1008,6 hPa 0,0 l/m 10,5 km/h (2 Bft) NO 34 0 min 0,000 mm 0,0 UV-I 98 W/m 0,6 C -0,6 C 16,1 km/h (3 Bft) 100,00 %
28.02.2016 09:16 2,9 C 85 % 1008,6 hPa 0,0 l/m 10,4 km/h (2 Bft) O-NO 63 0 min 0,000 mm 0,0 UV-I 100 W/m 0,6 C -0,5 C 14,5 km/h (3 Bft) 95,65 %
28.02.2016 09:17 2,9 C 85 % 1008,6 hPa 0,0 l/m 11,8 km/h (2 Bft) O-NO 60 0 min 0,000 mm 0,0 UV-I 103 W/m 0,6 C -1,5 C 16,1 km/h (3 Bft) 100,00 %
28.02.2016 09:18 2,9 C 85 % 1008,6 hPa 0,0 l/m 13,1 km/h (3 Bft) O-NO 66 0 min 0,000 mm 0,0 UV-I 106 W/m 0,6 C -2,4 C 16,1 km/h (3 Bft) 100,00 %
28.02.2016 09:19 3,0 C 85 % 1008,6 hPa 0,0 l/m 14,1 km/h (3 Bft) O-NO 57 0 min 0,000 mm 0,0 UV-I 109 W/m 0,7 C -2,8 C 17,7 km/h (3 Bft) 100,00 %
28.02.2016 09:20 2,9 C 84 % 1008,5 hPa 0,0 l/m 13,7 km/h (3 Bft) NO 34 0 min 0,000 mm 0,0 UV-I 112 W/m 0,5 C -2,7 C 16,1 km/h (3 Bft) 100,00 %
28.02.2016 09:21 3,0 C 84 % 1008,5 hPa 0,0 l/m 13,0 km/h (3 Bft) NO 39 0 min 0,000 mm 0,0 UV-I 116 W/m 0,6 C -2,2 C 17,7 km/h (3 Bft) 100,00 %
28.02.2016 09:22 3,0 C 84 % 1008,4 hPa 0,0 l/m 14,1 km/h (3 Bft) NO 54 0 min 0,000 mm 0,0 UV-I 118 W/m 0,6 C -2,8 C 17,7 km/h (3 Bft) 100,00 %
28.02.2016 09:23 3,0 C 84 % 1008,4 hPa 0,0 l/m 13,5 km/h (3 Bft) O-NO 63 0 min 0,000 mm 0,0 UV-I 122 W/m 0,6 C -2,5 C 17,7 km/h (3 Bft) 100,00 %
28.02.2016 09:24 3,0 C 84 % 1008,4 hPa 0,0 l/m 12,2 km/h (2 Bft) O-NO 57 0 min 0,000 mm 0,0 UV-I 124 W/m 0,6 C -1,7 C 19,3 km/h (3 Bft) 100,00 %
28.02.2016 09:25 3,0 C 84 % 1008,4 hPa 0,0 l/m 12,9 km/h (3 Bft) O-NO 60 0 min 0,000 mm 0,0 UV-I 126 W/m 0,6 C -2,1 C 17,7 km/h (3 Bft) 100,00 %
28.02.2016 09:26 3,0 C 84 % 1008,4 hPa 0,0 l/m 15,8 km/h (3 Bft) NO 55 0 min 0,000 mm 0,0 UV-I 128 W/m 0,6 C -3,8 C 19,3 km/h (3 Bft) 100,00 %
28.02.2016 09:27 3,1 C 84 % 1008,5 hPa 0,0 l/m 14,9 km/h (3 Bft) N-NO 24 0 min 0,000 mm 0,0 UV-I 130 W/m 0,7 C -3,2 C 19,3 km/h (3 Bft) 100,00 %
28.02.2016 09:28 3,1 C 84 % 1008,4 hPa 0,0 l/m 14,3 km/h (3 Bft) NO 49 0 min 0,000 mm 0,0 UV-I 132 W/m 0,7 C -2,8 C 20,9 km/h (4 Bft) 100,00 %
28.02.2016 09:29 3,1 C 84 % 1008,4 hPa 0,0 l/m 14,2 km/h (3 Bft) NO 53 0 min 0,000 mm 0,0 UV-I 134 W/m 0,7 C -2,8 C 17,7 km/h (3 Bft) 100,00 %
28.02.2016 09:30 3,1 C 84 % 1008,4 hPa 0,0 l/m 17,3 km/h (3 Bft) NO 36 0 min 0,000 mm 0,0 UV-I 136 W/m 0,7 C -4,4 C 20,9 km/h (4 Bft) 100,00 %
28.02.2016 09:31 3,1 C 85 % 1008,4 hPa 0,0 l/m 17,8 km/h (3 Bft) O 81 0 min 0,000 mm 0,2 UV-I 137 W/m 0,8 C -4,6 C 20,9 km/h (4 Bft) 100,00 %
28.02.2016 09:32 3,1 C 85 % 1008,4 hPa 0,0 l/m 15,5 km/h (3 Bft) NO 50 0 min 0,000 mm 0,5 UV-I 139 W/m 0,8 C -3,5 C 20,9 km/h (4 Bft) 96,15 %
28.02.2016 09:33 3,1 C 85 % 1008,3 hPa 0,0 l/m 17,1 km/h (3 Bft) O-NO 61 0 min 0,000 mm 0,5 UV-I 139 W/m 0,8 C -4,3 C 20,9 km/h (4 Bft) 100,00 %
28.02.2016 09:34 3,2 C 85 % 1008,3 hPa 0,0 l/m 14,9 km/h (3 Bft) O-NO 69 0 min 0,000 mm 0,5 UV-I 141 W/m 0,9 C -3,0 C 19,3 km/h (3 Bft) 96,15 %
28.02.2016 09:35 3,2 C 85 % 1008,3 hPa 0,0 l/m 14,3 km/h (3 Bft) NO 54 0 min 0,000 mm 0,5 UV-I 141 W/m 0,9 C -2,7 C 17,7 km/h (3 Bft) 100,00 %
28.02.2016 09:36 3,2 C 84 % 1008,3 hPa 0,0 l/m 15,9 km/h (3 Bft) O-NO 71 0 min 0,000 mm 0,5 UV-I 141 W/m 0,8 C -3,6 C 20,9 km/h (4 Bft) 100,00 %
28.02.2016 09:37 3,2 C 85 % 1008,3 hPa 0,0 l/m 17,2 km/h (3 Bft) O 88 0 min 0,000 mm 0,5 UV-I 142 W/m 0,9 C -4,2 C 20,9 km/h (4 Bft) 100,00 %
28.02.2016 09:38 3,2 C 85 % 1008,3 hPa 0,0 l/m 16,3 km/h (3 Bft) O-NO 62 0 min 0,000 mm 0,5 UV-I 142 W/m 0,9 C -3,8 C 19,3 km/h (3 Bft) 100,00 %
28.02.2016 09:39 3,2 C 85 % 1008,4 hPa 0,0 l/m 17,5 km/h (3 Bft) NO 38 0 min 0,000 mm 0,5 UV-I 142 W/m 0,9 C -4,4 C 20,9 km/h (4 Bft) 100,00 %
28.02.2016 09:40 3,2 C 85 % 1008,3 hPa 0,0 l/m 13,6 km/h (3 Bft) O-NO 60 0 min 0,000 mm 0,5 UV-I 142 W/m 0,9 C -2,3 C 17,7 km/h (3 Bft) 100,00 %
28.02.2016 09:41 3,3 C 85 % 1008,4 hPa 0,0 l/m 14,7 km/h (3 Bft) NO 55 0 min 0,000 mm 0,5 UV-I 142 W/m 1,0 C -2,8 C 19,3 km/h (3 Bft) 96,15 %
28.02.2016 09:42 3,3 C 85 % 1008,4 hPa 0,0 l/m 16,3 km/h (3 Bft) NO 52 0 min 0,000 mm 0,5 UV-I 142 W/m 1,0 C -3,7 C 20,9 km/h (4 Bft) 100,00 %
28.02.2016 09:43 3,3 C 85 % 1008,4 hPa 0,0 l/m 18,2 km/h (3 Bft) O-NO 58 0 min 0,000 mm 0,5 UV-I 141 W/m 1,0 C -4,6 C 22,5 km/h (4 Bft) 100,00 %
28.02.2016 09:44 3,3 C 85 % 1008,4 hPa 0,0 l/m 17,1 km/h (3 Bft) NO 55 0 min 0,000 mm 0,5 UV-I 141 W/m 1,0 C -4,1 C 19,3 km/h (3 Bft) 100,00 %
28.02.2016 09:45 3,3 C 85 % 1008,4 hPa 0,0 l/m 14,4 km/h (3 Bft) NO 55 0 min 0,000 mm 0,5 UV-I 141 W/m 1,0 C -2,7 C 19,3 km/h (3 Bft) 100,00 %
28.02.2016 09:46 3,3 C 85 % 1008,5 hPa 0,0 l/m 18,5 km/h (3 Bft) N-NO 33 0 min 0,000 mm 0,5 UV-I 141 W/m 1,0 C -4,7 C 24,1 km/h (4 Bft) 100,00 %
28.02.2016 09:47 3,3 C 85 % 1008,5 hPa 0,0 l/m 14,7 km/h (3 Bft) NO 53 0 min 0,000 mm 0,5 UV-I 141 W/m 1,0 C -2,8 C 17,7 km/h (3 Bft) 95,65 %
28.02.2016 09:48 3,4 C 85 % 1008,4 hPa 0,0 l/m 19,0 km/h (3 Bft) NO 46 0 min 0,000 mm 0,5 UV-I 141 W/m 1,1 C -4,8 C 24,1 km/h (4 Bft) 100,00 %
28.02.2016 09:49 3,4 C 84 % 1008,4 hPa 0,0 l/m 15,5 km/h (3 Bft) NO 43 0 min 0,000 mm 0,5 UV-I 141 W/m 1,0 C -3,1 C 22,5 km/h (4 Bft) 100,00 %
28.02.2016 09:50 3,4 C 84 % 1008,4 hPa 0,0 l/m 15,4 km/h (3 Bft) NO 47 0 min 0,000 mm 0,5 UV-I 142 W/m 1,0 C -3,1 C 17,7 km/h (3 Bft) 100,00 %
28.02.2016 09:51 3,4 C 85 % 1008,4 hPa 0,0 l/m 18,5 km/h (3 Bft) NO 53 0 min 0,000 mm 0,5 UV-I 144 W/m 1,1 C -4,6 C 20,9 km/h (4 Bft) 96,55 %
28.02.2016 09:52 3,4 C 84 % 1008,4 hPa 0,0 l/m 17,1 km/h (3 Bft) NO 42 0 min 0,000 mm 0,5 UV-I 145 W/m 1,0 C -3,9 C 20,9 km/h (4 Bft) 96,30 %
28.02.2016 09:53 3,4 C 85 % 1008,4 hPa 0,0 l/m 19,2 km/h (3 Bft) O-NO 62 0 min 0,000 mm 0,5 UV-I 146 W/m 1,1 C -4,9 C 22,5 km/h (4 Bft) 100,00 %
28.02.2016 09:54 3,5 C 85 % 1008,4 hPa 0,0 l/m 17,2 km/h (3 Bft) O-NO 60 0 min 0,000 mm 0,6 UV-I 147 W/m 1,2 C -3,9 C 20,9 km/h (4 Bft) 96,15 %
28.02.2016 09:55 3,5 C 85 % 1008,5 hPa 0,0 l/m 15,4 km/h (3 Bft) O-NO 59 0 min 0,000 mm 0,6 UV-I 148 W/m 1,2 C -3,0 C 19,3 km/h (3 Bft) 96,15 %
28.02.2016 09:56 3,5 C 85 % 1008,5 hPa 0,0 l/m 12,6 km/h (3 Bft) N-NO 25 0 min 0,000 mm 0,6 UV-I 148 W/m 1,2 C -1,4 C 17,7 km/h (3 Bft) 93,33 %
28.02.2016 09:57 3,5 C 85 % 1008,4 hPa 0,0 l/m 12,4 km/h (3 Bft) NO 46 0 min 0,000 mm 0,6 UV-I 149 W/m 1,2 C -1,2 C 17,7 km/h (3 Bft) 100,00 %
28.02.2016 09:58 3,6 C 85 % 1008,5 hPa 0,0 l/m 17,8 km/h (3 Bft) NO 42 0 min 0,000 mm 0,6 UV-I 149 W/m 1,3 C -4,0 C 19,3 km/h (3 Bft) 96,55 %
28.02.2016 09:59 3,6 C 85 % 1008,5 hPa 0,0 l/m 16,5 km/h (3 Bft) NO 49 0 min 0,000 mm 0,6 UV-I 149 W/m 1,3 C -3,4 C 20,9 km/h (4 Bft) 100,00 %
28.02.2016 10:00 3,6 C 85 % 1008,4 hPa 0,0 l/m 12,0 km/h (2 Bft) NO 55 0 min 0,000 mm 0,6 UV-I 150 W/m 1,3 C -0,9 C 17,7 km/h (3 Bft) 96,55 %
28.02.2016 10:01 3,6 C 85 % 1008,5 hPa 0,0 l/m 12,8 km/h (3 Bft) NO 53 0 min 0,076 mm 0,6 UV-I 151 W/m 1,3 C -1,4 C 19,3 km/h (3 Bft) 96,30 %
28.02.2016 10:02 3,6 C 85 % 1008,5 hPa 0,0 l/m 10,9 km/h (2 Bft) NO 37 0 min 0,000 mm 0,6 UV-I 153 W/m 1,3 C -0,1 C 14,5 km/h (3 Bft) 100,00 %
28.02.2016 10:03 3,6 C 85 % 1008,5 hPa 0,0 l/m 16,3 km/h (3 Bft) NO 53 0 min 0,000 mm 0,6 UV-I 153 W/m 1,3 C -3,3 C 22,5 km/h (4 Bft) 100,00 %
28.02.2016 10:04 3,6 C 85 % 1008,5 hPa 0,0 l/m 14,6 km/h (3 Bft) O-NO 67 0 min 0,000 mm 0,6 UV-I 153 W/m 1,3 C -2,4 C 19,3 km/h (3 Bft) 96,15 %
28.02.2016 10:05 3,6 C 85 % 1008,4 hPa 0,0 l/m 13,1 km/h (3 Bft) NO 40 0 min 0,000 mm 0,6 UV-I 153 W/m 1,3 C -1,5 C 17,7 km/h (3 Bft) 95,83 %
28.02.2016 10:06 3,6 C 85 % 1008,5 hPa 0,0 l/m 18,6 km/h (3 Bft) O-NO 67 0 min 0,000 mm 0,6 UV-I 153 W/m 1,3 C -4,4 C 22,5 km/h (4 Bft) 100,00 %
28.02.2016 10:07 3,7 C 85 % 1008,5 hPa 0,0 l/m 15,7 km/h (3 Bft) NO 54 0 min 0,000 mm 0,6 UV-I 152 W/m 1,4 C -2,9 C 20,9 km/h (4 Bft) 95,83 %
28.02.2016 10:08 3,7 C 85 % 1008,5 hPa 0,0 l/m 15,8 km/h (3 Bft) NO 55 0 min 0,000 mm 0,6 UV-I 151 W/m 1,4 C -2,9 C 20,9 km/h (4 Bft) 100,00 %
28.02.2016 10:09 3,7 C 85 % 1008,5 hPa 0,0 l/m 13,4 km/h (3 Bft) O-NO 74 0 min 0,000 mm 0,7 UV-I 153 W/m 1,4 C -1,6 C 17,7 km/h (3 Bft) 91,67 %
28.02.2016 10:10 3,7 C 85 % 1008,5 hPa 0,0 l/m 10,8 km/h (2 Bft) NO 56 0 min 0,000 mm 0,7 UV-I 153 W/m 1,4 C 0,1 C 16,1 km/h (3 Bft) 100,00 %
28.02.2016 10:11 3,7 C 85 % 1008,6 hPa 0,0 l/m 14,6 km/h (3 Bft) NO 38 0 min 0,000 mm 0,7 UV-I 153 W/m 1,4 C -2,3 C 16,1 km/h (3 Bft) 96,30 %
28.02.2016 10:12 3,7 C 85 % 1008,5 hPa 0,0 l/m 13,5 km/h (3 Bft) NO 41 0 min 0,000 mm 0,7 UV-I 153 W/m 1,4 C -1,7 C 17,7 km/h (3 Bft) 95,65 %
28.02.2016 10:13 3,7 C 85 % 1008,5 hPa 0,0 l/m 11,2 km/h (2 Bft) N 11 0 min 0,000 mm 0,7 UV-I 154 W/m 1,4 C -0,2 C 14,5 km/h (3 Bft) 100,00 %
28.02.2016 10:14 3,7 C 85 % 1008,5 hPa 0,0 l/m 13,2 km/h (3 Bft) O-NO 65 0 min 0,000 mm 0,7 UV-I 155 W/m 1,4 C -1,5 C 16,1 km/h (3 Bft) 96,97 %
28.02.2016 10:15 3,8 C 85 % 1008,5 hPa 0,0 l/m 15,6 km/h (3 Bft) NO 47 0 min 0,000 mm 0,7 UV-I 155 W/m 1,5 C -2,7 C 19,3 km/h (3 Bft) 100,00 %
28.02.2016 10:16 3,8 C 85 % 1008,4 hPa 0,0 l/m 11,9 km/h (2 Bft) O-NO 67 0 min 0,000 mm 0,7 UV-I 157 W/m 1,5 C -0,6 C 16,1 km/h (3 Bft) 91,67 %
28.02.2016 10:17 3,8 C 85 % 1008,4 hPa 0,0 l/m 14,0 km/h (3 Bft) N-NO 29 0 min 0,000 mm 0,7 UV-I 159 W/m 1,5 C -1,8 C 19,3 km/h (3 Bft) 100,00 %
28.02.2016 10:18 3,8 C 85 % 1008,4 hPa 0,0 l/m 16,4 km/h (3 Bft) O-NO 68 0 min 0,000 mm 0,7 UV-I 160 W/m 1,5 C -3,1 C 22,5 km/h (4 Bft) 93,33 %
28.02.2016 10:19 3,8 C 85 % 1008,4 hPa 0,0 l/m 10,5 km/h (2 Bft) O-NO 58 0 min 0,000 mm 0,7 UV-I 162 W/m 1,5 C 0,4 C 16,1 km/h (3 Bft) 100,00 %
28.02.2016 10:20 3,8 C 85 % 1008,4 hPa 0,0 l/m 14,5 km/h (3 Bft) O-NO 63 0 min 0,000 mm 0,7 UV-I 162 W/m 1,5 C -2,1 C 24,1 km/h (4 Bft) 95,83 %
28.02.2016 10:21 3,8 C 84 % 1008,4 hPa 0,0 l/m 16,6 km/h (3 Bft) NO 55 0 min 0,000 mm 0,7 UV-I 163 W/m 1,4 C -3,2 C 22,5 km/h (4 Bft) 92,31 %
28.02.2016 10:22 3,9 C 84 % 1008,4 hPa 0,0 l/m 12,1 km/h (2 Bft) N-NO 19 0 min 0,000 mm 0,7 UV-I 163 W/m 1,4 C -0,6 C 17,7 km/h (3 Bft) 100,00 %
28.02.2016 10:23 3,9 C 85 % 1008,4 hPa 0,0 l/m 13,5 km/h (3 Bft) O-NO 63 0 min 0,000 mm 0,7 UV-I 164 W/m 1,6 C -1,4 C 20,9 km/h (4 Bft) 92,86 %
28.02.2016 10:24 3,9 C 85 % 1008,5 hPa 0,0 l/m 16,0 km/h (3 Bft) NO 49 0 min 0,000 mm 0,7 UV-I 165 W/m 1,6 C -2,8 C 20,9 km/h (4 Bft) 90,00 %
28.02.2016 10:25 3,9 C 85 % 1008,4 hPa 0,0 l/m 12,7 km/h (3 Bft) NO 50 0 min 0,000 mm 0,7 UV-I 165 W/m 1,6 C -0,9 C 17,7 km/h (3 Bft) 95,65 %
28.02.2016 10:26 3,9 C 85 % 1008,5 hPa 0,0 l/m 17,2 km/h (3 Bft) O-NO 62 0 min 0,000 mm 0,7 UV-I 165 W/m 1,6 C -3,4 C 24,1 km/h (4 Bft) 100,00 %
28.02.2016 10:27 3,9 C 85 % 1008,5 hPa 0,0 l/m 17,9 km/h (3 Bft) NO 53 0 min 0,000 mm 0,7 UV-I 163 W/m 1,6 C -3,7 C 22,5 km/h (4 Bft) 96,15 %
28.02.2016 10:28 4,0 C 85 % 1008,5 hPa 0,0 l/m 16,4 km/h (3 Bft) NO 53 0 min 0,000 mm 0,7 UV-I 163 W/m 1,7 C -2,8 C 22,5 km/h (4 Bft) 100,00 %
28.02.2016 10:29 4,0 C 85 % 1008,5 hPa 0,0 l/m 19,5 km/h (3 Bft) O-NO 61 0 min 0,000 mm 0,7 UV-I 163 W/m 1,7 C -4,3 C 24,1 km/h (4 Bft) 100,00 %
28.02.2016 10:30 4,0 C 85 % 1008,5 hPa 0,0 l/m 17,3 km/h (3 Bft) NO 38 0 min 0,000 mm 0,7 UV-I 163 W/m 1,7 C -3,3 C 22,5 km/h (4 Bft) 100,00 %
28.02.2016 10:31 4,1 C 85 % 1008,5 hPa 0,0 l/m 13,0 km/h (3 Bft) NO 40 0 min 0,000 mm 0,7 UV-I 165 W/m 1,8 C -0,9 C 16,1 km/h (3 Bft) 100,00 %
28.02.2016 10:32 4,1 C 85 % 1008,5 hPa 0,0 l/m 14,1 km/h (3 Bft) NO 44 0 min 0,000 mm 0,7 UV-I 165 W/m 1,8 C -1,5 C 20,9 km/h (4 Bft) 100,00 %
28.02.2016 10:33 4,1 C 85 % 1008,5 hPa 0,0 l/m 13,7 km/h (3 Bft) O-NO 65 0 min 0,000 mm 0,7 UV-I 165 W/m 1,8 C -1,3 C 17,7 km/h (3 Bft) 100,00 %
28.02.2016 10:34 4,1 C 85 % 1008,5 hPa 0,0 l/m 14,0 km/h (3 Bft) N-NO 32 0 min 0,000 mm 0,7 UV-I 166 W/m 1,8 C -1,5 C 22,5 km/h (4 Bft) 100,00 %
28.02.2016 10:35 4,1 C 85 % 1008,5 hPa 0,0 l/m 11,9 km/h (2 Bft) NO 38 0 min 0,000 mm 0,7 UV-I 167 W/m 1,8 C -0,2 C 16,1 km/h (3 Bft) 100,00 %
28.02.2016 10:36 4,1 C 85 % 1008,5 hPa 0,0 l/m 12,6 km/h (3 Bft) O-NO 57 0 min 0,000 mm 0,7 UV-I 167 W/m 1,8 C -0,7 C 16,1 km/h (3 Bft) 91,67 %
28.02.2016 10:37 4,2 C 85 % 1008,6 hPa 0,0 l/m 12,5 km/h (3 Bft) NO 38 0 min 0,000 mm 0,7 UV-I 167 W/m 1,9 C -0,5 C 19,3 km/h (3 Bft) 100,00 %
28.02.2016 10:38 4,2 C 85 % 1008,6 hPa 0,0 l/m 16,2 km/h (3 Bft) O-NO 63 0 min 0,000 mm 0,7 UV-I 167 W/m 1,9 C -2,5 C 19,3 km/h (3 Bft) 100,00 %
28.02.2016 10:39 4,2 C 85 % 1008,5 hPa 0,0 l/m 13,7 km/h (3 Bft) O-NO 58 0 min 0,000 mm 0,7 UV-I 165 W/m 1,9 C -1,2 C 17,7 km/h (3 Bft) 100,00 %
28.02.2016 10:40 4,2 C 85 % 1008,6 hPa 0,0 l/m 16,3 km/h (3 Bft) O-NO 67 0 min 0,000 mm 0,7 UV-I 165 W/m 1,9 C -2,6 C 19,3 km/h (3 Bft) 100,00 %
28.02.2016 10:41 4,2 C 85 % 1008,5 hPa 0,0 l/m 15,4 km/h (3 Bft) O 82 0 min 0,000 mm 0,7 UV-I 165 W/m 1,9 C -2,1 C 19,3 km/h (3 Bft) 100,00 %
28.02.2016 10:42 4,3 C 85 % 1008,5 hPa 0,0 l/m 13,2 km/h (3 Bft) NO 37 0 min 0,000 mm 0,7 UV-I 164 W/m 2,0 C -0,8 C 17,7 km/h (3 Bft) 96,15 %
28.02.2016 10:43 4,3 C 85 % 1008,5 hPa 0,0 l/m 15,9 km/h (3 Bft) O-NO 74 0 min 0,000 mm 0,8 UV-I 163 W/m 2,0 C -2,2 C 19,3 km/h (3 Bft) 100,00 %
28.02.2016 10:44 4,3 C 85 % 1008,5 hPa 0,0 l/m 11,3 km/h (2 Bft) NO 49 0 min 0,000 mm 0,8 UV-I 163 W/m 2,0 C 0,4 C 14,5 km/h (3 Bft) 100,00 %
28.02.2016 10:45 4,3 C 85 % 1008,5 hPa 0,0 l/m 19,6 km/h (3 Bft) NO 36 0 min 0,000 mm 0,8 UV-I 162 W/m 2,0 C -3,9 C 22,5 km/h (4 Bft) 100,00 %
28.02.2016 10:46 4,3 C 85 % 1008,4 hPa 0,0 l/m 17,6 km/h (3 Bft) NO 56 0 min 0,000 mm 0,8 UV-I 162 W/m 2,0 C -3,0 C 22,5 km/h (4 Bft) 100,00 %
28.02.2016 10:47 4,4 C 85 % 1008,5 hPa 0,0 l/m 15,6 km/h (3 Bft) O-NO 58 0 min 0,000 mm 0,8 UV-I 162 W/m 2,1 C -2,0 C 19,3 km/h (3 Bft) 100,00 %
28.02.2016 10:48 4,4 C 85 % 1008,5 hPa 0,0 l/m 14,1 km/h (3 Bft) NO 50 0 min 0,000 mm 0,8 UV-I 162 W/m 2,1 C -1,2 C 17,7 km/h (3 Bft) 95,65 %
28.02.2016 10:49 4,4 C 85 % 1008,5 hPa 0,0 l/m 13,9 km/h (3 Bft) O-NO 61 0 min 0,000 mm 0,8 UV-I 162 W/m 2,1 C -1,1 C 19,3 km/h (3 Bft) 100,00 %
28.02.2016 10:50 4,4 C 84 % 1008,4 hPa 0,0 l/m 15,3 km/h (3 Bft) N-NO 26 0 min 0,000 mm 0,8 UV-I 162 W/m 1,9 C -1,8 C 17,7 km/h (3 Bft) 96,55 %
28.02.2016 10:51 4,4 C 85 % 1008,4 hPa 0,0 l/m 18,2 km/h (3 Bft) NO 43 0 min 0,000 mm 0,8 UV-I 162 W/m 2,1 C -3,2 C 22,5 km/h (4 Bft) 100,00 %
28.02.2016 10:52 4,4 C 85 % 1008,4 hPa 0,0 l/m 15,2 km/h (3 Bft) NO 40 0 min 0,000 mm 0,8 UV-I 162 W/m 2,1 C -1,8 C 20,9 km/h (4 Bft) 100,00 %
28.02.2016 10:53 4,5 C 85 % 1008,4 hPa 0,0 l/m 17,4 km/h (3 Bft) O-NO 62 0 min 0,000 mm 0,8 UV-I 163 W/m 2,2 C -2,7 C 22,5 km/h (4 Bft) 100,00 %
28.02.2016 10:54 4,5 C 84 % 1008,4 hPa 0,0 l/m 10,5 km/h (2 Bft) NO 52 0 min 0,000 mm 0,8 UV-I 162 W/m 2,0 C 1,2 C 16,1 km/h (3 Bft) 100,00 %
28.02.2016 10:55 4,6 C 85 % 1008,4 hPa 0,0 l/m 15,7 km/h (3 Bft) NO 46 0 min 0,000 mm 0,8 UV-I 162 W/m 2,3 C -1,8 C 19,3 km/h (3 Bft) 100,00 %
28.02.2016 10:56 4,6 C 85 % 1008,4 hPa 0,0 l/m 13,4 km/h (3 Bft) NO 38 0 min 0,000 mm 0,8 UV-I 162 W/m 2,3 C -0,5 C 17,7 km/h (3 Bft) 100,00 %
28.02.2016 10:57 4,6 C 84 % 1008,4 hPa 0,0 l/m 11,6 km/h (2 Bft) O-NO 65 0 min 0,000 mm 0,8 UV-I 161 W/m 2,1 C 0,5 C 16,1 km/h (3 Bft) 96,55 %
28.02.2016 10:58 4,6 C 85 % 1008,4 hPa 0,0 l/m 12,2 km/h (2 Bft) NO 36 0 min 0,000 mm 0,8 UV-I 160 W/m 2,3 C 0,2 C 20,9 km/h (4 Bft) 100,00 %
28.02.2016 10:59 4,6 C 85 % 1008,4 hPa 0,0 l/m 19,3 km/h (3 Bft) N-NO 24 0 min 0,000 mm 0,8 UV-I 160 W/m 2,3 C -3,4 C 22,5 km/h (4 Bft) 100,00 %
28.02.2016 11:00 4,7 C 85 % 1008,3 hPa 0,0 l/m 17,7 km/h (3 Bft) N-NO 28 0 min 0,076 mm 0,8 UV-I 162 W/m 2,4 C -2,6 C 20,9 km/h (4 Bft) 96,30 %
28.02.2016 11:01 4,7 C 84 % 1008,3 hPa 0,0 l/m 14,2 km/h (3 Bft) NO 38 0 min 0,000 mm 0,8 UV-I 162 W/m 2,2 C -0,9 C 19,3 km/h (3 Bft) 100,00 %
28.02.2016 11:02 4,7 C 85 % 1008,4 hPa 0,0 l/m 20,3 km/h (4 Bft) NO 43 0 min 0,000 mm 0,8 UV-I 163 W/m 2,4 C -3,7 C 22,5 km/h (4 Bft) 100,00 %
28.02.2016 11:03 4,7 C 85 % 1008,4 hPa 0,0 l/m 10,3 km/h (2 Bft) O-NO 65 0 min 0,000 mm 0,8 UV-I 164 W/m 2,4 C 1,5 C 19,3 km/h (3 Bft) 100,00 %
28.02.2016 11:04 4,8 C 84 % 1008,4 hPa 0,0 l/m 16,8 km/h (3 Bft) NO 39 0 min 0,000 mm 0,8 UV-I 166 W/m 2,3 C -2,0 C 22,5 km/h (4 Bft) 100,00 %
28.02.2016 11:05 4,8 C 84 % 1008,4 hPa 0,0 l/m 17,9 km/h (3 Bft) O-NO 62 0 min 0,000 mm 0,8 UV-I 168 W/m 2,3 C -2,5 C 20,9 km/h (4 Bft) 100,00 %
28.02.2016 11:06 4,8 C 84 % 1008,4 hPa 0,0 l/m 14,7 km/h (3 Bft) O-NO 61 0 min 0,000 mm 0,9 UV-I 171 W/m 2,3 C -1,0 C 20,9 km/h (4 Bft) 96,30 %
28.02.2016 11:07 4,8 C 84 % 1008,4 hPa 0,0 l/m 17,9 km/h (3 Bft) O-NO 57 0 min 0,000 mm 0,9 UV-I 172 W/m 2,3 C -2,5 C 22,5 km/h (4 Bft) 100,00 %
28.02.2016 11:08 4,8 C 84 % 1008,4 hPa 0,0 l/m 17,9 km/h (3 Bft) NO 40 0 min 0,000 mm 0,9 UV-I 172 W/m 2,3 C -2,5 C 22,5 km/h (4 Bft) 100,00 %
28.02.2016 11:09 4,8 C 84 % 1008,4 hPa 0,0 l/m 17,7 km/h (3 Bft) N-NO 24 0 min 0,000 mm 0,9 UV-I 175 W/m 2,3 C -2,5 C 24,1 km/h (4 Bft) 100,00 %
28.02.2016 11:10 4,8 C 84 % 1008,3 hPa 0,0 l/m 17,3 km/h (3 Bft) NO 47 0 min 0,000 mm 0,9 UV-I 177 W/m 2,3 C -2,3 C 22,5 km/h (4 Bft) 100,00 %
28.02.2016 11:11 4,8 C 84 % 1008,3 hPa 0,0 l/m 11,2 km/h (2 Bft) O-NO 68 0 min 0,000 mm 0,9 UV-I 179 W/m 2,3 C 1,0 C 14,5 km/h (3 Bft) 100,00 %
28.02.2016 11:12 4,8 C 84 % 1008,4 hPa 0,0 l/m 13,5 km/h (3 Bft) O-NO 57 0 min 0,000 mm 0,9 UV-I 179 W/m 2,3 C -0,4 C 19,3 km/h (3 Bft) 100,00 %
28.02.2016 11:13 4,9 C 84 % 1008,3 hPa 0,0 l/m 10,1 km/h (2 Bft) N-NO 33 0 min 0,000 mm 0,9 UV-I 181 W/m 2,4 C 1,9 C 16,1 km/h (3 Bft) 100,00 %
28.02.2016 11:14 4,9 C 84 % 1008,4 hPa 0,0 l/m 12,9 km/h (3 Bft) NO 47 0 min 0,000 mm 0,9 UV-I 184 W/m 2,4 C 0,1 C 19,3 km/h (3 Bft) 95,65 %
28.02.2016 11:15 4,9 C 84 % 1008,4 hPa 0,0 l/m 11,9 km/h (2 Bft) NO 47 0 min 0,000 mm 0,9 UV-I 185 W/m 2,4 C 0,7 C 17,7 km/h (3 Bft) 100,00 %
28.02.2016 11:16 5,0 C 84 % 1008,4 hPa 0,0 l/m 11,4 km/h (2 Bft) NO 43 0 min 0,000 mm 0,9 UV-I 186 W/m 2,5 C 1,1 C 16,1 km/h (3 Bft) 100,00 %
28.02.2016 11:17 5,1 C 85 % 1008,4 hPa 0,0 l/m 14,7 km/h (3 Bft) NO 52 0 min 0,000 mm 0,9 UV-I 186 W/m 2,8 C -0,6 C 20,9 km/h (4 Bft) 100,00 %
28.02.2016 11:18 5,1 C 84 % 1008,4 hPa 0,0 l/m 17,4 km/h (3 Bft) NO 47 0 min 0,000 mm 0,9 UV-I 186 W/m 2,6 C -1,9 C 22,5 km/h (4 Bft) 100,00 %
28.02.2016 11:19 5,1 C 84 % 1008,4 hPa 0,0 l/m 16,7 km/h (3 Bft) NO 51 0 min 0,000 mm 0,9 UV-I 186 W/m 2,6 C -1,6 C 17,7 km/h (3 Bft) 100,00 %
28.02.2016 11:20 5,1 C 84 % 1008,4 hPa 0,0 l/m 14,4 km/h (3 Bft) NO 55 0 min 0,000 mm 0,9 UV-I 186 W/m 2,6 C -0,5 C 17,7 km/h (3 Bft) 100,00 %
28.02.2016 11:21 5,2 C 84 % 1008,4 hPa 0,0 l/m 14,6 km/h (3 Bft) NO 45 0 min 0,000 mm 0,9 UV-I 185 W/m 2,7 C -0,5 C 19,3 km/h (3 Bft) 100,00 %
28.02.2016 11:22 5,2 C 84 % 1008,4 hPa 0,0 l/m 14,0 km/h (3 Bft) N-NO 29 0 min 0,000 mm 0,9 UV-I 184 W/m 2,7 C -0,2 C 19,3 km/h (3 Bft) 100,00 %
28.02.2016 11:23 5,2 C 84 % 1008,3 hPa 0,0 l/m 15,9 km/h (3 Bft) N-NO 28 0 min 0,000 mm 0,9 UV-I 183 W/m 2,7 C -1,1 C 19,3 km/h (3 Bft) 100,00 %
28.02.2016 11:24 5,2 C 84 % 1008,3 hPa 0,0 l/m 14,9 km/h (3 Bft) O-NO 57 0 min 0,000 mm 0,9 UV-I 181 W/m 2,7 C -0,6 C 22,5 km/h (4 Bft) 100,00 %
28.02.2016 11:25 5,2 C 84 % 1008,3 hPa 0,0 l/m 17,3 km/h (3 Bft) N-NO 28 0 min 0,000 mm 0,9 UV-I 180 W/m 2,7 C -1,8 C 22,5 km/h (4 Bft) 100,00 %
28.02.2016 11:26 5,2 C 84 % 1008,3 hPa 0,0 l/m 19,5 km/h (3 Bft) O-NO 59 0 min 0,000 mm 0,9 UV-I 179 W/m 2,7 C -2,7 C 22,5 km/h (4 Bft) 100,00 %
28.02.2016 11:27 5,2 C 84 % 1008,3 hPa 0,0 l/m 17,4 km/h (3 Bft) O-NO 61 0 min 0,000 mm 0,9 UV-I 179 W/m 2,7 C -1,8 C 20,9 km/h (4 Bft) 96,67 %
28.02.2016 11:28 5,3 C 84 % 1008,3 hPa 0,0 l/m 17,7 km/h (3 Bft) NO 52 0 min 0,000 mm 0,9 UV-I 178 W/m 2,8 C -1,8 C 20,9 km/h (4 Bft) 100,00 %
28.02.2016 11:29 5,3 C 84 % 1008,3 hPa 0,0 l/m 14,8 km/h (3 Bft) O-NO 74 0 min 0,000 mm 0,9 UV-I 178 W/m 2,8 C -0,5 C 20,9 km/h (4 Bft) 100,00 %
28.02.2016 11:30 5,3 C 84 % 1008,3 hPa 0,0 l/m 15,0 km/h (3 Bft) O-NO 75 0 min 0,000 mm 0,9 UV-I 178 W/m 2,8 C -0,6 C 17,7 km/h (3 Bft) 100,00 %
28.02.2016 11:31 5,3 C 84 % 1008,4 hPa 0,0 l/m 15,3 km/h (3 Bft) NO 54 0 min 0,000 mm 0,9 UV-I 178 W/m 2,8 C -0,7 C 19,3 km/h (3 Bft) 100,00 %
28.02.2016 11:32 5,3 C 84 % 1008,3 hPa 0,0 l/m 17,1 km/h (3 Bft) NO 56 0 min 0,000 mm 0,9 UV-I 178 W/m 2,8 C -1,6 C 20,9 km/h (4 Bft) 96,15 %
28.02.2016 11:33 5,3 C 84 % 1008,3 hPa 0,0 l/m 18,7 km/h (3 Bft) NO 45 0 min 0,000 mm 0,9 UV-I 179 W/m 2,8 C -2,3 C 20,9 km/h (4 Bft) 100,00 %
28.02.2016 11:34 5,3 C 83 % 1008,4 hPa 0,0 l/m 18,9 km/h (3 Bft) O 82 0 min 0,000 mm 0,9 UV-I 179 W/m 2,7 C -2,3 C 22,5 km/h (4 Bft) 96,55 %
28.02.2016 11:35 5,4 C 84 % 1008,3 hPa 0,0 l/m 13,5 km/h (3 Bft) NO 54 0 min 0,000 mm 0,9 UV-I 181 W/m 2,9 C 0,4 C 19,3 km/h (3 Bft) 100,00 %
28.02.2016 11:36 5,4 C 84 % 1008,3 hPa 0,0 l/m 15,0 km/h (3 Bft) O-NO 57 0 min 0,000 mm 0,9 UV-I 183 W/m 2,9 C -0,4 C 20,9 km/h (4 Bft) 100,00 %
28.02.2016 11:37 5,4 C 84 % 1008,3 hPa 0,0 l/m 17,4 km/h (3 Bft) N-NO 28 0 min 0,000 mm 0,9 UV-I 185 W/m 2,9 C -1,6 C 19,3 km/h (3 Bft) 100,00 %
28.02.2016 11:38 5,4 C 83 % 1008,3 hPa 0,0 l/m 18,7 km/h (3 Bft) NO 43 0 min 0,000 mm 0,9 UV-I 189 W/m 2,7 C -2,1 C 20,9 km/h (4 Bft) 100,00 %
28.02.2016 11:39 5,5 C 84 % 1008,4 hPa 0,0 l/m 18,0 km/h (3 Bft) NO 46 0 min 0,000 mm 0,9 UV-I 192 W/m 3,0 C -1,7 C 22,5 km/h (4 Bft) 100,00 %
28.02.2016 11:40 5,6 C 84 % 1008,4 hPa 0,0 l/m 14,5 km/h (3 Bft) O-NO 57 0 min 0,000 mm 0,9 UV-I 194 W/m 3,1 C 0,1 C 19,3 km/h (3 Bft) 100,00 %
28.02.2016 11:41 5,6 C 83 % 1008,4 hPa 0,0 l/m 17,1 km/h (3 Bft) O-NO 58 0 min 0,000 mm 0,9 UV-I 196 W/m 2,9 C -1,2 C 20,9 km/h (4 Bft) 96,55 %
28.02.2016 11:42 5,6 C 84 % 1008,4 hPa 0,0 l/m 12,6 km/h (3 Bft) NO 36 0 min 0,000 mm 0,9 UV-I 199 W/m 3,1 C 1,1 C 16,1 km/h (3 Bft) 100,00 %
28.02.2016 11:43 5,6 C 84 % 1008,4 hPa 0,0 l/m 14,2 km/h (3 Bft) O-NO 64 0 min 0,000 mm 1,0 UV-I 200 W/m 3,1 C 0,2 C 17,7 km/h (3 Bft) 100,00 %
28.02.2016 11:44 5,7 C 83 % 1008,4 hPa 0,0 l/m 12,7 km/h (3 Bft) NO 49 0 min 0,000 mm 1,0 UV-I 200 W/m 3,0 C 1,2 C 19,3 km/h (3 Bft) 100,00 %
28.02.2016 11:45 5,7 C 83 % 1008,5 hPa 0,0 l/m 16,5 km/h (3 Bft) NO 43 0 min 0,000 mm 1,0 UV-I 200 W/m 3,0 C -0,8 C 20,9 km/h (4 Bft) 92,31 %
28.02.2016 11:46 5,7 C 83 % 1008,4 hPa 0,0 l/m 15,3 km/h (3 Bft) NO 53 0 min 0,000 mm 1,0 UV-I 200 W/m 3,0 C -0,2 C 19,3 km/h (3 Bft) 100,00 %
28.02.2016 11:47 5,7 C 83 % 1008,5 hPa 0,0 l/m 18,4 km/h (3 Bft) O-NO 65 0 min 0,000 mm 1,0 UV-I 200 W/m 3,0 C -1,6 C 22,5 km/h (4 Bft) 95,65 %
28.02.2016 11:48 5,8 C 83 % 1008,5 hPa 0,0 l/m 15,4 km/h (3 Bft) NO 50 0 min 0,000 mm 0,9 UV-I 200 W/m 3,1 C -0,2 C 19,3 km/h (3 Bft) 100,00 %
28.02.2016 11:49 5,8 C 83 % 1008,4 hPa 0,0 l/m 12,5 km/h (3 Bft) NO 45 0 min 0,000 mm 1,0 UV-I 201 W/m 3,1 C 1,4 C 16,1 km/h (3 Bft) 100,00 %
28.02.2016 11:50 5,8 C 83 % 1008,4 hPa 0,0 l/m 14,0 km/h (3 Bft) O-NO 71 0 min 0,000 mm 1,0 UV-I 202 W/m 3,1 C 0,6 C 19,3 km/h (3 Bft) 100,00 %
28.02.2016 11:51 5,8 C 83 % 1008,5 hPa 0,0 l/m 14,2 km/h (3 Bft) O-NO 61 0 min 0,000 mm 1,0 UV-I 201 W/m 3,1 C 0,5 C 19,3 km/h (3 Bft) 96,15 %
28.02.2016 11:52 5,9 C 83 % 1008,4 hPa 0,0 l/m 14,2 km/h (3 Bft) O-NO 57 0 min 0,000 mm 1,0 UV-I 200 W/m 3,2 C 0,6 C 19,3 km/h (3 Bft) 100,00 %
28.02.2016 11:53 5,9 C 83 % 1008,4 hPa 0,0 l/m 12,8 km/h (3 Bft) O-NO 57 0 min 0,000 mm 1,0 UV-I 200 W/m 3,2 C 1,3 C 17,7 km/h (3 Bft) 96,30 %
28.02.2016 11:54 5,9 C 83 % 1008,4 hPa 0,0 l/m 13,8 km/h (3 Bft) N-NO 33 0 min 0,000 mm 1,0 UV-I 200 W/m 3,2 C 0,8 C 17,7 km/h (3 Bft) 96,15 %
28.02.2016 11:55 6,0 C 83 % 1008,3 hPa 0,0 l/m 14,2 km/h (3 Bft) NO 53 0 min 0,000 mm 1,0 UV-I 200 W/m 3,3 C 0,7 C 19,3 km/h (3 Bft) 100,00 %
28.02.2016 11:56 6,0 C 82 % 1008,3 hPa 0,0 l/m 16,6 km/h (3 Bft) O-NO 65 0 min 0,000 mm 1,0 UV-I 200 W/m 3,2 C -0,5 C 22,5 km/h (4 Bft) 95,83 %
28.02.2016 11:57 6,1 C 82 % 1008,4 hPa 0,0 l/m 16,3 km/h (3 Bft) NO 47 0 min 0,000 mm 1,0 UV-I 200 W/m 3,3 C -0,2 C 20,9 km/h (4 Bft) 100,00 %
28.02.2016 11:58 6,1 C 82 % 1008,4 hPa 0,0 l/m 14,3 km/h (3 Bft) O-NO 59 0 min 0,000 mm 1,0 UV-I 200 W/m 3,3 C 0,8 C 17,7 km/h (3 Bft) 91,30 %
28.02.2016 11:59 6,1 C 83 % 1008,4 hPa 0,0 l/m 13,8 km/h (3 Bft) O-NO 69 0 min 0,000 mm 1,0 UV-I 200 W/m 3,4 C 1,0 C 19,3 km/h (3 Bft) 100,00 %
28.02.2016 12:00 6,2 C 83 % 1008,4 hPa 0,0 l/m 14,2 km/h (3 Bft) NO 52 0 min 0,000 mm 1,0 UV-I 200 W/m 3,5 C 0,9 C 20,9 km/h (4 Bft) 92,31 %
28.02.2016 12:01 6,2 C 82 % 1008,4 hPa 0,0 l/m 20,0 km/h (4 Bft) O-NO 74 0 min 0,102 mm 1,0 UV-I 200 W/m 3,4 C -1,6 C 24,1 km/h (4 Bft) 96,30 %
28.02.2016 12:02 6,2 C 82 % 1008,4 hPa 0,0 l/m 17,1 km/h (3 Bft) O-NO 60 0 min 0,000 mm 1,0 UV-I 200 W/m 3,4 C -0,4 C 19,3 km/h (3 Bft) 100,00 %
28.02.2016 12:03 6,2 C 82 % 1008,4 hPa 0,0 l/m 18,0 km/h (3 Bft) NO 55 0 min 0,000 mm 1,0 UV-I 200 W/m 3,4 C -0,8 C 25,7 km/h (4 Bft) 100,00 %
28.02.2016 12:04 6,2 C 82 % 1008,4 hPa 0,0 l/m 13,5 km/h (3 Bft) NO 52 0 min 0,000 mm 1,0 UV-I 200 W/m 3,4 C 1,3 C 17,7 km/h (3 Bft) 91,30 %
28.02.2016 12:05 6,3 C 82 % 1008,4 hPa 0,0 l/m 16,1 km/h (3 Bft) O-NO 68 0 min 0,000 mm 1,0 UV-I 199 W/m 3,5 C 0,1 C 19,3 km/h (3 Bft) 95,83 %
28.02.2016 12:06 6,3 C 82 % 1008,4 hPa 0,0 l/m 15,3 km/h (3 Bft) NO 53 0 min 0,000 mm 1,0 UV-I 199 W/m 3,5 C 0,5 C 20,9 km/h (4 Bft) 100,00 %
28.02.2016 12:07 6,3 C 82 % 1008,4 hPa 0,0 l/m 11,8 km/h (2 Bft) N-NO 32 0 min 0,000 mm 1,0 UV-I 198 W/m 3,5 C 2,4 C 17,7 km/h (3 Bft) 93,33 %
28.02.2016 12:08 6,3 C 82 % 1008,4 hPa 0,0 l/m 11,9 km/h (2 Bft) NO 45 0 min 0,000 mm 1,0 UV-I 197 W/m 3,5 C 2,3 C 17,7 km/h (3 Bft) 100,00 %
28.02.2016 12:09 6,4 C 82 % 1008,4 hPa 0,0 l/m 15,3 km/h (3 Bft) O-NO 65 0 min 0,000 mm 1,0 UV-I 197 W/m 3,6 C 0,6 C 19,3 km/h (3 Bft) 96,15 %
28.02.2016 12:10 6,4 C 82 % 1008,3 hPa 0,0 l/m 17,0 km/h (3 Bft) NO 39 0 min 0,000 mm 1,0 UV-I 197 W/m 3,6 C -0,1 C 22,5 km/h (4 Bft) 100,00 %
28.02.2016 12:11 6,4 C 82 % 1008,3 hPa 0,0 l/m 15,9 km/h (3 Bft) O-NO 62 0 min 0,000 mm 1,0 UV-I 197 W/m 3,6 C 0,3 C 20,9 km/h (4 Bft) 93,33 %
28.02.2016 12:12 6,4 C 81 % 1008,3 hPa 0,0 l/m 17,6 km/h (3 Bft) O-NO 65 0 min 0,000 mm 1,0 UV-I 199 W/m 3,4 C -0,4 C 24,1 km/h (4 Bft) 100,00 %
28.02.2016 12:13 6,4 C 81 % 1008,3 hPa 0,0 l/m 15,5 km/h (3 Bft) NO 40 0 min 0,000 mm 1,0 UV-I 199 W/m 3,4 C 0,5 C 17,7 km/h (3 Bft) 95,65 %
28.02.2016 12:14 6,5 C 81 % 1008,2 hPa 0,0 l/m 11,3 km/h (2 Bft) NO 47 0 min 0,000 mm 1,0 UV-I 199 W/m 3,5 C 2,9 C 16,1 km/h (3 Bft) 95,83 %
28.02.2016 12:15 6,6 C 82 % 1008,2 hPa 0,0 l/m 15,4 km/h (3 Bft) NO 44 0 min 0,000 mm 1,0 UV-I 201 W/m 3,8 C 0,8 C 20,9 km/h (4 Bft) 100,00 %
28.02.2016 12:16 6,6 C 81 % 1008,2 hPa 0,0 l/m 16,4 km/h (3 Bft) O-NO 59 0 min 0,000 mm 1,1 UV-I 202 W/m 3,6 C 0,4 C 24,1 km/h (4 Bft) 95,83 %
28.02.2016 12:17 6,6 C 81 % 1008,2 hPa 0,0 l/m 21,8 km/h (4 Bft) O-NO 59 0 min 0,000 mm 1,1 UV-I 204 W/m 3,6 C -1,7 C 27,4 km/h (4 Bft) 100,00 %
28.02.2016 12:18 6,6 C 81 % 1008,2 hPa 0,0 l/m 18,6 km/h (3 Bft) O 82 0 min 0,000 mm 1,1 UV-I 204 W/m 3,6 C -0,6 C 20,9 km/h (4 Bft) 94,87 %
28.02.2016 12:19 6,6 C 81 % 1008,2 hPa 0,0 l/m 17,2 km/h (3 Bft) NO 45 0 min 0,000 mm 1,1 UV-I 206 W/m 3,6 C 0,0 C 22,5 km/h (4 Bft) 100,00 %
28.02.2016 12:20 6,7 C 81 % 1008,1 hPa 0,0 l/m 17,9 km/h (3 Bft) NO 48 0 min 0,000 mm 1,1 UV-I 209 W/m 3,7 C -0,2 C 22,5 km/h (4 Bft) 93,33 %
28.02.2016 12:21 6,7 C 80 % 1008,2 hPa 0,0 l/m 21,0 km/h (4 Bft) O-NO 66 0 min 0,000 mm 1,1 UV-I 212 W/m 3,5 C -1,3 C 27,4 km/h (4 Bft) 92,31 %
28.02.2016 12:22 6,7 C 80 % 1008,2 hPa 0,0 l/m 16,3 km/h (3 Bft) N-NO 24 0 min 0,000 mm 1,2 UV-I 217 W/m 3,5 C 0,5 C 22,5 km/h (4 Bft) 96,30 %
28.02.2016 12:23 6,7 C 80 % 1008,1 hPa 0,0 l/m 16,2 km/h (3 Bft) O-NO 57 0 min 0,000 mm 1,2 UV-I 221 W/m 3,5 C 0,6 C 24,1 km/h (4 Bft) 95,65 %
28.02.2016 12:24 6,7 C 80 % 1008,2 hPa 0,0 l/m 19,9 km/h (4 Bft) NO 54 0 min 0,000 mm 1,2 UV-I 226 W/m 3,5 C -0,9 C 25,7 km/h (4 Bft) 93,33 %
28.02.2016 12:25 6,7 C 80 % 1008,2 hPa 0,0 l/m 24,2 km/h (4 Bft) O-NO 57 0 min 0,000 mm 1,2 UV-I 232 W/m 3,5 C -2,4 C 29,0 km/h (5 Bft) 96,15 %
28.02.2016 12:26 6,7 C 80 % 1008,2 hPa 0,0 l/m 22,0 km/h (4 Bft) NO 48 0 min 0,000 mm 1,2 UV-I 236 W/m 3,5 C -1,7 C 25,7 km/h (4 Bft) 100,00 %
28.02.2016 12:27 6,7 C 80 % 1008,2 hPa 0,0 l/m 18,7 km/h (3 Bft) NO 54 0 min 0,000 mm 1,2 UV-I 238 W/m 3,5 C -0,5 C 25,7 km/h (4 Bft) 100,00 %
28.02.2016 12:28 6,7 C 80 % 1008,2 hPa 0,0 l/m 22,1 km/h (4 Bft) O-NO 71 0 min 0,000 mm 1,2 UV-I 241 W/m 3,5 C -1,7 C 27,4 km/h (4 Bft) 100,00 %
28.02.2016 12:29 6,8 C 80 % 1008,1 hPa 0,0 l/m 20,5 km/h (4 Bft) O-NO 74 0 min 0,000 mm 1,2 UV-I 241 W/m 3,6 C -1,0 C 24,1 km/h (4 Bft) 100,00 %
28.02.2016 12:30 6,8 C 80 % 1008,1 hPa 0,0 l/m 21,6 km/h (4 Bft) NO 52 0 min 0,000 mm 1,2 UV-I 244 W/m 3,6 C -1,4 C 24,1 km/h (4 Bft) 100,00 %
28.02.2016 12:31 6,8 C 80 % 1008,1 hPa 0,0 l/m 18,3 km/h (3 Bft) O-NO 58 0 min 0,000 mm 1,3 UV-I 247 W/m 3,6 C -0,2 C 22,5 km/h (4 Bft) 100,00 %
28.02.2016 12:32 6,8 C 80 % 1008,1 hPa 0,0 l/m 22,9 km/h (4 Bft) NO 53 0 min 0,000 mm 1,3 UV-I 250 W/m 3,6 C -1,9 C 29,0 km/h (5 Bft) 95,83 %
28.02.2016 12:33 6,8 C 80 % 1008,1 hPa 0,0 l/m 20,9 km/h (4 Bft) O-NO 57 0 min 0,000 mm 1,3 UV-I 252 W/m 3,6 C -1,2 C 27,4 km/h (4 Bft) 100,00 %
28.02.2016 12:34 6,8 C 80 % 1008,0 hPa 0,0 l/m 22,3 km/h (4 Bft) O 80 0 min 0,000 mm 1,3 UV-I 255 W/m 3,6 C -1,7 C 27,4 km/h (4 Bft) 100,00 %
28.02.2016 12:35 6,8 C 80 % 1008,1 hPa 0,0 l/m 26,7 km/h (4 Bft) O-NO 65 0 min 0,000 mm 1,3 UV-I 255 W/m 3,6 C -3,0 C 30,6 km/h (5 Bft) 92,59 %
28.02.2016 12:36 6,8 C 80 % 1008,0 hPa 0,0 l/m 25,1 km/h (4 Bft) O 84 0 min 0,000 mm 1,3 UV-I 257 W/m 3,6 C -2,5 C 32,2 km/h (5 Bft) 100,00 %
28.02.2016 12:37 6,9 C 80 % 1008,0 hPa 0,0 l/m 23,2 km/h (4 Bft) O-NO 71 0 min 0,000 mm 1,3 UV-I 258 W/m 3,7 C -1,8 C 30,6 km/h (5 Bft) 100,00 %
28.02.2016 12:38 6,9 C 80 % 1008,0 hPa 0,0 l/m 19,2 km/h (3 Bft) O-NO 67 0 min 0,000 mm 1,3 UV-I 260 W/m 3,7 C -0,4 C 25,7 km/h (4 Bft) 100,00 %
28.02.2016 12:39 6,9 C 80 % 1008,0 hPa 0,0 l/m 20,4 km/h (4 Bft) O 83 0 min 0,000 mm 1,3 UV-I 263 W/m 3,7 C -0,9 C 25,7 km/h (4 Bft) 100,00 %
28.02.2016 12:40 6,9 C 81 % 1007,9 hPa 0,0 l/m 21,2 km/h (4 Bft) O 79 0 min 0,000 mm 1,3 UV-I 267 W/m 3,9 C -1,1 C 24,1 km/h (4 Bft) 100,00 %
28.02.2016 12:41 7,0 C 80 % 1008,0 hPa 0,0 l/m 24,1 km/h (4 Bft) O-NO 64 0 min 0,000 mm 1,3 UV-I 269 W/m 3,8 C -2,0 C 29,0 km/h (5 Bft) 100,00 %
28.02.2016 12:42 7,0 C 80 % 1008,0 hPa 0,0 l/m 21,0 km/h (4 Bft) O-NO 63 0 min 0,000 mm 1,3 UV-I 268 W/m 3,8 C -0,9 C 25,7 km/h (4 Bft) 100,00 %
28.02.2016 12:43 7,1 C 80 % 1008,0 hPa 0,0 l/m 16,8 km/h (3 Bft) O-NO 67 0 min 0,000 mm 1,3 UV-I 266 W/m 3,9 C 0,8 C 24,1 km/h (4 Bft) 100,00 %
28.02.2016 12:44 7,1 C 80 % 1007,9 hPa 0,0 l/m 20,7 km/h (4 Bft) O-NO 70 0 min 0,000 mm 1,3 UV-I 263 W/m 3,9 C -0,7 C 29,0 km/h (5 Bft) 100,00 %
28.02.2016 12:45 7,1 C 79 % 1007,9 hPa 0,0 l/m 21,6 km/h (4 Bft) O 84 0 min 0,000 mm 1,3 UV-I 259 W/m 3,7 C -1,0 C 25,7 km/h (4 Bft) 100,00 %
28.02.2016 12:46 7,1 C 79 % 1008,0 hPa 0,0 l/m 26,3 km/h (4 Bft) NO 54 0 min 0,000 mm 1,3 UV-I 257 W/m 3,7 C -2,5 C 32,2 km/h (5 Bft) 95,65 %
28.02.2016 12:47 7,2 C 79 % 1007,8 hPa 0,0 l/m 24,6 km/h (4 Bft) NO 48 0 min 0,000 mm 1,3 UV-I 255 W/m 3,8 C -1,8 C 30,6 km/h (5 Bft) 100,00 %
28.02.2016 12:48 7,2 C 79 % 1007,8 hPa 0,0 l/m 24,6 km/h (4 Bft) O-NO 59 0 min 0,000 mm 1,3 UV-I 257 W/m 3,8 C -1,8 C 30,6 km/h (5 Bft) 100,00 %
28.02.2016 12:49 7,2 C 79 % 1007,8 hPa 0,0 l/m 25,7 km/h (4 Bft) O-NO 68 0 min 0,000 mm 1,3 UV-I 259 W/m 3,8 C -2,2 C 30,6 km/h (5 Bft) 100,00 %
28.02.2016 12:50 7,2 C 79 % 1007,8 hPa 0,0 l/m 20,3 km/h (4 Bft) O-NO 60 0 min 0,000 mm 1,3 UV-I 260 W/m 3,8 C -0,4 C 25,7 km/h (4 Bft) 100,00 %
28.02.2016 12:51 7,2 C 79 % 1007,8 hPa 0,0 l/m 20,3 km/h (4 Bft) NO 49 0 min 0,000 mm 1,3 UV-I 263 W/m 3,8 C -0,4 C 25,7 km/h (4 Bft) 100,00 %
28.02.2016 12:52 7,2 C 79 % 1007,8 hPa 0,0 l/m 18,1 km/h (3 Bft) NO 55 0 min 0,000 mm 1,3 UV-I 272 W/m 3,8 C 0,4 C 20,9 km/h (4 Bft) 100,00 %
28.02.2016 12:53 7,2 C 80 % 1007,8 hPa 0,0 l/m 14,9 km/h (3 Bft) O-NO 59 0 min 0,000 mm 1,3 UV-I 280 W/m 4,0 C 1,8 C 17,7 km/h (3 Bft) 100,00 %
28.02.2016 12:54 7,3 C 80 % 1007,8 hPa 0,0 l/m 17,8 km/h (3 Bft) O-NO 78 0 min 0,000 mm 1,3 UV-I 285 W/m 4,1 C 0,6 C 25,7 km/h (4 Bft) 100,00 %
28.02.2016 12:55 7,3 C 80 % 1007,8 hPa 0,0 l/m 22,8 km/h (4 Bft) NO 52 0 min 0,000 mm 1,3 UV-I 286 W/m 4,1 C -1,2 C 32,2 km/h (5 Bft) 100,00 %
28.02.2016 12:56 7,3 C 79 % 1007,8 hPa 0,0 l/m 15,8 km/h (3 Bft) O 85 0 min 0,000 mm 1,3 UV-I 284 W/m 3,9 C 1,5 C 20,9 km/h (4 Bft) 100,00 %
28.02.2016 12:57 7,3 C 79 % 1007,8 hPa 0,0 l/m 23,7 km/h (4 Bft) O-NO 68 0 min 0,000 mm 1,3 UV-I 281 W/m 3,9 C -1,4 C 30,6 km/h (5 Bft) 100,00 %
28.02.2016 12:58 7,4 C 79 % 1007,8 hPa 0,0 l/m 21,3 km/h (4 Bft) O-NO 57 0 min 0,000 mm 1,3 UV-I 280 W/m 4,0 C -0,5 C 29,0 km/h (5 Bft) 95,83 %
28.02.2016 12:59 7,4 C 79 % 1007,8 hPa 0,0 l/m 20,3 km/h (4 Bft) O-NO 64 0 min 0,000 mm 1,3 UV-I 283 W/m 4,0 C -0,2 C 24,1 km/h (4 Bft) 100,00 %
28.02.2016 13:00 7,4 C 79 % 1007,8 hPa 0,0 l/m 19,6 km/h (3 Bft) O-NO 68 0 min 0,000 mm 1,3 UV-I 280 W/m 4,0 C 0,1 C 29,0 km/h (5 Bft) 100,00 %
28.02.2016 13:02 7,4 C 79 % 1007,7 hPa 0,0 l/m 19,9 km/h (4 Bft) NO 49 0 min 0,127 mm 1,3 UV-I 269 W/m 4,0 C -0,0 C 27,4 km/h (4 Bft) 100,00 %
28.02.2016 13:03 7,4 C 79 % 1007,7 hPa 0,0 l/m 25,3 km/h (4 Bft) NO 51 0 min 0,000 mm 1,3 UV-I 260 W/m 4,0 C -1,8 C 33,8 km/h (5 Bft) 96,15 %
28.02.2016 13:04 7,4 C 79 % 1007,7 hPa 0,0 l/m 24,1 km/h (4 Bft) O-NO 59 0 min 0,000 mm 1,3 UV-I 258 W/m 4,0 C -1,4 C 30,6 km/h (5 Bft) 100,00 %
28.02.2016 13:05 7,4 C 78 % 1007,7 hPa 0,0 l/m 22,0 km/h (4 Bft) O-NO 67 0 min 0,000 mm 1,3 UV-I 260 W/m 3,8 C -0,8 C 29,0 km/h (5 Bft) 100,00 %
28.02.2016 13:06 7,4 C 78 % 1007,7 hPa 0,0 l/m 21,6 km/h (4 Bft) NO 54 0 min 0,000 mm 1,3 UV-I 259 W/m 3,8 C -0,6 C 27,4 km/h (4 Bft) 100,00 %
28.02.2016 13:07 7,4 C 79 % 1007,7 hPa 0,0 l/m 21,9 km/h (4 Bft) O-NO 58 0 min 0,000 mm 1,3 UV-I 258 W/m 4,0 C -0,7 C 27,4 km/h (4 Bft) 100,00 %
28.02.2016 13:08 7,4 C 80 % 1007,7 hPa 0,0 l/m 22,4 km/h (4 Bft) O-NO 70 0 min 0,000 mm 1,2 UV-I 257 W/m 4,2 C -0,9 C 32,2 km/h (5 Bft) 100,00 %
28.02.2016 13:09 7,5 C 79 % 1007,6 hPa 0,0 l/m 19,5 km/h (3 Bft) O-NO 61 0 min 0,000 mm 1,2 UV-I 257 W/m 4,1 C 0,2 C 24,1 km/h (4 Bft) 96,15 %
28.02.2016 13:10 7,5 C 79 % 1007,7 hPa 0,0 l/m 19,3 km/h (3 Bft) O-NO 61 0 min 0,000 mm 1,2 UV-I 255 W/m 4,1 C 0,3 C 24,1 km/h (4 Bft) 100,00 %
28.02.2016 13:11 7,5 C 79 % 1007,7 hPa 0,0 l/m 19,7 km/h (3 Bft) O-NO 74 0 min 0,000 mm 1,2 UV-I 253 W/m 4,1 C 0,2 C 22,5 km/h (4 Bft) 100,00 %
28.02.2016 13:12 7,5 C 79 % 1007,7 hPa 0,0 l/m 17,6 km/h (3 Bft) O-NO 59 0 min 0,000 mm 1,2 UV-I 256 W/m 4,1 C 1,0 C 20,9 km/h (4 Bft) 100,00 %
28.02.2016 13:13 7,6 C 80 % 1007,6 hPa 0,0 l/m 17,8 km/h (3 Bft) O-NO 66 0 min 0,000 mm 1,2 UV-I 259 W/m 4,4 C 1,0 C 24,1 km/h (4 Bft) 100,00 %
28.02.2016 13:14 7,6 C 79 % 1007,7 hPa 0,0 l/m 21,6 km/h (4 Bft) O-NO 57 0 min 0,000 mm 1,2 UV-I 261 W/m 4,2 C -0,4 C 25,7 km/h (4 Bft) 100,00 %
28.02.2016 13:15 7,6 C 79 % 1007,6 hPa 0,0 l/m 23,0 km/h (4 Bft) NO 47 0 min 0,000 mm 1,2 UV-I 264 W/m 4,2 C -0,8 C 25,7 km/h (4 Bft) 100,00 %
28.02.2016 13:16 7,6 C 79 % 1007,6 hPa 0,0 l/m 18,1 km/h (3 Bft) O-NO 57 0 min 0,000 mm 1,2 UV-I 260 W/m 4,2 C 0,9 C 24,1 km/h (4 Bft) 100,00 %
28.02.2016 13:17 7,6 C 79 % 1007,7 hPa 0,0 l/m 18,9 km/h (3 Bft) NO 55 0 min 0,000 mm 1,2 UV-I 260 W/m 4,2 C 0,6 C 20,9 km/h (4 Bft) 100,00 %
28.02.2016 13:18 7,6 C 80 % 1007,6 hPa 0,0 l/m 18,6 km/h (3 Bft) O-NO 78 0 min 0,000 mm 1,2 UV-I 261 W/m 4,4 C 0,7 C 24,1 km/h (4 Bft) 100,00 %
28.02.2016 13:19 7,7 C 80 % 1007,7 hPa 0,0 l/m 14,6 km/h (3 Bft) O-NO 64 0 min 0,000 mm 1,2 UV-I 261 W/m 4,5 C 2,5 C 19,3 km/h (3 Bft) 100,00 %
28.02.2016 13:20 7,7 C 79 % 1007,6 hPa 0,0 l/m 18,2 km/h (3 Bft) O-NO 64 0 min 0,000 mm 1,2 UV-I 260 W/m 4,3 C 1,0 C 22,5 km/h (4 Bft) 100,00 %
28.02.2016 13:21 7,7 C 79 % 1007,6 hPa 0,0 l/m 20,6 km/h (4 Bft) NO 55 0 min 0,000 mm 1,2 UV-I 260 W/m 4,3 C 0,1 C 25,7 km/h (4 Bft) 96,30 %
28.02.2016 13:22 7,7 C 79 % 1007,5 hPa 0,0 l/m 17,2 km/h (3 Bft) O-NO 65 0 min 0,000 mm 1,2 UV-I 258 W/m 4,3 C 1,4 C 20,9 km/h (4 Bft) 100,00 %
28.02.2016 13:23 7,7 C 79 % 1007,6 hPa 0,0 l/m 17,2 km/h (3 Bft) O-NO 69 0 min 0,000 mm 1,2 UV-I 258 W/m 4,3 C 1,4 C 22,5 km/h (4 Bft) 100,00 %
28.02.2016 13:24 7,7 C 80 % 1007,6 hPa 0,0 l/m 14,6 km/h (3 Bft) NO 50 0 min 0,000 mm 1,2 UV-I 258 W/m 4,5 C 2,5 C 17,7 km/h (3 Bft) 100,00 %
28.02.2016 13:25 7,8 C 79 % 1007,6 hPa 0,0 l/m 15,4 km/h (3 Bft) NO 39 0 min 0,000 mm 1,2 UV-I 260 W/m 4,4 C 2,3 C 19,3 km/h (3 Bft) 100,00 %
28.02.2016 13:26 7,8 C 79 % 1007,6 hPa 0,0 l/m 17,4 km/h (3 Bft) NO 41 0 min 0,000 mm 1,2 UV-I 262 W/m 4,4 C 1,4 C 20,9 km/h (4 Bft) 100,00 %
28.02.2016 13:27 7,8 C 79 % 1007,6 hPa 0,0 l/m 12,8 km/h (3 Bft) NO 41 0 min 0,000 mm 1,2 UV-I 260 W/m 4,4 C 3,6 C 17,7 km/h (3 Bft) 100,00 %
28.02.2016 13:28 7,8 C 79 % 1007,6 hPa 0,0 l/m 14,8 km/h (3 Bft) NO 49 0 min 0,000 mm 1,2 UV-I 260 W/m 4,4 C 2,6 C 20,9 km/h (4 Bft) 100,00 %
28.02.2016 13:29 7,8 C 79 % 1007,6 hPa 0,0 l/m 18,7 km/h (3 Bft) O-NO 69 0 min 0,000 mm 1,2 UV-I 262 W/m 4,4 C 0,9 C 22,5 km/h (4 Bft) 100,00 %
28.02.2016 13:30 7,8 C 80 % 1007,6 hPa 0,0 l/m 21,9 km/h (4 Bft) O-NO 60 0 min 0,000 mm 1,2 UV-I 264 W/m 4,6 C -0,2 C 29,0 km/h (5 Bft) 100,00 %
28.02.2016 13:31 7,9 C 79 % 1007,6 hPa 0,0 l/m 16,0 km/h (3 Bft) O-NO 64 0 min 0,000 mm 1,2 UV-I 264 W/m 4,5 C 2,1 C 19,3 km/h (3 Bft) 100,00 %
28.02.2016 13:32 7,9 C 80 % 1007,6 hPa 0,0 l/m 16,0 km/h (3 Bft) O-NO 62 0 min 0,000 mm 1,2 UV-I 264 W/m 4,7 C 2,1 C 19,3 km/h (3 Bft) 100,00 %
28.02.2016 13:33 7,9 C 79 % 1007,6 hPa 0,0 l/m 13,3 km/h (3 Bft) NO 54 0 min 0,000 mm 1,1 UV-I 260 W/m 4,5 C 3,4 C 17,7 km/h (3 Bft) 100,00 %
28.02.2016 13:34 7,9 C 79 % 1007,6 hPa 0,0 l/m 11,1 km/h (2 Bft) NO 49 0 min 0,000 mm 1,1 UV-I 258 W/m 4,5 C 4,6 C 14,5 km/h (3 Bft) 100,00 %
28.02.2016 13:35 7,9 C 79 % 1007,6 hPa 0,0 l/m 17,5 km/h (3 Bft) NO 44 0 min 0,000 mm 1,1 UV-I 256 W/m 4,5 C 1,5 C 20,9 km/h (4 Bft) 100,00 %
28.02.2016 13:36 7,9 C 79 % 1007,6 hPa 0,0 l/m 17,2 km/h (3 Bft) NO 42 0 min 0,000 mm 1,1 UV-I 254 W/m 4,5 C 1,6 C 20,9 km/h (4 Bft) 100,00 %
28.02.2016 13:37 7,9 C 79 % 1007,5 hPa 0,0 l/m 15,1 km/h (3 Bft) O-NO 61 0 min 0,000 mm 1,1 UV-I 253 W/m 4,5 C 2,5 C 20,9 km/h (4 Bft) 100,00 %
28.02.2016 13:38 8,0 C 80 % 1007,5 hPa 0,0 l/m 14,7 km/h (3 Bft) NO 38 0 min 0,000 mm 1,1 UV-I 251 W/m 4,8 C 2,8 C 24,1 km/h (4 Bft) 100,00 %
28.02.2016 13:39 8,0 C 80 % 1007,5 hPa 0,0 l/m 19,9 km/h (4 Bft) O-NO 71 0 min 0,000 mm 1,1 UV-I 251 W/m 4,8 C 0,7 C 27,4 km/h (4 Bft) 100,00 %
28.02.2016 13:40 8,1 C 79 % 1007,6 hPa 0,0 l/m 12,5 km/h (3 Bft) NO 36 0 min 0,000 mm 1,1 UV-I 253 W/m 4,7 C 4,1 C 17,7 km/h (3 Bft) 100,00 %
28.02.2016 13:41 8,1 C 79 % 1007,6 hPa 0,0 l/m 15,2 km/h (3 Bft) N-NO 33 0 min 0,000 mm 1,1 UV-I 251 W/m 4,7 C 2,7 C 22,5 km/h (4 Bft) 100,00 %
28.02.2016 13:42 8,1 C 79 % 1007,6 hPa 0,0 l/m 12,7 km/h (3 Bft) NO 56 0 min 0,000 mm 1,1 UV-I 249 W/m 4,7 C 4,0 C 16,1 km/h (3 Bft) 100,00 %
28.02.2016 13:43 8,1 C 79 % 1007,5 hPa 0,0 l/m 16,8 km/h (3 Bft) N-NO 33 0 min 0,000 mm 1,1 UV-I 247 W/m 4,7 C 2,1 C 24,1 km/h (4 Bft) 98,68 %
28.02.2016 13:44 8,1 C 79 % 1007,6 hPa 0,0 l/m 16,0 km/h (3 Bft) O-NO 60 0 min 0,000 mm 1,1 UV-I 244 W/m 4,7 C 2,4 C 22,5 km/h (4 Bft) 100,00 %
28.02.2016 13:45 8,2 C 80 % 1007,6 hPa 0,0 l/m 10,1 km/h (2 Bft) NO 53 0 min 0,000 mm 1,1 UV-I 245 W/m 5,0 C 5,5 C 14,5 km/h (3 Bft) 100,00 %
28.02.2016 13:46 8,2 C 80 % 1007,5 hPa 0,0 l/m 10,5 km/h (2 Bft) O 88 0 min 0,000 mm 1,1 UV-I 243 W/m 5,0 C 5,3 C 16,1 km/h (3 Bft) 100,00 %
28.02.2016 13:47 8,2 C 80 % 1007,5 hPa 0,0 l/m 11,6 km/h (2 Bft) O-NO 60 0 min 0,000 mm 1,1 UV-I 241 W/m 5,0 C 4,7 C 16,1 km/h (3 Bft) 91,67 %
28.02.2016 13:48 8,2 C 79 % 1007,6 hPa 0,0 l/m 12,8 km/h (3 Bft) O-NO 73 0 min 0,000 mm 1,1 UV-I 239 W/m 4,8 C 4,0 C 17,7 km/h (3 Bft) 96,15 %
28.02.2016 13:49 8,2 C 78 % 1007,6 hPa 0,0 l/m 16,0 km/h (3 Bft) NO 53 0 min 0,000 mm 1,1 UV-I 239 W/m 4,6 C 2,5 C 19,3 km/h (3 Bft) 96,55 %
28.02.2016 13:50 8,2 C 78 % 1007,5 hPa 0,0 l/m 17,1 km/h (3 Bft) O-NO 59 0 min 0,000 mm 1,0 UV-I 237 W/m 4,6 C 2,1 C 24,1 km/h (4 Bft) 100,00 %
28.02.2016 13:51 8,2 C 79 % 1007,6 hPa 0,0 l/m 11,4 km/h (2 Bft) N-NO 25 0 min 0,000 mm 1,0 UV-I 234 W/m 4,8 C 4,8 C 16,1 km/h (3 Bft) 93,33 %
28.02.2016 13:52 8,3 C 79 % 1007,6 hPa 0,0 l/m 15,9 km/h (3 Bft) NO 52 0 min 0,000 mm 1,0 UV-I 231 W/m 4,9 C 2,7 C 22,5 km/h (4 Bft) 100,00 %
28.02.2016 13:53 8,3 C 79 % 1007,6 hPa 0,0 l/m 15,5 km/h (3 Bft) NO 53 0 min 0,000 mm 1,0 UV-I 229 W/m 4,9 C 2,9 C 19,3 km/h (3 Bft) 96,15 %
28.02.2016 13:54 8,3 C 78 % 1007,6 hPa 0,0 l/m 18,5 km/h (3 Bft) NO 43 0 min 0,000 mm 1,0 UV-I 228 W/m 4,7 C 1,6 C 24,1 km/h (4 Bft) 92,59 %
28.02.2016 13:55 8,3 C 78 % 1007,6 hPa 0,0 l/m 20,7 km/h (4 Bft) O-NO 66 0 min 0,000 mm 1,0 UV-I 227 W/m 4,7 C 0,9 C 24,1 km/h (4 Bft) 100,00 %
28.02.2016 13:56 8,3 C 78 % 1007,6 hPa 0,0 l/m 16,5 km/h (3 Bft) O-NO 60 0 min 0,000 mm 1,0 UV-I 227 W/m 4,7 C 2,4 C 19,3 km/h (3 Bft) 96,15 %
28.02.2016 13:57 8,3 C 78 % 1007,5 hPa 0,0 l/m 20,1 km/h (4 Bft) NO 48 0 min 0,000 mm 1,0 UV-I 225 W/m 4,7 C 1,1 C 29,0 km/h (5 Bft) 100,00 %
28.02.2016 13:58 8,3 C 78 % 1007,6 hPa 0,0 l/m 16,4 km/h (3 Bft) NO 44 0 min 0,000 mm 1,0 UV-I 225 W/m 4,7 C 2,5 C 25,7 km/h (4 Bft) 95,65 %
28.02.2016 13:59 8,3 C 79 % 1007,6 hPa 0,0 l/m 18,1 km/h (3 Bft) NO 53 0 min 0,000 mm 1,0 UV-I 225 W/m 4,9 C 1,8 C 22,5 km/h (4 Bft) 100,00 %
28.02.2016 14:00 8,3 C 78 % 1007,5 hPa 0,0 l/m 22,5 km/h (4 Bft) NO 44 0 min 0,152 mm 1,0 UV-I 225 W/m 4,7 C 0,3 C 27,4 km/h (4 Bft) 91,30 %
28.02.2016 14:02 8,3 C 78 % 1007,5 hPa 0,0 l/m 22,2 km/h (4 Bft) NO 42 0 min 0,000 mm 1,0 UV-I 225 W/m 4,7 C 0,4 C 29,0 km/h (5 Bft) 95,12 %
28.02.2016 14:03 8,3 C 78 % 1007,5 hPa 0,0 l/m 21,3 km/h (4 Bft) O 90 0 min 0,000 mm 0,9 UV-I 227 W/m 4,7 C 0,7 C 25,7 km/h (4 Bft) 96,30 %
28.02.2016 14:04 8,3 C 78 % 1007,6 hPa 0,0 l/m 17,8 km/h (3 Bft) O-NO 63 0 min 0,000 mm 0,9 UV-I 225 W/m 4,7 C 1,9 C 24,1 km/h (4 Bft) 96,55 %
28.02.2016 14:05 8,4 C 79 % 1007,5 hPa 0,0 l/m 24,2 km/h (4 Bft) NO 51 0 min 0,000 mm 0,9 UV-I 226 W/m 5,0 C -0,1 C 30,6 km/h (5 Bft) 100,00 %
28.02.2016 14:06 8,4 C 78 % 1007,5 hPa 0,0 l/m 23,3 km/h (4 Bft) NO 40 0 min 0,000 mm 0,9 UV-I 229 W/m 4,8 C 0,2 C 25,7 km/h (4 Bft) 96,55 %
28.02.2016 14:07 8,4 C 78 % 1007,5 hPa 0,0 l/m 23,6 km/h (4 Bft) O-NO 58 0 min 0,000 mm 0,9 UV-I 229 W/m 4,8 C 0,1 C 29,0 km/h (5 Bft) 96,30 %
28.02.2016 14:08 8,4 C 78 % 1007,5 hPa 0,0 l/m 23,0 km/h (4 Bft) NO 47 0 min 0,000 mm 0,9 UV-I 229 W/m 4,8 C 0,2 C 27,4 km/h (4 Bft) 100,00 %
28.02.2016 14:09 8,4 C 78 % 1007,5 hPa 0,0 l/m 25,5 km/h (4 Bft) O-NO 61 0 min 0,000 mm 0,9 UV-I 230 W/m 4,8 C -0,5 C 30,6 km/h (5 Bft) 96,15 %
28.02.2016 14:10 8,4 C 78 % 1007,4 hPa 0,0 l/m 23,7 km/h (4 Bft) O-NO 65 0 min 0,000 mm 0,9 UV-I 232 W/m 4,8 C 0,0 C 29,0 km/h (5 Bft) 100,00 %
28.02.2016 14:11 8,5 C 78 % 1007,4 hPa 0,0 l/m 23,9 km/h (4 Bft) O-NO 59 0 min 0,000 mm 0,9 UV-I 235 W/m 4,9 C 0,1 C 29,0 km/h (5 Bft) 95,83 %
28.02.2016 14:12 8,4 C 78 % 1007,5 hPa 0,0 l/m 20,5 km/h (4 Bft) O-NO 57 0 min 0,000 mm 0,9 UV-I 240 W/m 4,8 C 1,0 C 25,7 km/h (4 Bft) 86,96 %
28.02.2016 14:13 8,5 C 78 % 1007,3 hPa 0,0 l/m 19,9 km/h (4 Bft) NO 40 0 min 0,000 mm 0,9 UV-I 245 W/m 4,9 C 1,4 C 25,7 km/h (4 Bft) 100,00 %
28.02.2016 14:14 8,6 C 78 % 1007,4 hPa 0,0 l/m 22,9 km/h (4 Bft) O-NO 66 0 min 0,000 mm 0,9 UV-I 248 W/m 5,0 C 0,5 C 27,4 km/h (4 Bft) 100,00 %
28.02.2016 14:15 8,6 C 78 % 1007,5 hPa 0,0 l/m 23,5 km/h (4 Bft) O-NO 67 0 min 0,000 mm 0,9 UV-I 249 W/m 5,0 C 0,4 C 29,0 km/h (5 Bft) 95,65 %
28.02.2016 14:16 8,6 C 78 % 1007,4 hPa 0,0 l/m 17,1 km/h (3 Bft) O-NO 59 0 min 0,000 mm 0,9 UV-I 254 W/m 5,0 C 2,6 C 24,1 km/h (4 Bft) 95,83 %
28.02.2016 14:17 8,6 C 78 % 1007,4 hPa 0,0 l/m 22,5 km/h (4 Bft) NO 55 0 min 0,000 mm 0,9 UV-I 258 W/m 5,0 C 0,7 C 30,6 km/h (5 Bft) 100,00 %
28.02.2016 14:18 8,6 C 78 % 1007,4 hPa 0,0 l/m 20,7 km/h (4 Bft) O-NO 62 0 min 0,000 mm 0,9 UV-I 258 W/m 5,0 C 1,2 C 27,4 km/h (4 Bft) 93,33 %
28.02.2016 14:19 8,7 C 78 % 1007,5 hPa 0,0 l/m 20,2 km/h (4 Bft) O-NO 63 1 min 0,000 mm 0,9 UV-I 261 W/m 5,1 C 1,5 C 29,0 km/h (5 Bft) 100,00 %
28.02.2016 14:20 8,7 C 78 % 1007,4 hPa 0,0 l/m 15,2 km/h (3 Bft) NO 37 1 min 0,000 mm 0,9 UV-I 265 W/m 5,1 C 3,5 C 20,9 km/h (4 Bft) 95,12 %
28.02.2016 14:21 8,7 C 78 % 1007,4 hPa 0,0 l/m 19,5 km/h (3 Bft) NO 44 1 min 0,000 mm 1,0 UV-I 274 W/m 5,1 C 1,8 C 29,0 km/h (5 Bft) 96,15 %
28.02.2016 14:22 8,8 C 78 % 1007,4 hPa 0,0 l/m 19,0 km/h (3 Bft) O-NO 76 1 min 0,000 mm 1,0 UV-I 284 W/m 5,2 C 2,1 C 24,1 km/h (4 Bft) 100,00 %
28.02.2016 14:23 8,8 C 78 % 1007,5 hPa 0,0 l/m 20,4 km/h (4 Bft) O-NO 66 1 min 0,000 mm 1,0 UV-I 289 W/m 5,2 C 1,6 C 24,1 km/h (4 Bft) 100,00 %
28.02.2016 14:24 8,8 C 77 % 1007,4 hPa 0,0 l/m 20,0 km/h (4 Bft) NO 54 1 min 0,000 mm 1,0 UV-I 297 W/m 5,0 C 1,7 C 25,7 km/h (4 Bft) 100,00 %
28.02.2016 14:25 8,8 C 78 % 1007,4 hPa 0,0 l/m 14,9 km/h (3 Bft) NO 41 1 min 0,000 mm 1,0 UV-I 308 W/m 5,2 C 3,7 C 24,1 km/h (4 Bft) 100,00 %
28.02.2016 14:26 8,9 C 78 % 1007,4 hPa 0,0 l/m 20,6 km/h (4 Bft) NO 41 1 min 0,000 mm 1,0 UV-I 315 W/m 5,3 C 1,7 C 27,4 km/h (4 Bft) 95,83 %
28.02.2016 14:27 8,9 C 77 % 1007,4 hPa 0,0 l/m 20,8 km/h (4 Bft) N-NO 33 1 min 0,000 mm 1,0 UV-I 335 W/m 5,1 C 1,6 C 27,4 km/h (4 Bft) 100,00 %
28.02.2016 14:28 9,0 C 78 % 1007,5 hPa 0,0 l/m 20,8 km/h (4 Bft) NO 55 1 min 0,000 mm 1,0 UV-I 335 W/m 5,4 C 1,7 C 29,0 km/h (5 Bft) 100,00 %
28.02.2016 14:29 9,1 C 77 % 1007,4 hPa 0,0 l/m 20,0 km/h (4 Bft) NO 41 1 min 0,000 mm 1,0 UV-I 329 W/m 5,3 C 2,1 C 27,4 km/h (4 Bft) 96,15 %
28.02.2016 14:30 9,1 C 77 % 1007,5 hPa 0,0 l/m 20,0 km/h (4 Bft) O-NO 57 1 min 0,000 mm 1,0 UV-I 324 W/m 5,3 C 2,1 C 27,4 km/h (4 Bft) 100,00 %
28.02.2016 14:31 9,1 C 77 % 1007,5 hPa 0,0 l/m 17,5 km/h (3 Bft) NO 38 1 min 0,000 mm 1,0 UV-I 308 W/m 5,3 C 3,0 C 25,7 km/h (4 Bft) 100,00 %
28.02.2016 14:32 9,2 C 77 % 1007,5 hPa 0,0 l/m 21,9 km/h (4 Bft) NO 54 1 min 0,000 mm 1,0 UV-I 301 W/m 5,4 C 1,6 C 25,7 km/h (4 Bft) 100,00 %
28.02.2016 14:33 9,2 C 77 % 1007,5 hPa 0,0 l/m 21,8 km/h (4 Bft) NO 48 1 min 0,000 mm 1,0 UV-I 297 W/m 5,4 C 1,7 C 25,7 km/h (4 Bft) 100,00 %
28.02.2016 14:34 9,2 C 76 % 1007,5 hPa 0,0 l/m 19,8 km/h (3 Bft) NO 45 1 min 0,000 mm 1,0 UV-I 292 W/m 5,2 C 2,3 C 27,4 km/h (4 Bft) 100,00 %
28.02.2016 14:35 9,2 C 76 % 1007,4 hPa 0,0 l/m 23,2 km/h (4 Bft) NO 35 1 min 0,000 mm 1,0 UV-I 285 W/m 5,2 C 1,3 C 30,6 km/h (5 Bft) 100,00 %
28.02.2016 14:36 9,2 C 76 % 1007,4 hPa 0,0 l/m 19,8 km/h (3 Bft) NO 42 1 min 0,000 mm 0,9 UV-I 279 W/m 5,2 C 2,3 C 24,1 km/h (4 Bft) 100,00 %
28.02.2016 14:37 9,2 C 76 % 1007,4 hPa 0,0 l/m 19,9 km/h (4 Bft) NO 50 1 min 0,000 mm 0,9 UV-I 272 W/m 5,2 C 2,3 C 22,5 km/h (4 Bft) 100,00 %
28.02.2016 14:38 9,2 C 76 % 1007,5 hPa 0,0 l/m 15,4 km/h (3 Bft) NO 47 1 min 0,000 mm 0,9 UV-I 264 W/m 5,2 C 4,0 C 20,9 km/h (4 Bft) 95,65 %
28.02.2016 14:39 9,2 C 77 % 1007,5 hPa 0,0 l/m 18,4 km/h (3 Bft) NO 55 1 min 0,000 mm 0,9 UV-I 263 W/m 5,4 C 2,8 C 24,1 km/h (4 Bft) 100,00 %
28.02.2016 14:40 9,3 C 77 % 1007,5 hPa 0,0 l/m 16,7 km/h (3 Bft) NO 42 1 min 0,000 mm 0,9 UV-I 247 W/m 5,5 C 3,6 C 22,5 km/h (4 Bft) 100,00 %
28.02.2016 14:41 9,3 C 76 % 1007,5 hPa 0,0 l/m 21,8 km/h (4 Bft) NO 46 0 min 0,000 mm 0,9 UV-I 235 W/m 5,3 C 1,8 C 32,2 km/h (5 Bft) 100,00 %
28.02.2016 14:42 9,3 C 76 % 1007,5 hPa 0,0 l/m 19,7 km/h (3 Bft) O-NO 60 0 min 0,000 mm 0,8 UV-I 230 W/m 5,3 C 2,5 C 24,1 km/h (4 Bft) 100,00 %
28.02.2016 14:43 9,3 C 76 % 1007,5 hPa 0,0 l/m 19,2 km/h (3 Bft) NO 35 0 min 0,000 mm 0,8 UV-I 230 W/m 5,3 C 2,7 C 24,1 km/h (4 Bft) 100,00 %
28.02.2016 14:44 9,3 C 76 % 1007,5 hPa 0,0 l/m 18,5 km/h (3 Bft) O-NO 61 1 min 0,000 mm 0,8 UV-I 238 W/m 5,3 C 2,9 C 22,5 km/h (4 Bft) 98,60 %
28.02.2016 14:45 9,3 C 76 % 1007,5 hPa 0,0 l/m 18,8 km/h (3 Bft) NO 36 0 min 0,000 mm 0,8 UV-I 230 W/m 5,3 C 2,8 C 24,1 km/h (4 Bft) 100,00 %
28.02.2016 14:46 9,3 C 76 % 1007,5 hPa 0,0 l/m 20,8 km/h (4 Bft) NO 40 0 min 0,000 mm 0,8 UV-I 224 W/m 5,3 C 2,1 C 29,0 km/h (5 Bft) 100,00 %
28.02.2016 14:47 9,3 C 76 % 1007,5 hPa 0,0 l/m 19,5 km/h (3 Bft) O-NO 63 0 min 0,000 mm 0,8 UV-I 229 W/m 5,3 C 2,6 C 25,7 km/h (4 Bft) 100,00 %
28.02.2016 14:48 9,3 C 76 % 1007,5 hPa 0,0 l/m 15,8 km/h (3 Bft) NO 56 0 min 0,000 mm 0,8 UV-I 230 W/m 5,3 C 3,9 C 22,5 km/h (4 Bft) 100,00 %
28.02.2016 14:49 9,3 C 77 % 1007,5 hPa 0,0 l/m 15,9 km/h (3 Bft) NO 54 0 min 0,000 mm 0,8 UV-I 230 W/m 5,5 C 3,9 C 19,3 km/h (3 Bft) 100,00 %
28.02.2016 14:50 9,3 C 77 % 1007,5 hPa 0,0 l/m 14,8 km/h (3 Bft) NO 43 0 min 0,000 mm 0,8 UV-I 224 W/m 5,5 C 4,4 C 19,3 km/h (3 Bft) 100,00 %
28.02.2016 14:51 9,3 C 77 % 1007,5 hPa 0,0 l/m 18,7 km/h (3 Bft) O-NO 66 0 min 0,000 mm 0,8 UV-I 222 W/m 5,5 C 2,8 C 22,5 km/h (4 Bft) 98,61 %
28.02.2016 14:52 9,4 C 76 % 1007,5 hPa 0,0 l/m 18,1 km/h (3 Bft) O-NO 58 0 min 0,000 mm 0,8 UV-I 220 W/m 5,4 C 3,2 C 24,1 km/h (4 Bft) 100,00 %
28.02.2016 14:53 9,4 C 76 % 1007,5 hPa 0,0 l/m 18,2 km/h (3 Bft) O-NO 75 0 min 0,000 mm 0,8 UV-I 215 W/m 5,4 C 3,1 C 22,5 km/h (4 Bft) 100,00 %
28.02.2016 14:54 9,4 C 76 % 1007,5 hPa 0,0 l/m 16,2 km/h (3 Bft) NO 41 0 min 0,000 mm 0,7 UV-I 210 W/m 5,4 C 3,9 C 20,9 km/h (4 Bft) 98,62 %
28.02.2016 14:55 9,4 C 76 % 1007,5 hPa 0,0 l/m 16,5 km/h (3 Bft) O 86 0 min 0,000 mm 0,7 UV-I 207 W/m 5,4 C 3,8 C 24,1 km/h (4 Bft) 100,00 %
28.02.2016 14:56 9,4 C 77 % 1007,5 hPa 0,0 l/m 16,5 km/h (3 Bft) O-NO 76 0 min 0,000 mm 0,7 UV-I 211 W/m 5,6 C 3,8 C 22,5 km/h (4 Bft) 100,00 %
28.02.2016 14:57 9,4 C 76 % 1007,6 hPa 0,0 l/m 15,5 km/h (3 Bft) O-NO 58 0 min 0,000 mm 0,7 UV-I 212 W/m 5,4 C 4,2 C 19,3 km/h (3 Bft) 100,00 %
28.02.2016 14:58 9,4 C 76 % 1007,6 hPa 0,0 l/m 14,4 km/h (3 Bft) NO 45 0 min 0,000 mm 0,7 UV-I 211 W/m 5,4 C 4,7 C 20,9 km/h (4 Bft) 96,67 %
28.02.2016 14:59 9,5 C 76 % 1007,6 hPa 0,0 l/m 12,2 km/h (2 Bft) O 85 0 min 0,000 mm 0,7 UV-I 209 W/m 5,5 C 5,8 C 16,1 km/h (3 Bft) 100,00 %
28.02.2016 15:00 9,5 C 76 % 1007,5 hPa 0,0 l/m 17,1 km/h (3 Bft) NO 49 0 min 0,000 mm 0,7 UV-I 210 W/m 5,5 C 3,7 C 22,5 km/h (4 Bft) 96,30 %
28.02.2016 15:01 9,5 C 76 % 1007,6 hPa 0,0 l/m 18,4 km/h (3 Bft) NO 53 0 min 0,152 mm 0,7 UV-I 213 W/m 5,5 C 3,2 C 24,1 km/h (4 Bft) 100,00 %
28.02.2016 15:02 9,5 C 76 % 1007,5 hPa 0,0 l/m 18,3 km/h (3 Bft) N-NO 23 0 min 0,000 mm 0,7 UV-I 214 W/m 5,5 C 3,2 C 24,1 km/h (4 Bft) 100,00 %
28.02.2016 15:03 9,5 C 75 % 1007,5 hPa 0,0 l/m 20,1 km/h (4 Bft) NO 38 0 min 0,000 mm 0,7 UV-I 216 W/m 5,3 C 2,6 C 25,7 km/h (4 Bft) 96,15 %
28.02.2016 15:04 9,5 C 76 % 1007,4 hPa 0,0 l/m 14,9 km/h (3 Bft) O-NO 65 1 min 0,000 mm 0,7 UV-I 218 W/m 5,5 C 4,6 C 20,9 km/h (4 Bft) 100,00 %
28.02.2016 15:05 9,5 C 76 % 1007,5 hPa 0,0 l/m 16,9 km/h (3 Bft) NO 47 1 min 0,000 mm 0,7 UV-I 220 W/m 5,5 C 3,8 C 20,9 km/h (4 Bft) 100,00 %
28.02.2016 15:06 9,6 C 76 % 1007,5 hPa 0,0 l/m 19,4 km/h (3 Bft) O-NO 61 1 min 0,000 mm 0,7 UV-I 223 W/m 5,6 C 3,0 C 24,1 km/h (4 Bft) 100,00 %
28.02.2016 15:07 9,6 C 75 % 1007,5 hPa 0,0 l/m 17,1 km/h (3 Bft) NO 53 1 min 0,000 mm 0,7 UV-I 229 W/m 5,4 C 3,8 C 20,9 km/h (4 Bft) 93,33 %
28.02.2016 15:08 9,6 C 76 % 1007,4 hPa 0,0 l/m 16,7 km/h (3 Bft) O-NO 63 1 min 0,000 mm 0,7 UV-I 230 W/m 5,6 C 4,0 C 19,3 km/h (3 Bft) 100,00 %
28.02.2016 15:09 9,6 C 76 % 1007,4 hPa 0,0 l/m 17,0 km/h (3 Bft) NO 46 1 min 0,000 mm 0,7 UV-I 234 W/m 5,6 C 3,8 C 24,1 km/h (4 Bft) 100,00 %
28.02.2016 15:10 9,6 C 76 % 1007,3 hPa 0,0 l/m 24,5 km/h (4 Bft) NO 36 1 min 0,000 mm 0,7 UV-I 241 W/m 5,6 C 1,4 C 27,4 km/h (4 Bft) 100,00 %
28.02.2016 15:11 9,6 C 76 % 1007,4 hPa 0,0 l/m 16,0 km/h (3 Bft) NO 45 1 min 0,000 mm 0,7 UV-I 247 W/m 5,6 C 4,2 C 20,9 km/h (4 Bft) 100,00 %
28.02.2016 15:12 9,7 C 76 % 1007,4 hPa 0,0 l/m 14,7 km/h (3 Bft) NO 36 1 min 0,000 mm 0,7 UV-I 250 W/m 5,7 C 4,9 C 20,9 km/h (4 Bft) 100,00 %
28.02.2016 15:13 9,7 C 76 % 1007,4 hPa 0,0 l/m 18,5 km/h (3 Bft) N-NO 26 1 min 0,000 mm 0,7 UV-I 251 W/m 5,7 C 3,4 C 25,7 km/h (4 Bft) 100,00 %
28.02.2016 15:14 9,7 C 76 % 1007,4 hPa 0,0 l/m 14,8 km/h (3 Bft) N-NO 32 1 min 0,000 mm 0,7 UV-I 257 W/m 5,7 C 4,9 C 19,3 km/h (3 Bft) 100,00 %
28.02.2016 15:15 9,7 C 76 % 1007,4 hPa 0,0 l/m 11,5 km/h (2 Bft) O-NO 65 1 min 0,000 mm 0,7 UV-I 255 W/m 5,7 C 6,4 C 17,7 km/h (3 Bft) 96,67 %
28.02.2016 15:16 9,8 C 75 % 1007,5 hPa 0,0 l/m 14,1 km/h (3 Bft) O-NO 71 1 min 0,000 mm 0,7 UV-I 245 W/m 5,6 C 5,3 C 17,7 km/h (3 Bft) 100,00 %
28.02.2016 15:17 9,8 C 75 % 1007,5 hPa 0,0 l/m 13,0 km/h (3 Bft) O-NO 63 1 min 0,000 mm 0,7 UV-I 224 W/m 5,6 C 5,8 C 17,7 km/h (3 Bft) 100,00 %
28.02.2016 15:18 9,8 C 75 % 1007,4 hPa 0,0 l/m 13,5 km/h (3 Bft) O-NO 69 1 min 0,000 mm 0,7 UV-I 230 W/m 5,6 C 5,6 C 17,7 km/h (3 Bft) 100,00 %
28.02.2016 15:19 9,8 C 75 % 1007,4 hPa 0,0 l/m 14,2 km/h (3 Bft) NO 39 1 min 0,000 mm 0,7 UV-I 245 W/m 5,6 C 5,2 C 19,3 km/h (3 Bft) 100,00 %
28.02.2016 15:20 9,8 C 76 % 1007,4 hPa 0,0 l/m 21,5 km/h (4 Bft) NO 42 1 min 0,000 mm 0,7 UV-I 248 W/m 5,8 C 2,6 C 25,7 km/h (4 Bft) 92,31 %
28.02.2016 15:21 9,8 C 76 % 1007,4 hPa 0,0 l/m 19,5 km/h (3 Bft) N-NO 32 1 min 0,000 mm 0,7 UV-I 248 W/m 5,8 C 3,2 C 22,5 km/h (4 Bft) 100,00 %
28.02.2016 15:22 9,8 C 75 % 1007,4 hPa 0,0 l/m 18,2 km/h (3 Bft) NO 53 1 min 0,000 mm 0,7 UV-I 240 W/m 5,6 C 3,6 C 27,4 km/h (4 Bft) 100,00 %
28.02.2016 15:23 9,8 C 75 % 1007,3 hPa 0,0 l/m 15,7 km/h (3 Bft) NO 52 1 min 0,000 mm 0,6 UV-I 238 W/m 5,6 C 4,6 C 20,9 km/h (4 Bft) 91,67 %
28.02.2016 15:24 9,8 C 75 % 1007,3 hPa 0,0 l/m 11,7 km/h (2 Bft) NO 55 1 min 0,000 mm 0,6 UV-I 251 W/m 5,6 C 6,4 C 16,1 km/h (3 Bft) 100,00 %
28.02.2016 15:25 9,8 C 75 % 1007,4 hPa 0,0 l/m 10,9 km/h (2 Bft) N-NO 26 1 min 0,000 mm 0,6 UV-I 256 W/m 5,6 C 6,9 C 14,5 km/h (3 Bft) 100,00 %
28.02.2016 15:26 9,8 C 76 % 1007,4 hPa 0,0 l/m 18,6 km/h (3 Bft) N-NO 24 1 min 0,000 mm 0,6 UV-I 244 W/m 5,8 C 3,5 C 24,1 km/h (4 Bft) 95,65 %
28.02.2016 15:27 9,8 C 76 % 1007,4 hPa 0,0 l/m 23,1 km/h (4 Bft) N-NO 27 1 min 0,000 mm 0,6 UV-I 233 W/m 5,8 C 2,1 C 33,8 km/h (5 Bft) 100,00 %
28.02.2016 15:28 9,8 C 75 % 1007,4 hPa 0,0 l/m 21,4 km/h (4 Bft) N-NO 27 1 min 0,000 mm 0,6 UV-I 224 W/m 5,6 C 2,6 C 27,4 km/h (4 Bft) 100,00 %
28.02.2016 15:29 9,8 C 75 % 1007,5 hPa 0,0 l/m 21,4 km/h (4 Bft) N-NO 33 1 min 0,000 mm 0,6 UV-I 206 W/m 5,6 C 2,6 C 27,4 km/h (4 Bft) 100,00 %
28.02.2016 15:30 9,8 C 76 % 1007,5 hPa 0,0 l/m 21,2 km/h (4 Bft) N 355 1 min 0,000 mm 0,6 UV-I 188 W/m 5,8 C 2,6 C 25,7 km/h (4 Bft) 100,00 %
28.02.2016 15:31 9,8 C 75 % 1007,4 hPa 0,0 l/m 22,2 km/h (4 Bft) NO 43 0 min 0,000 mm 0,5 UV-I 170 W/m 5,6 C 2,3 C 27,4 km/h (4 Bft) 96,15 %
28.02.2016 15:32 9,7 C 75 % 1007,5 hPa 0,0 l/m 17,8 km/h (3 Bft) NO 36 0 min 0,000 mm 0,5 UV-I 164 W/m 5,5 C 3,7 C 24,1 km/h (4 Bft) 96,30 %
28.02.2016 15:33 9,7 C 76 % 1007,4 hPa 0,0 l/m 16,6 km/h (3 Bft) NO 38 0 min 0,000 mm 0,5 UV-I 167 W/m 5,7 C 4,1 C 25,7 km/h (4 Bft) 100,00 %
28.02.2016 15:34 9,7 C 75 % 1007,4 hPa 0,0 l/m 9,8 km/h (2 Bft) NO 50 0 min 0,000 mm 0,5 UV-I 172 W/m 5,5 C 7,4 C 14,5 km/h (3 Bft) 100,00 %
28.02.2016 15:35 9,7 C 76 % 1007,5 hPa 0,0 l/m 8,5 km/h (2 Bft) NO 34 1 min 0,000 mm 0,5 UV-I 188 W/m 5,7 C 8,2 C 12,9 km/h (3 Bft) 92,86 %
28.02.2016 15:36 9,7 C 76 % 1007,4 hPa 0,0 l/m 14,9 km/h (3 Bft) NO 45 1 min 0,000 mm 0,5 UV-I 197 W/m 5,7 C 4,8 C 20,9 km/h (4 Bft) 100,00 %
28.02.2016 15:37 9,7 C 75 % 1007,4 hPa 0,0 l/m 14,9 km/h (3 Bft) NO 49 1 min 0,000 mm 0,5 UV-I 188 W/m 5,5 C 4,8 C 19,3 km/h (3 Bft) 100,00 %
28.02.2016 15:38 9,8 C 76 % 1007,3 hPa 0,0 l/m 14,1 km/h (3 Bft) NO 46 1 min 0,000 mm 0,5 UV-I 189 W/m 5,8 C 5,3 C 19,3 km/h (3 Bft) 100,00 %
28.02.2016 15:39 9,8 C 76 % 1007,4 hPa 0,0 l/m 16,6 km/h (3 Bft) O-NO 58 1 min 0,000 mm 0,5 UV-I 191 W/m 5,8 C 4,2 C 22,5 km/h (4 Bft) 100,00 %
28.02.2016 15:40 9,8 C 74 % 1007,4 hPa 0,0 l/m 22,3 km/h (4 Bft) NO 40 1 min 0,000 mm 0,5 UV-I 189 W/m 5,4 C 2,3 C 32,2 km/h (5 Bft) 100,00 %
28.02.2016 15:41 9,8 C 75 % 1007,4 hPa 0,0 l/m 23,3 km/h (4 Bft) O-NO 60 1 min 0,000 mm 0,5 UV-I 186 W/m 5,6 C 2,0 C 29,0 km/h (5 Bft) 96,15 %
28.02.2016 15:42 9,8 C 75 % 1007,4 hPa 0,0 l/m 18,5 km/h (3 Bft) NO 36 1 min 0,000 mm 0,5 UV-I 176 W/m 5,6 C 3,5 C 22,5 km/h (4 Bft) 96,30 %
28.02.2016 15:43 9,8 C 74 % 1007,4 hPa 0,0 l/m 19,5 km/h (3 Bft) N-NO 31 1 min 0,000 mm 0,5 UV-I 172 W/m 5,4 C 3,2 C 24,1 km/h (4 Bft) 100,00 %
28.02.2016 15:44 9,8 C 75 % 1007,4 hPa 0,0 l/m 17,6 km/h (3 Bft) NO 40 0 min 0,000 mm 0,5 UV-I 160 W/m 5,6 C 3,9 C 20,9 km/h (4 Bft) 95,83 %
28.02.2016 15:45 9,8 C 75 % 1007,3 hPa 0,0 l/m 24,5 km/h (4 Bft) N-NO 28 0 min 0,000 mm 0,0 UV-I 147 W/m 5,6 C 1,7 C 33,8 km/h (5 Bft) 100,00 %
28.02.2016 15:46 9,7 C 74 % 1007,3 hPa 0,0 l/m 24,4 km/h (4 Bft) O-NO 70 0 min 0,000 mm 0,0 UV-I 149 W/m 5,3 C 1,6 C 30,6 km/h (5 Bft) 96,15 %
28.02.2016 15:47 9,7 C 74 % 1007,3 hPa 0,0 l/m 19,3 km/h (3 Bft) N-NO 28 0 min 0,000 mm 0,0 UV-I 157 W/m 5,3 C 3,1 C 27,4 km/h (4 Bft) 96,15 %
28.02.2016 15:48 9,7 C 74 % 1007,3 hPa 0,0 l/m 16,3 km/h (3 Bft) NO 40 0 min 0,000 mm 0,0 UV-I 150 W/m 5,3 C 4,2 C 20,9 km/h (4 Bft) 96,30 %
28.02.2016 15:49 9,7 C 74 % 1007,4 hPa 0,0 l/m 18,3 km/h (3 Bft) O-NO 69 0 min 0,000 mm 0,0 UV-I 155 W/m 5,3 C 3,5 C 22,5 km/h (4 Bft) 95,65 %
28.02.2016 15:50 9,8 C 74 % 1007,4 hPa 0,0 l/m 15,8 km/h (3 Bft) O-NO 58 0 min 0,000 mm 0,0 UV-I 156 W/m 5,4 C 4,6 C 25,7 km/h (4 Bft) 100,00 %
28.02.2016 15:51 9,8 C 75 % 1007,3 hPa 0,0 l/m 17,9 km/h (3 Bft) N-NO 27 1 min 0,000 mm 0,0 UV-I 160 W/m 5,6 C 3,8 C 25,7 km/h (4 Bft) 98,62 %
28.02.2016 15:52 9,8 C 75 % 1007,3 hPa 0,0 l/m 12,9 km/h (3 Bft) NO 45 0 min 0,000 mm 0,0 UV-I 156 W/m 5,6 C 5,8 C 17,7 km/h (3 Bft) 97,73 %
28.02.2016 15:53 9,8 C 75 % 1007,3 hPa 0,0 l/m 10,6 km/h (2 Bft) N-NO 32 0 min 0,000 mm 0,0 UV-I 155 W/m 5,6 C 7,0 C 16,1 km/h (3 Bft) 95,83 %
28.02.2016 15:54 9,8 C 75 % 1007,3 hPa 0,0 l/m 14,8 km/h (3 Bft) O-NO 59 0 min 0,000 mm 0,0 UV-I 155 W/m 5,6 C 5,0 C 22,5 km/h (4 Bft) 100,00 %
28.02.2016 15:55 9,8 C 74 % 1007,3 hPa 0,0 l/m 19,1 km/h (3 Bft) NO 42 0 min 0,000 mm 0,0 UV-I 153 W/m 5,4 C 3,3 C 24,1 km/h (4 Bft) 95,83 %
28.02.2016 15:56 9,8 C 74 % 1007,2 hPa 0,0 l/m 15,9 km/h (3 Bft) N-NO 19 0 min 0,000 mm 0,0 UV-I 153 W/m 5,4 C 4,5 C 22,5 km/h (4 Bft) 100,00 %
28.02.2016 15:57 9,8 C 75 % 1007,2 hPa 0,0 l/m 10,1 km/h (2 Bft) N-NO 20 0 min 0,000 mm 0,0 UV-I 151 W/m 5,6 C 7,3 C 16,1 km/h (3 Bft) 95,83 %
28.02.2016 15:58 9,8 C 75 % 1007,2 hPa 0,0 l/m 12,3 km/h (3 Bft) N-NO 20 0 min 0,000 mm 0,0 UV-I 147 W/m 5,6 C 6,1 C 19,3 km/h (3 Bft) 96,88 %
28.02.2016 15:59 9,8 C 75 % 1007,2 hPa 0,0 l/m 19,6 km/h (3 Bft) NO 43 0 min 0,000 mm 0,0 UV-I 146 W/m 5,6 C 3,2 C 25,7 km/h (4 Bft) 100,00 %
28.02.2016 16:00 9,8 C 76 % 1007,2 hPa 0,0 l/m 18,7 km/h (3 Bft) N-NO 18 0 min 0,127 mm 0,0 UV-I 142 W/m 5,8 C 3,5 C 25,7 km/h (4 Bft) 95,65 %
28.02.2016 16:02 9,8 C 75 % 1007,3 hPa 0,0 l/m 16,9 km/h (3 Bft) N 350 0 min 0,000 mm 0,0 UV-I 142 W/m 5,6 C 4,1 C 22,5 km/h (4 Bft) 94,00 %
28.02.2016 16:03 9,8 C 75 % 1007,2 hPa 0,0 l/m 14,7 km/h (3 Bft) N-NO 30 0 min 0,000 mm 0,0 UV-I 140 W/m 5,6 C 5,0 C 19,3 km/h (3 Bft) 100,00 %
28.02.2016 16:04 9,8 C 75 % 1007,2 hPa 0,0 l/m 18,3 km/h (3 Bft) NO 51 0 min 0,000 mm 0,0 UV-I 139 W/m 5,6 C 3,6 C 24,1 km/h (4 Bft) 94,12 %
28.02.2016 16:05 9,8 C 75 % 1007,2 hPa 0,0 l/m 13,1 km/h (3 Bft) NO 41 0 min 0,000 mm 0,0 UV-I 137 W/m 5,6 C 5,7 C 17,7 km/h (3 Bft) 100,00 %
28.02.2016 16:06 9,9 C 75 % 1007,2 hPa 0,0 l/m 10,9 km/h (2 Bft) NO 42 0 min 0,000 mm 0,0 UV-I 131 W/m 5,7 C 7,0 C 14,5 km/h (3 Bft) 95,24 %
28.02.2016 16:07 9,9 C 75 % 1007,2 hPa 0,0 l/m 15,3 km/h (3 Bft) NO 46 0 min 0,000 mm 0,0 UV-I 132 W/m 5,7 C 4,9 C 19,3 km/h (3 Bft) 96,30 %
28.02.2016 16:08 9,9 C 75 % 1007,2 hPa 0,0 l/m 13,8 km/h (3 Bft) NO 36 0 min 0,000 mm 0,0 UV-I 130 W/m 5,7 C 5,5 C 19,3 km/h (3 Bft) 100,00 %
28.02.2016 16:09 9,9 C 75 % 1007,3 hPa 0,0 l/m 16,9 km/h (3 Bft) N-NO 24 0 min 0,000 mm 0,0 UV-I 128 W/m 5,7 C 4,3 C 24,1 km/h (4 Bft) 93,10 %
28.02.2016 16:10 9,8 C 76 % 1007,3 hPa 0,0 l/m 11,2 km/h (2 Bft) N 350 0 min 0,000 mm 0,0 UV-I 127 W/m 5,8 C 6,7 C 14,5 km/h (3 Bft) 100,00 %
28.02.2016 16:11 9,8 C 76 % 1007,3 hPa 0,0 l/m 13,2 km/h (3 Bft) N-NO 29 0 min 0,000 mm 0,0 UV-I 127 W/m 5,8 C 5,7 C 19,3 km/h (3 Bft) 96,15 %
28.02.2016 16:12 9,8 C 76 % 1007,2 hPa 0,0 l/m 16,2 km/h (3 Bft) N-NO 12 0 min 0,000 mm 0,0 UV-I 125 W/m 5,8 C 4,4 C 22,5 km/h (4 Bft) 100,00 %
28.02.2016 16:13 9,8 C 76 % 1007,2 hPa 0,0 l/m 14,5 km/h (3 Bft) N-NO 14 0 min 0,000 mm 0,0 UV-I 122 W/m 5,8 C 5,1 C 19,3 km/h (3 Bft) 100,00 %
28.02.2016 16:14 9,8 C 76 % 1007,3 hPa 0,0 l/m 11,6 km/h (2 Bft) N-NO 32 0 min 0,000 mm 0,0 UV-I 116 W/m 5,8 C 6,5 C 17,7 km/h (3 Bft) 100,00 %
28.02.2016 16:15 9,7 C 76 % 1007,4 hPa 0,0 l/m 6,8 km/h (2 Bft) N-NO 30 0 min 0,000 mm 0,0 UV-I 111 W/m 5,7 C 9,4 C 12,9 km/h (3 Bft) 96,15 %
28.02.2016 16:16 9,7 C 76 % 1007,4 hPa 0,0 l/m 10,0 km/h (2 Bft) N-NO 19 0 min 0,000 mm 0,0 UV-I 105 W/m 5,7 C 7,3 C 14,5 km/h (3 Bft) 93,33 %
28.02.2016 16:17 9,7 C 76 % 1007,4 hPa 0,0 l/m 10,1 km/h (2 Bft) N-NO 15 0 min 0,000 mm 0,0 UV-I 104 W/m 5,7 C 7,2 C 14,5 km/h (3 Bft) 100,00 %
28.02.2016 16:18 9,6 C 76 % 1007,4 hPa 0,0 l/m 8,2 km/h (2 Bft) N-NO 15 0 min 0,000 mm 0,0 UV-I 102 W/m 5,6 C 8,3 C 16,1 km/h (3 Bft) 100,00 %
28.02.2016 16:19 9,6 C 76 % 1007,5 hPa 0,0 l/m 9,1 km/h (2 Bft) N-NO 33 0 min 0,000 mm 0,0 UV-I 100 W/m 5,6 C 7,7 C 16,1 km/h (3 Bft) 100,00 %
28.02.2016 16:20 9,6 C 76 % 1007,5 hPa 0,0 l/m 10,4 km/h (2 Bft) N-NO 32 0 min 0,000 mm 0,0 UV-I 100 W/m 5,6 C 6,9 C 16,1 km/h (3 Bft) 100,00 %
28.02.2016 16:21 9,5 C 76 % 1007,5 hPa 0,0 l/m 7,3 km/h (2 Bft) N-NO 17 0 min 0,000 mm 0,0 UV-I 101 W/m 5,5 C 8,8 C 12,9 km/h (3 Bft) 100,00 %
28.02.2016 16:22 9,4 C 76 % 1007,5 hPa 0,0 l/m 11,1 km/h (2 Bft) N-NO 19 0 min 0,000 mm 0,0 UV-I 102 W/m 5,4 C 6,3 C 16,1 km/h (3 Bft) 100,00 %
28.02.2016 16:23 9,4 C 75 % 1007,6 hPa 0,0 l/m 11,7 km/h (2 Bft) N-NO 23 0 min 0,000 mm 0,0 UV-I 100 W/m 5,2 C 6,0 C 17,7 km/h (3 Bft) 100,00 %
28.02.2016 16:24 9,4 C 75 % 1007,6 hPa 0,0 l/m 6,5 km/h (2 Bft) NO 42 0 min 0,000 mm 0,0 UV-I 98 W/m 5,2 C 9,4 C 11,3 km/h (2 Bft) 100,00 %
28.02.2016 16:25 9,4 C 76 % 1007,5 hPa 0,0 l/m 14,3 km/h (3 Bft) NO 35 0 min 0,000 mm 0,0 UV-I 98 W/m 5,4 C 4,7 C 19,3 km/h (3 Bft) 93,33 %
28.02.2016 16:26 9,3 C 77 % 1007,5 hPa 0,0 l/m 12,5 km/h (3 Bft) N 5 0 min 0,000 mm 0,0 UV-I 95 W/m 5,5 C 5,5 C 20,9 km/h (4 Bft) 100,00 %
28.02.2016 16:27 9,3 C 76 % 1007,6 hPa 0,0 l/m 13,7 km/h (3 Bft) N-NO 17 0 min 0,000 mm 0,0 UV-I 92 W/m 5,3 C 4,9 C 19,3 km/h (3 Bft) 100,00 %
28.02.2016 16:28 9,3 C 76 % 1007,6 hPa 0,0 l/m 10,3 km/h (2 Bft) N 5 0 min 0,000 mm 0,0 UV-I 90 W/m 5,3 C 6,6 C 17,7 km/h (3 Bft) 98,58 %
28.02.2016 16:29 9,2 C 76 % 1007,6 hPa 0,0 l/m 12,6 km/h (3 Bft) NO 39 0 min 0,000 mm 0,0 UV-I 86 W/m 5,2 C 5,3 C 14,5 km/h (3 Bft) 100,00 %
28.02.2016 16:30 9,2 C 77 % 1007,6 hPa 0,0 l/m 9,9 km/h (2 Bft) N-NO 15 0 min 0,000 mm 0,0 UV-I 84 W/m 5,4 C 6,8 C 16,1 km/h (3 Bft) 100,00 %
28.02.2016 16:31 9,2 C 76 % 1007,5 hPa 0,0 l/m 6,1 km/h (2 Bft) N-NO 18 0 min 0,000 mm 0,0 UV-I 82 W/m 5,2 C 9,2 C 11,3 km/h (2 Bft) 100,00 %
28.02.2016 16:32 9,2 C 76 % 1007,5 hPa 0,0 l/m 8,1 km/h (2 Bft) NO 38 0 min 0,000 mm 0,0 UV-I 81 W/m 5,2 C 7,9 C 16,1 km/h (3 Bft) 100,00 %
28.02.2016 16:33 9,1 C 76 % 1007,5 hPa 0,0 l/m 10,1 km/h (2 Bft) N-NO 28 0 min 0,000 mm 0,0 UV-I 80 W/m 5,1 C 6,5 C 14,5 km/h (3 Bft) 100,00 %
28.02.2016 16:34 9,1 C 76 % 1007,6 hPa 0,0 l/m 9,9 km/h (2 Bft) N-NO 28 0 min 0,000 mm 0,0 UV-I 77 W/m 5,1 C 6,7 C 16,1 km/h (3 Bft) 100,00 %
28.02.2016 16:35 9,1 C 76 % 1007,5 hPa 0,0 l/m 13,2 km/h (3 Bft) N 11 0 min 0,000 mm 0,0 UV-I 76 W/m 5,1 C 4,9 C 19,3 km/h (3 Bft) 100,00 %
28.02.2016 16:36 9,1 C 75 % 1007,5 hPa 0,0 l/m 8,7 km/h (2 Bft) N 9 0 min 0,000 mm 0,0 UV-I 73 W/m 4,9 C 7,4 C 19,3 km/h (3 Bft) 100,00 %
28.02.2016 16:37 9,1 C 75 % 1007,5 hPa 0,0 l/m 18,1 km/h (3 Bft) N-NO 18 0 min 0,000 mm 0,0 UV-I 71 W/m 4,9 C 2,8 C 22,5 km/h (4 Bft) 100,00 %
28.02.2016 16:38 9,0 C 75 % 1007,5 hPa 0,0 l/m 13,2 km/h (3 Bft) N-NO 13 0 min 0,000 mm 0,0 UV-I 69 W/m 4,8 C 4,8 C 20,9 km/h (4 Bft) 100,00 %
28.02.2016 16:39 9,0 C 75 % 1007,5 hPa 0,0 l/m 11,5 km/h (2 Bft) NO 36 0 min 0,000 mm 0,0 UV-I 69 W/m 4,8 C 5,6 C 17,7 km/h (3 Bft) 100,00 %
28.02.2016 16:40 8,9 C 75 % 1007,6 hPa 0,0 l/m 14,3 km/h (3 Bft) N 5 0 min 0,000 mm 0,0 UV-I 67 W/m 4,7 C 4,1 C 20,9 km/h (4 Bft) 100,00 %
28.02.2016 16:41 8,9 C 75 % 1007,6 hPa 0,0 l/m 16,3 km/h (3 Bft) N-NO 29 0 min 0,000 mm 0,0 UV-I 65 W/m 4,7 C 3,2 C 19,3 km/h (3 Bft) 100,00 %
28.02.2016 16:42 8,9 C 75 % 1007,5 hPa 0,0 l/m 10,9 km/h (2 Bft) N-NO 19 0 min 0,000 mm 0,0 UV-I 63 W/m 4,7 C 5,9 C 17,7 km/h (3 Bft) 100,00 %
28.02.2016 16:43 8,9 C 75 % 1007,5 hPa 0,0 l/m 14,6 km/h (3 Bft) N 9 0 min 0,000 mm 0,0 UV-I 62 W/m 4,7 C 4,0 C 17,7 km/h (3 Bft) 100,00 %
28.02.2016 16:46 8,8 C 75 % 1007,6 hPa 0,0 l/m 15,3 km/h (3 Bft) N 355 0 min 0,000 mm 0,0 UV-I 58 W/m 4,6 C 3,5 C 19,3 km/h (3 Bft) 100,00 %
28.02.2016 16:47 8,7 C 75 % 1007,6 hPa 0,0 l/m 7,7 km/h (2 Bft) N-NO 22 0 min 0,000 mm 0,0 UV-I 56 W/m 4,5 C 7,7 C 14,5 km/h (3 Bft) 100,00 %
28.02.2016 16:48 8,7 C 75 % 1007,6 hPa 0,0 l/m 13,1 km/h (3 Bft) N-NO 27 0 min 0,000 mm 0,0 UV-I 56 W/m 4,5 C 4,5 C 17,7 km/h (3 Bft) 100,00 %
28.02.2016 16:49 8,7 C 75 % 1007,6 hPa 0,0 l/m 16,2 km/h (3 Bft) N 350 0 min 0,000 mm 0,0 UV-I 54 W/m 4,5 C 3,0 C 22,5 km/h (4 Bft) 100,00 %
28.02.2016 16:50 8,7 C 75 % 1007,6 hPa 0,0 l/m 15,6 km/h (3 Bft) N-NO 24 0 min 0,000 mm 0,0 UV-I 53 W/m 4,5 C 3,3 C 24,1 km/h (4 Bft) 100,00 %
28.02.2016 16:51 8,7 C 75 % 1007,7 hPa 0,0 l/m 9,7 km/h (2 Bft) NO 48 0 min 0,000 mm 0,0 UV-I 53 W/m 4,5 C 6,3 C 19,3 km/h (3 Bft) 100,00 %
28.02.2016 16:52 8,6 C 75 % 1007,6 hPa 0,0 l/m 12,3 km/h (3 Bft) N-NO 32 0 min 0,000 mm 0,0 UV-I 51 W/m 4,4 C 4,7 C 20,9 km/h (4 Bft) 100,00 %
28.02.2016 16:53 8,6 C 75 % 1007,7 hPa 0,0 l/m 14,8 km/h (3 Bft) N-NO 30 0 min 0,000 mm 0,0 UV-I 51 W/m 4,4 C 3,5 C 20,9 km/h (4 Bft) 100,00 %
28.02.2016 16:54 8,6 C 75 % 1007,7 hPa 0,0 l/m 11,0 km/h (2 Bft) N-NO 24 0 min 0,000 mm 0,0 UV-I 49 W/m 4,4 C 5,5 C 16,1 km/h (3 Bft) 100,00 %
28.02.2016 16:55 8,5 C 75 % 1007,7 hPa 0,0 l/m 10,9 km/h (2 Bft) N 11 0 min 0,000 mm 0,0 UV-I 48 W/m 4,3 C 5,4 C 14,5 km/h (3 Bft) 100,00 %
28.02.2016 16:56 8,5 C 75 % 1007,7 hPa 0,0 l/m 19,9 km/h (4 Bft) N-NO 23 0 min 0,000 mm 0,0 UV-I 47 W/m 4,3 C 1,4 C 24,1 km/h (4 Bft) 100,00 %
28.02.2016 16:57 8,5 C 75 % 1007,7 hPa 0,0 l/m 15,4 km/h (3 Bft) N-NO 30 0 min 0,000 mm 0,0 UV-I 46 W/m 4,3 C 3,1 C 19,3 km/h (3 Bft) 100,00 %
28.02.2016 16:58 8,5 C 75 % 1007,7 hPa 0,0 l/m 14,1 km/h (3 Bft) N-NO 28 0 min 0,000 mm 0,0 UV-I 46 W/m 4,3 C 3,7 C 22,5 km/h (4 Bft) 100,00 %
28.02.2016 16:59 8,5 C 75 % 1007,7 hPa 0,0 l/m 21,3 km/h (4 Bft) N-NO 29 0 min 0,000 mm 0,0 UV-I 44 W/m 4,3 C 0,9 C 24,1 km/h (4 Bft) 100,00 %
28.02.2016 17:00 8,5 C 74 % 1007,7 hPa 0,0 l/m 18,7 km/h (3 Bft) N-NO 21 0 min 0,000 mm 0,0 UV-I 43 W/m 4,1 C 1,8 C 24,1 km/h (4 Bft) 96,30 %
28.02.2016 17:02 8,4 C 74 % 1007,8 hPa 0,0 l/m 17,9 km/h (3 Bft) N-NO 26 0 min 0,077 mm 0,0 UV-I 42 W/m 4,0 C 2,0 C 24,1 km/h (4 Bft) 100,00 %
28.02.2016 17:03 8,4 C 74 % 1007,8 hPa 0,0 l/m 15,8 km/h (3 Bft) N-NO 31 0 min 0,000 mm 0,0 UV-I 41 W/m 4,0 C 2,8 C 22,5 km/h (4 Bft) 100,00 %
28.02.2016 17:04 8,4 C 75 % 1007,8 hPa 0,0 l/m 13,4 km/h (3 Bft) N-NO 13 0 min 0,000 mm 0,0 UV-I 40 W/m 4,2 C 3,9 C 20,9 km/h (4 Bft) 100,00 %
28.02.2016 17:05 8,4 C 74 % 1007,7 hPa 0,0 l/m 16,8 km/h (3 Bft) N-NO 18 0 min 0,000 mm 0,0 UV-I 39 W/m 4,0 C 2,4 C 19,3 km/h (3 Bft) 100,00 %
28.02.2016 17:06 8,3 C 74 % 1007,8 hPa 0,0 l/m 15,0 km/h (3 Bft) NO 36 0 min 0,000 mm 0,0 UV-I 38 W/m 3,9 C 3,1 C 20,9 km/h (4 Bft) 100,00 %
28.02.2016 17:07 8,3 C 74 % 1007,8 hPa 0,0 l/m 18,6 km/h (3 Bft) N-NO 17 0 min 0,000 mm 0,0 UV-I 37 W/m 3,9 C 1,6 C 24,1 km/h (4 Bft) 96,55 %
28.02.2016 17:08 8,3 C 74 % 1007,8 hPa 0,0 l/m 17,8 km/h (3 Bft) N-NO 31 0 min 0,000 mm 0,0 UV-I 36 W/m 3,9 C 1,9 C 25,7 km/h (4 Bft) 100,00 %
28.02.2016 17:09 8,3 C 74 % 1007,8 hPa 0,0 l/m 17,6 km/h (3 Bft) N-NO 21 0 min 0,000 mm 0,0 UV-I 35 W/m 3,9 C 2,0 C 20,9 km/h (4 Bft) 100,00 %
28.02.2016 17:10 8,3 C 74 % 1007,8 hPa 0,0 l/m 20,3 km/h (4 Bft) NO 48 0 min 0,000 mm 0,0 UV-I 33 W/m 3,9 C 1,0 C 25,7 km/h (4 Bft) 100,00 %
28.02.2016 17:11 8,2 C 74 % 1007,8 hPa 0,0 l/m 15,7 km/h (3 Bft) NO 36 0 min 0,000 mm 0,0 UV-I 33 W/m 3,8 C 2,6 C 20,9 km/h (4 Bft) 100,00 %
28.02.2016 17:12 8,2 C 75 % 1007,8 hPa 0,0 l/m 15,3 km/h (3 Bft) NO 42 0 min 0,000 mm 0,0 UV-I 32 W/m 4,0 C 2,8 C 20,9 km/h (4 Bft) 100,00 %
28.02.2016 17:13 8,2 C 75 % 1007,8 hPa 0,0 l/m 13,5 km/h (3 Bft) NO 51 0 min 0,000 mm 0,0 UV-I 31 W/m 4,0 C 3,7 C 17,7 km/h (3 Bft) 100,00 %
28.02.2016 17:14 8,1 C 75 % 1007,8 hPa 0,0 l/m 16,0 km/h (3 Bft) NO 45 0 min 0,000 mm 0,0 UV-I 29 W/m 3,9 C 2,4 C 20,9 km/h (4 Bft) 100,00 %
28.02.2016 17:15 8,1 C 75 % 1007,9 hPa 0,0 l/m 12,6 km/h (3 Bft) N-NO 29 0 min 0,000 mm 0,0 UV-I 28 W/m 3,9 C 4,0 C 17,7 km/h (3 Bft) 100,00 %
28.02.2016 17:16 8,1 C 75 % 1007,8 hPa 0,0 l/m 15,2 km/h (3 Bft) N-NO 27 0 min 0,000 mm 0,0 UV-I 26 W/m 3,9 C 2,7 C 19,3 km/h (3 Bft) 100,00 %
28.02.2016 17:17 8,0 C 75 % 1007,8 hPa 0,0 l/m 14,9 km/h (3 Bft) N-NO 28 0 min 0,000 mm 0,0 UV-I 26 W/m 3,8 C 2,8 C 19,3 km/h (3 Bft) 100,00 %
28.02.2016 17:18 7,9 C 76 % 1007,9 hPa 0,0 l/m 14,5 km/h (3 Bft) N-NO 32 0 min 0,000 mm 0,0 UV-I 25 W/m 3,9 C 2,8 C 17,7 km/h (3 Bft) 100,00 %
28.02.2016 17:19 7,9 C 76 % 1007,9 hPa 0,0 l/m 15,1 km/h (3 Bft) NO 44 0 min 0,000 mm 0,0 UV-I 24 W/m 3,9 C 2,5 C 20,9 km/h (4 Bft) 100,00 %
28.02.2016 17:20 7,9 C 75 % 1007,9 hPa 0,0 l/m 15,6 km/h (3 Bft) N-NO 23 0 min 0,000 mm 0,0 UV-I 23 W/m 3,7 C 2,3 C 19,3 km/h (3 Bft) 100,00 %
28.02.2016 17:21 7,9 C 75 % 1007,9 hPa 0,0 l/m 16,9 km/h (3 Bft) NO 44 0 min 0,000 mm 0,0 UV-I 21 W/m 3,7 C 1,8 C 22,5 km/h (4 Bft) 100,00 %
28.02.2016 17:22 7,9 C 75 % 1007,9 hPa 0,0 l/m 14,6 km/h (3 Bft) N-NO 17 0 min 0,000 mm 0,0 UV-I 21 W/m 3,7 C 2,8 C 19,3 km/h (3 Bft) 98,66 %
28.02.2016 17:23 7,9 C 76 % 1008,0 hPa 0,0 l/m 11,5 km/h (2 Bft) NO 46 0 min 0,000 mm 0,0 UV-I 19 W/m 3,9 C 4,4 C 14,5 km/h (3 Bft) 100,00 %
28.02.2016 17:24 7,9 C 76 % 1008,0 hPa 0,0 l/m 9,6 km/h (2 Bft) NO 41 0 min 0,000 mm 0,0 UV-I 19 W/m 3,9 C 5,5 C 16,1 km/h (3 Bft) 100,00 %
28.02.2016 17:25 7,8 C 76 % 1008,0 hPa 0,0 l/m 9,7 km/h (2 Bft) NO 55 0 min 0,000 mm 0,0 UV-I 18 W/m 3,8 C 5,4 C 16,1 km/h (3 Bft) 100,00 %
28.02.2016 17:26 7,8 C 76 % 1008,0 hPa 0,0 l/m 12,5 km/h (3 Bft) N-NO 17 0 min 0,000 mm 0,0 UV-I 17 W/m 3,8 C 3,7 C 19,3 km/h (3 Bft) 100,00 %
28.02.2016 17:27 7,8 C 76 % 1008,0 hPa 0,0 l/m 12,7 km/h (3 Bft) N-NO 31 0 min 0,000 mm 0,0 UV-I 14 W/m 3,8 C 3,6 C 16,1 km/h (3 Bft) 100,00 %
28.02.2016 17:28 7,7 C 76 % 1008,0 hPa 0,0 l/m 10,7 km/h (2 Bft) N-NO 26 0 min 0,000 mm 0,0 UV-I 14 W/m 3,7 C 4,6 C 14,5 km/h (3 Bft) 100,00 %
28.02.2016 17:29 7,7 C 76 % 1008,1 hPa 0,0 l/m 9,9 km/h (2 Bft) N-NO 28 0 min 0,000 mm 0,0 UV-I 13 W/m 3,7 C 5,1 C 12,9 km/h (3 Bft) 100,00 %
28.02.2016 17:30 7,7 C 76 % 1008,1 hPa 0,0 l/m 8,0 km/h (2 Bft) N-NO 28 0 min 0,000 mm 0,0 UV-I 12 W/m 3,7 C 6,4 C 11,3 km/h (2 Bft) 100,00 %
28.02.2016 17:31 7,7 C 77 % 1008,1 hPa 0,0 l/m 9,2 km/h (2 Bft) N-NO 24 0 min 0,000 mm 0,0 UV-I 11 W/m 3,9 C 5,6 C 12,9 km/h (3 Bft) 100,00 %
28.02.2016 17:32 7,6 C 77 % 1008,2 hPa 0,0 l/m 11,4 km/h (2 Bft) NO 37 0 min 0,000 mm 0,0 UV-I 11 W/m 3,8 C 4,1 C 16,1 km/h (3 Bft) 100,00 %
28.02.2016 17:33 7,6 C 77 % 1008,2 hPa 0,0 l/m 9,5 km/h (2 Bft) N-NO 28 0 min 0,000 mm 0,0 UV-I 9 W/m 3,8 C 5,3 C 14,5 km/h (3 Bft) 96,15 %
28.02.2016 17:34 7,5 C 77 % 1008,2 hPa 0,0 l/m 6,7 km/h (2 Bft) N-NO 28 0 min 0,000 mm 0,0 UV-I 9 W/m 3,7 C 7,3 C 9,7 km/h (2 Bft) 100,00 %
28.02.2016 17:35 7,5 C 77 % 1008,3 hPa 0,0 l/m 8,5 km/h (2 Bft) N-NO 15 0 min 0,000 mm 0,0 UV-I 8 W/m 3,7 C 5,9 C 11,3 km/h (2 Bft) 100,00 %
28.02.2016 17:36 7,4 C 77 % 1008,2 hPa 0,0 l/m 8,2 km/h (2 Bft) N-NO 24 0 min 0,000 mm 0,0 UV-I 7 W/m 3,6 C 6,0 C 11,3 km/h (2 Bft) 100,00 %
28.02.2016 17:37 7,4 C 78 % 1008,3 hPa 0,0 l/m 5,3 km/h (1 Bft) N-NO 18 0 min 0,000 mm 0,0 UV-I 7 W/m 3,8 C 7,4 C 9,7 km/h (2 Bft) 100,00 %
28.02.2016 17:38 7,3 C 78 % 1008,3 hPa 0,0 l/m 4,6 km/h (1 Bft) NO 34 0 min 0,000 mm 0,0 UV-I 5 W/m 3,7 C 7,3 C 8,0 km/h (2 Bft) 100,00 %
28.02.2016 17:39 7,3 C 78 % 1008,3 hPa 0,0 l/m 7,8 km/h (2 Bft) NO 45 0 min 0,000 mm 0,0 UV-I 5 W/m 3,7 C 6,2 C 9,7 km/h (2 Bft) 95,65 %
28.02.2016 17:40 7,3 C 78 % 1008,3 hPa 0,0 l/m 7,3 km/h (2 Bft) NO 46 0 min 0,000 mm 0,0 UV-I 5 W/m 3,7 C 6,6 C 9,7 km/h (2 Bft) 100,00 %
28.02.2016 17:41 7,3 C 78 % 1008,4 hPa 0,0 l/m 5,8 km/h (2 Bft) NO 37 0 min 0,000 mm 0,0 UV-I 2 W/m 3,7 C 7,3 C 8,0 km/h (2 Bft) 96,88 %
28.02.2016 17:42 7,2 C 78 % 1008,4 hPa 0,0 l/m 5,4 km/h (1 Bft) N-NO 23 0 min 0,000 mm 0,0 UV-I 0 W/m 3,6 C 7,2 C 8,0 km/h (2 Bft) 95,83 %
28.02.2016 17:43 7,2 C 78 % 1008,4 hPa 0,0 l/m 4,0 km/h (1 Bft) N-NO 22 0 min 0,000 mm 0,0 UV-I 0 W/m 3,6 C 7,2 C 6,4 km/h (2 Bft) 96,15 %
28.02.2016 17:44 7,2 C 78 % 1008,4 hPa 0,0 l/m 7,8 km/h (2 Bft) NO 34 0 min 0,000 mm 0,0 UV-I 0 W/m 3,6 C 6,1 C 9,7 km/h (2 Bft) 93,33 %
28.02.2016 17:45 7,2 C 78 % 1008,5 hPa 0,0 l/m 5,4 km/h (1 Bft) N-NO 30 0 min 0,000 mm 0,0 UV-I 0 W/m 3,6 C 7,2 C 6,4 km/h (2 Bft) 100,00 %
28.02.2016 17:46 7,1 C 79 % 1008,5 hPa 0,0 l/m 4,3 km/h (1 Bft) N-NO 18 0 min 0,000 mm 0,0 UV-I 0 W/m 3,7 C 7,1 C 6,4 km/h (2 Bft) 91,30 %
28.02.2016 17:47 7,1 C 79 % 1008,5 hPa 0,0 l/m 4,3 km/h (1 Bft) N-NO 19 0 min 0,000 mm 0,0 UV-I 0 W/m 3,7 C 7,1 C 6,4 km/h (2 Bft) 100,00 %
28.02.2016 17:48 7,1 C 79 % 1008,5 hPa 0,0 l/m 1,4 km/h (1 Bft) N-NO 15 0 min 0,000 mm 0,0 UV-I 0 W/m 3,7 C 7,1 C 3,2 km/h (1 Bft) 96,55 %
28.02.2016 17:49 7,0 C 79 % 1008,5 hPa 0,0 l/m 2,0 km/h (1 Bft) NO 53 0 min 0,000 mm 0,0 UV-I 0 W/m 3,6 C 7,0 C 4,8 km/h (1 Bft) 100,00 %
28.02.2016 17:50 6,9 C 79 % 1008,5 hPa 0,0 l/m 2,7 km/h (1 Bft) N-NO 14 0 min 0,000 mm 0,0 UV-I 0 W/m 3,5 C 6,9 C 4,8 km/h (1 Bft) 97,14 %
28.02.2016 17:51 6,9 C 79 % 1008,5 hPa 0,0 l/m 2,8 km/h (1 Bft) N-NO 13 0 min 0,000 mm 0,0 UV-I 0 W/m 3,5 C 6,9 C 4,8 km/h (1 Bft) 95,83 %
28.02.2016 17:52 6,9 C 79 % 1008,5 hPa 0,0 l/m 4,4 km/h (1 Bft) N-NO 26 0 min 0,000 mm 0,0 UV-I 0 W/m 3,5 C 6,9 C 8,0 km/h (2 Bft) 100,00 %
28.02.2016 17:53 6,8 C 79 % 1008,5 hPa 0,0 l/m 4,2 km/h (1 Bft) N-NO 18 0 min 0,000 mm 0,0 UV-I 0 W/m 3,4 C 6,8 C 6,4 km/h (2 Bft) 95,83 %
28.02.2016 17:54 6,8 C 80 % 1008,5 hPa 0,0 l/m 1,4 km/h (1 Bft) N 5 0 min 0,000 mm 0,0 UV-I 0 W/m 3,6 C 6,8 C 3,2 km/h (1 Bft) 100,00 %
28.02.2016 17:55 6,8 C 80 % 1008,6 hPa 0,0 l/m 1,4 km/h (1 Bft) N 355 0 min 0,000 mm 0,0 UV-I 0 W/m 3,6 C 6,8 C 4,8 km/h (1 Bft) 96,67 %
28.02.2016 17:56 6,7 C 80 % 1008,7 hPa 0,0 l/m 1,8 km/h (1 Bft) N-NW 343 0 min 0,000 mm 0,0 UV-I 0 W/m 3,5 C 6,7 C 4,8 km/h (1 Bft) 92,86 %
28.02.2016 17:57 6,7 C 80 % 1008,7 hPa 0,0 l/m 1,4 km/h (1 Bft) N 350 0 min 0,000 mm 0,0 UV-I 0 W/m 3,5 C 6,7 C 3,2 km/h (1 Bft) 96,30 %
28.02.2016 17:58 6,7 C 80 % 1008,7 hPa 0,0 l/m 1,4 km/h (1 Bft) N-NW 340 0 min 0,000 mm 0,0 UV-I 0 W/m 3,5 C 6,7 C 3,2 km/h (1 Bft) 96,55 %
28.02.2016 17:59 6,6 C 80 % 1008,8 hPa 0,0 l/m 2,3 km/h (1 Bft) N 5 0 min 0,000 mm 0,0 UV-I 0 W/m 3,4 C 6,6 C 3,2 km/h (1 Bft) 100,00 %
28.02.2016 18:00 6,6 C 80 % 1008,8 hPa 0,0 l/m 1,3 km/h (1 Bft) N-NW 336 0 min 0,000 mm 0,0 UV-I 0 W/m 3,4 C 6,6 C 3,2 km/h (1 Bft) 95,65 %
28.02.2016 18:01 6,6 C 80 % 1008,8 hPa 0,0 l/m 1,5 km/h (1 Bft) N 355 0 min 0,025 mm 0,0 UV-I 0 W/m 3,4 C 6,6 C 3,2 km/h (1 Bft) 95,83 %
28.02.2016 18:02 6,5 C 80 % 1008,9 hPa 0,0 l/m 2,8 km/h (1 Bft) NO 43 0 min 0,000 mm 0,0 UV-I 0 W/m 3,3 C 6,5 C 6,4 km/h (2 Bft) 92,86 %
28.02.2016 18:03 6,5 C 81 % 1008,9 hPa 0,0 l/m 1,2 km/h (1 Bft) N 11 0 min 0,000 mm 0,0 UV-I 0 W/m 3,5 C 6,5 C 1,6 km/h (1 Bft) 100,00 %
28.02.2016 18:04 6,5 C 81 % 1008,9 hPa 0,0 l/m 2,3 km/h (1 Bft) N 351 0 min 0,000 mm 0,0 UV-I 0 W/m 3,5 C 6,5 C 4,8 km/h (1 Bft) 96,15 %
28.02.2016 18:05 6,5 C 81 % 1008,9 hPa 0,0 l/m 3,1 km/h (1 Bft) NW 318 0 min 0,000 mm 0,0 UV-I 0 W/m 3,5 C 6,5 C 4,8 km/h (1 Bft) 91,67 %
28.02.2016 18:06 6,5 C 80 % 1008,9 hPa 0,0 l/m 2,6 km/h (1 Bft) NW 316 0 min 0,000 mm 0,0 UV-I 0 W/m 3,3 C 6,5 C 4,8 km/h (1 Bft) 91,67 %
28.02.2016 18:07 6,5 C 80 % 1008,9 hPa 0,0 l/m 1,3 km/h (1 Bft) N-NW 327 0 min 0,000 mm 0,0 UV-I 0 W/m 3,3 C 6,5 C 3,2 km/h (1 Bft) 100,00 %
28.02.2016 18:08 6,4 C 80 % 1008,9 hPa 0,0 l/m 2,3 km/h (1 Bft) N-NW 338 0 min 0,000 mm 0,0 UV-I 0 W/m 3,2 C 6,4 C 3,2 km/h (1 Bft) 95,83 %
28.02.2016 18:09 6,4 C 80 % 1008,9 hPa 0,0 l/m 1,4 km/h (1 Bft) N-NW 336 0 min 0,000 mm 0,0 UV-I 0 W/m 3,2 C 6,4 C 3,2 km/h (1 Bft) 96,15 %
28.02.2016 18:10 6,4 C 81 % 1009,0 hPa 0,0 l/m 2,2 km/h (1 Bft) NW 304 0 min 0,000 mm 0,0 UV-I 0 W/m 3,4 C 6,4 C 4,8 km/h (1 Bft) 100,00 %
28.02.2016 18:11 6,3 C 81 % 1009,0 hPa 0,0 l/m 1,7 km/h (1 Bft) NW 321 0 min 0,000 mm 0,0 UV-I 0 W/m 3,3 C 6,3 C 3,2 km/h (1 Bft) 100,00 %
28.02.2016 18:12 6,3 C 81 % 1009,0 hPa 0,0 l/m 1,1 km/h (1 Bft) NW 323 0 min 0,000 mm 0,0 UV-I 0 W/m 3,3 C 6,3 C 1,6 km/h (1 Bft) 100,00 %
28.02.2016 18:13 6,3 C 81 % 1009,0 hPa 0,0 l/m 1,7 km/h (1 Bft) NW 323 0 min 0,000 mm 0,0 UV-I 0 W/m 3,3 C 6,3 C 3,2 km/h (1 Bft) 95,65 %
28.02.2016 18:14 6,3 C 81 % 1009,0 hPa 0,0 l/m 1,6 km/h (1 Bft) NW 323 0 min 0,000 mm 0,0 UV-I 0 W/m 3,3 C 6,3 C 3,2 km/h (1 Bft) 100,00 %
28.02.2016 18:15 6,2 C 81 % 1009,0 hPa 0,0 l/m 1,0 km/h (0 Bft) NW 323 0 min 0,000 mm 0,0 UV-I 0 W/m 3,2 C 6,2 C 1,6 km/h (1 Bft) 96,15 %
28.02.2016 18:16 6,2 C 81 % 1009,0 hPa 0,0 l/m 1,5 km/h (1 Bft) NW 324 0 min 0,000 mm 0,0 UV-I 0 W/m 3,2 C 6,2 C 3,2 km/h (1 Bft) 100,00 %
28.02.2016 18:17 6,2 C 81 % 1009,0 hPa 0,0 l/m 1,2 km/h (1 Bft) NW 321 0 min 0,000 mm 0,0 UV-I 0 W/m 3,2 C 6,2 C 3,2 km/h (1 Bft) 95,65 %
28.02.2016 18:18 6,1 C 81 % 1009,0 hPa 0,0 l/m 1,4 km/h (1 Bft) N-NW 336 0 min 0,000 mm 0,0 UV-I 0 W/m 3,1 C 6,1 C 3,2 km/h (1 Bft) 100,00 %
28.02.2016 18:19 6,1 C 81 % 1009,0 hPa 0,0 l/m 0,6 km/h (0 Bft) N-NW 336 0 min 0,000 mm 0,0 UV-I 0 W/m 3,1 C 6,1 C 1,6 km/h (1 Bft) 100,00 %
28.02.2016 18:20 6,0 C 82 % 1009,0 hPa 0,0 l/m 1,6 km/h (1 Bft) N-NW 327 0 min 0,000 mm 0,0 UV-I 0 W/m 3,2 C 6,0 C 3,2 km/h (1 Bft) 100,00 %
28.02.2016 18:21 5,9 C 82 % 1009,0 hPa 0,0 l/m 1,0 km/h (0 Bft) N-NW 327 0 min 0,000 mm 0,0 UV-I 0 W/m 3,1 C 5,9 C 3,2 km/h (1 Bft) 100,00 %
28.02.2016 18:22 5,9 C 82 % 1009,1 hPa 0,0 l/m 0,5 km/h (0 Bft) N-NW 327 0 min 0,000 mm 0,0 UV-I 0 W/m 3,1 C 5,9 C 1,6 km/h (1 Bft) 96,15 %
28.02.2016 18:23 5,8 C 82 % 1009,0 hPa 0,0 l/m 1,4 km/h (1 Bft) N-NW 327 0 min 0,000 mm 0,0 UV-I 0 W/m 3,0 C 5,8 C 1,6 km/h (1 Bft) 100,00 %
28.02.2016 18:24 5,8 C 83 % 1009,1 hPa 0,0 l/m 0,3 km/h (0 Bft) N-NW 327 0 min 0,000 mm 0,0 UV-I 0 W/m 3,1 C 5,8 C 1,6 km/h (1 Bft) 100,00 %
28.02.2016 18:25 5,7 C 83 % 1009,1 hPa 0,0 l/m 1,2 km/h (1 Bft) N-NW 327 0 min 0,000 mm 0,0 UV-I 0 W/m 3,0 C 5,7 C 3,2 km/h (1 Bft) 100,00 %
28.02.2016 18:26 5,7 C 83 % 1009,1 hPa 0,0 l/m 1,7 km/h (1 Bft) N-NW 327 0 min 0,000 mm 0,0 UV-I 0 W/m 3,0 C 5,7 C 3,2 km/h (1 Bft) 100,00 %
28.02.2016 18:27 5,7 C 83 % 1009,2 hPa 0,0 l/m 0,2 km/h (0 Bft) N-NW 327 0 min 0,000 mm 0,0 UV-I 0 W/m 3,0 C 5,7 C 1,6 km/h (1 Bft) 100,00 %
28.02.2016 18:28 5,6 C 83 % 1009,2 hPa 0,0 l/m 1,2 km/h (1 Bft) N-NW 328 0 min 0,000 mm 0,0 UV-I 0 W/m 2,9 C 5,6 C 3,2 km/h (1 Bft) 96,55 %
28.02.2016 18:29 5,6 C 83 % 1009,2 hPa 0,0 l/m 1,3 km/h (1 Bft) N-NW 327 0 min 0,000 mm 0,0 UV-I 0 W/m 2,9 C 5,6 C 3,2 km/h (1 Bft) 100,00 %
28.02.2016 18:30 5,6 C 83 % 1009,1 hPa 0,0 l/m 0,7 km/h (0 Bft) N-NW 332 0 min 0,000 mm 0,0 UV-I 0 W/m 2,9 C 5,6 C 3,2 km/h (1 Bft) 100,00 %
28.02.2016 18:31 5,6 C 83 % 1009,1 hPa 0,0 l/m 0,5 km/h (0 Bft) N-NW 334 0 min 0,000 mm 0,0 UV-I 0 W/m 2,9 C 5,6 C 1,6 km/h (1 Bft) 100,00 %
28.02.2016 18:32 5,5 C 83 % 1009,2 hPa 0,0 l/m 0,8 km/h (0 Bft) N-NW 336 0 min 0,000 mm 0,0 UV-I 0 W/m 2,8 C 5,5 C 1,6 km/h (1 Bft) 95,65 %
28.02.2016 18:33 5,5 C 83 % 1009,2 hPa 0,0 l/m 0,2 km/h (0 Bft) N-NW 337 0 min 0,000 mm 0,0 UV-I 0 W/m 2,8 C 5,5 C 1,6 km/h (1 Bft) 100,00 %
28.02.2016 18:34 5,5 C 83 % 1009,2 hPa 0,0 l/m 0,6 km/h (0 Bft) N-NW 339 0 min 0,000 mm 0,0 UV-I 0 W/m 2,8 C 5,5 C 1,6 km/h (1 Bft) 100,00 %
28.02.2016 18:35 5,4 C 84 % 1009,2 hPa 0,0 l/m 1,8 km/h (1 Bft) N 9 0 min 0,000 mm 0,0 UV-I 0 W/m 2,9 C 5,4 C 3,2 km/h (1 Bft) 100,00 %
28.02.2016 18:36 5,4 C 84 % 1009,2 hPa 0,0 l/m 0,9 km/h (0 Bft) N 10 0 min 0,000 mm 0,0 UV-I 0 W/m 2,9 C 5,4 C 3,2 km/h (1 Bft) 95,65 %
28.02.2016 18:37 5,4 C 84 % 1009,2 hPa 0,0 l/m 0,5 km/h (0 Bft) N 10 0 min 0,000 mm 0,0 UV-I 0 W/m 2,9 C 5,4 C 1,6 km/h (1 Bft) 100,00 %
28.02.2016 18:38 5,4 C 84 % 1009,2 hPa 0,0 l/m 0,6 km/h (0 Bft) N 349 0 min 0,000 mm 0,0 UV-I 0 W/m 2,9 C 5,4 C 1,6 km/h (1 Bft) 100,00 %
28.02.2016 18:39 5,4 C 84 % 1009,2 hPa 0,0 l/m 1,3 km/h (1 Bft) N 355 0 min 0,000 mm 0,0 UV-I 0 W/m 2,9 C 5,4 C 3,2 km/h (1 Bft) 100,00 %
28.02.2016 18:40 5,3 C 84 % 1009,2 hPa 0,0 l/m 1,7 km/h (1 Bft) N 11 0 min 0,000 mm 0,0 UV-I 0 W/m 2,8 C 5,3 C 3,2 km/h (1 Bft) 95,65 %
28.02.2016 18:41 5,3 C 84 % 1009,3 hPa 0,0 l/m 1,6 km/h (1 Bft) N-NW 336 0 min 0,000 mm 0,0 UV-I 0 W/m 2,8 C 5,3 C 3,2 km/h (1 Bft) 100,00 %
28.02.2016 18:42 5,3 C 84 % 1009,2 hPa 0,0 l/m 0,5 km/h (0 Bft) N-NW 329 0 min 0,000 mm 0,0 UV-I 0 W/m 2,8 C 5,3 C 1,6 km/h (1 Bft) 100,00 %
28.02.2016 18:43 5,3 C 84 % 1009,3 hPa 0,0 l/m 0,3 km/h (0 Bft) N-NW 329 0 min 0,000 mm 0,0 UV-I 0 W/m 2,8 C 5,3 C 1,6 km/h (1 Bft) 100,00 %
28.02.2016 18:44 5,3 C 84 % 1009,3 hPa 0,0 l/m 0,2 km/h (0 Bft) N-NW 329 0 min 0,000 mm 0,0 UV-I 0 W/m 2,8 C 5,3 C 1,6 km/h (1 Bft) 96,15 %
28.02.2016 18:45 5,3 C 84 % 1009,3 hPa 0,0 l/m 0,1 km/h (0 Bft) N-NW 329 0 min 0,000 mm 0,0 UV-I 0 W/m 2,8 C 5,3 C 1,6 km/h (1 Bft) 100,00 %
28.02.2016 18:46 5,3 C 84 % 1009,4 hPa 0,0 l/m 0,1 km/h (0 Bft) N-NW 329 0 min 0,000 mm 0,0 UV-I 0 W/m 2,8 C 5,3 C 1,6 km/h (1 Bft) 100,00 %
28.02.2016 18:47 5,3 C 84 % 1009,4 hPa 0,0 l/m 1,5 km/h (1 Bft) N-NW 329 0 min 0,000 mm 0,0 UV-I 0 W/m 2,8 C 5,3 C 3,2 km/h (1 Bft) 100,00 %
28.02.2016 18:48 5,3 C 84 % 1009,4 hPa 0,0 l/m 1,2 km/h (1 Bft) N-NW 327 0 min 0,000 mm 0,0 UV-I 0 W/m 2,8 C 5,3 C 3,2 km/h (1 Bft) 100,00 %
28.02.2016 18:49 5,3 C 84 % 1009,3 hPa 0,0 l/m 1,0 km/h (0 Bft) N-NW 327 0 min 0,000 mm 0,0 UV-I 0 W/m 2,8 C 5,3 C 1,6 km/h (1 Bft) 100,00 %
28.02.2016 18:50 5,4 C 84 % 1009,4 hPa 0,0 l/m 0,2 km/h (0 Bft) N-NW 327 0 min 0,000 mm 0,0 UV-I 0 W/m 2,9 C 5,4 C 1,6 km/h (1 Bft) 100,00 %
28.02.2016 18:51 5,4 C 84 % 1009,4 hPa 0,0 l/m 0,6 km/h (0 Bft) N-NW 327 0 min 0,000 mm 0,0 UV-I 0 W/m 2,9 C 5,4 C 1,6 km/h (1 Bft) 100,00 %
28.02.2016 18:52 5,3 C 84 % 1009,4 hPa 0,0 l/m 0,4 km/h (0 Bft) N-NW 327 0 min 0,000 mm 0,0 UV-I 0 W/m 2,8 C 5,3 C 1,6 km/h (1 Bft) 100,00 %
28.02.2016 18:53 5,3 C 84 % 1009,4 hPa 0,0 l/m 0,7 km/h (0 Bft) N-NW 328 0 min 0,000 mm 0,0 UV-I 0 W/m 2,8 C 5,3 C 1,6 km/h (1 Bft) 100,00 %
28.02.2016 18:54 5,3 C 84 % 1009,4 hPa 0,0 l/m 1,3 km/h (1 Bft) N-NW 331 0 min 0,000 mm 0,0 UV-I 0 W/m 2,8 C 5,3 C 3,2 km/h (1 Bft) 100,00 %
28.02.2016 18:55 5,3 C 84 % 1009,4 hPa 0,0 l/m 0,5 km/h (0 Bft) N-NW 331 0 min 0,000 mm 0,0 UV-I 0 W/m 2,8 C 5,3 C 1,6 km/h (1 Bft) 100,00 %
28.02.2016 18:56 5,3 C 84 % 1009,4 hPa 0,0 l/m 0,8 km/h (0 Bft) N-NW 331 0 min 0,000 mm 0,0 UV-I 0 W/m 2,8 C 5,3 C 1,6 km/h (1 Bft) 100,00 %
28.02.2016 18:57 5,3 C 84 % 1009,4 hPa 0,0 l/m 1,0 km/h (0 Bft) N-NW 327 0 min 0,000 mm 0,0 UV-I 0 W/m 2,8 C 5,3 C 3,2 km/h (1 Bft) 100,00 %
28.02.2016 18:58 5,3 C 84 % 1009,4 hPa 0,0 l/m 0,7 km/h (0 Bft) N-NW 327 0 min 0,000 mm 0,0 UV-I 0 W/m 2,8 C 5,3 C 1,6 km/h (1 Bft) 100,00 %
28.02.2016 18:59 5,3 C 84 % 1009,4 hPa 0,0 l/m 0,9 km/h (0 Bft) N-NW 327 0 min 0,000 mm 0,0 UV-I 0 W/m 2,8 C 5,3 C 1,6 km/h (1 Bft) 100,00 %
28.02.2016 19:00 5,2 C 84 % 1009,5 hPa 0,0 l/m 0,3 km/h (0 Bft) N-NW 327 0 min 0,000 mm 0,0 UV-I 0 W/m 2,7 C 5,2 C 1,6 km/h (1 Bft) 100,00 %
28.02.2016 19:01 5,2 C 84 % 1009,5 hPa 0,0 l/m 1,3 km/h (1 Bft) N-NW 329 0 min 0,000 mm 0,0 UV-I 0 W/m 2,7 C 5,2 C 3,2 km/h (1 Bft) 100,00 %
28.02.2016 19:02 5,1 C 84 % 1009,5 hPa 0,0 l/m 2,5 km/h (1 Bft) N-NW 331 0 min 0,000 mm 0,0 UV-I 0 W/m 2,6 C 5,1 C 3,2 km/h (1 Bft) 100,00 %
28.02.2016 19:03 5,1 C 84 % 1009,5 hPa 0,0 l/m 2,7 km/h (1 Bft) N 11 0 min 0,000 mm 0,0 UV-I 0 W/m 2,6 C 5,1 C 4,8 km/h (1 Bft) 100,00 %
28.02.2016 19:04 5,1 C 84 % 1009,5 hPa 0,0 l/m 2,8 km/h (1 Bft) N-NO 16 0 min 0,000 mm 0,0 UV-I 0 W/m 2,6 C 5,1 C 3,2 km/h (1 Bft) 100,00 %
28.02.2016 19:05 5,1 C 85 % 1009,5 hPa 0,0 l/m 2,5 km/h (1 Bft) N-NO 16 0 min 0,000 mm 0,0 UV-I 0 W/m 2,8 C 5,1 C 3,2 km/h (1 Bft) 100,00 %
28.02.2016 19:06 5,1 C 85 % 1009,5 hPa 0,0 l/m 3,6 km/h (1 Bft) N-NO 17 0 min 0,000 mm 0,0 UV-I 0 W/m 2,8 C 5,1 C 4,8 km/h (1 Bft) 100,00 %
28.02.2016 19:07 5,1 C 85 % 1009,6 hPa 0,0 l/m 4,8 km/h (1 Bft) NO 49 0 min 0,000 mm 0,0 UV-I 0 W/m 2,8 C 5,1 C 8,0 km/h (2 Bft) 100,00 %
28.02.2016 19:08 5,2 C 85 % 1009,6 hPa 0,0 l/m 6,4 km/h (2 Bft) NO 40 0 min 0,000 mm 0,0 UV-I 0 W/m 2,9 C 5,2 C 8,0 km/h (2 Bft) 100,00 %
28.02.2016 19:09 5,2 C 85 % 1009,6 hPa 0,0 l/m 4,6 km/h (1 Bft) NO 40 0 min 0,000 mm 0,0 UV-I 0 W/m 2,9 C 5,2 C 6,4 km/h (2 Bft) 100,00 %
28.02.2016 19:10 5,2 C 85 % 1009,6 hPa 0,0 l/m 4,8 km/h (1 Bft) NO 42 0 min 0,000 mm 0,0 UV-I 0 W/m 2,9 C 5,2 C 6,4 km/h (2 Bft) 96,15 %
28.02.2016 19:11 5,2 C 84 % 1009,7 hPa 0,0 l/m 3,8 km/h (1 Bft) N-NO 19 0 min 0,000 mm 0,0 UV-I 0 W/m 2,7 C 5,2 C 4,8 km/h (1 Bft) 96,30 %
28.02.2016 19:12 5,3 C 84 % 1009,7 hPa 0,0 l/m 4,0 km/h (1 Bft) N-NO 29 0 min 0,000 mm 0,0 UV-I 0 W/m 2,8 C 5,3 C 4,8 km/h (1 Bft) 100,00 %
28.02.2016 19:13 5,3 C 84 % 1009,7 hPa 0,0 l/m 4,6 km/h (1 Bft) NO 40 0 min 0,000 mm 0,0 UV-I 0 W/m 2,8 C 5,3 C 4,8 km/h (1 Bft) 100,00 %
28.02.2016 19:14 5,3 C 84 % 1009,7 hPa 0,0 l/m 4,7 km/h (1 Bft) N-NO 19 0 min 0,000 mm 0,0 UV-I 0 W/m 2,8 C 5,3 C 6,4 km/h (2 Bft) 96,15 %
28.02.2016 19:15 5,2 C 84 % 1009,7 hPa 0,0 l/m 4,2 km/h (1 Bft) NO 34 0 min 0,000 mm 0,0 UV-I 0 W/m 2,7 C 5,2 C 6,4 km/h (2 Bft) 100,00 %
28.02.2016 19:16 5,2 C 84 % 1009,7 hPa 0,0 l/m 4,4 km/h (1 Bft) NO 36 0 min 0,000 mm 0,0 UV-I 0 W/m 2,7 C 5,2 C 6,4 km/h (2 Bft) 100,00 %
28.02.2016 19:17 5,2 C 84 % 1009,7 hPa 0,0 l/m 3,5 km/h (1 Bft) N-NO 24 0 min 0,000 mm 0,0 UV-I 0 W/m 2,7 C 5,2 C 4,8 km/h (1 Bft) 100,00 %
28.02.2016 19:18 5,2 C 84 % 1009,7 hPa 0,0 l/m 3,6 km/h (1 Bft) N-NO 24 0 min 0,000 mm 0,0 UV-I 0 W/m 2,7 C 5,2 C 4,8 km/h (1 Bft) 100,00 %
28.02.2016 19:19 5,2 C 84 % 1009,7 hPa 0,0 l/m 3,7 km/h (1 Bft) N-NO 24 0 min 0,000 mm 0,0 UV-I 0 W/m 2,7 C 5,2 C 4,8 km/h (1 Bft) 100,00 %
28.02.2016 19:20 5,1 C 84 % 1009,7 hPa 0,0 l/m 2,8 km/h (1 Bft) N-NO 24 0 min 0,000 mm 0,0 UV-I 0 W/m 2,6 C 5,1 C 3,2 km/h (1 Bft) 100,00 %
28.02.2016 19:21 5,1 C 84 % 1009,7 hPa 0,0 l/m 1,9 km/h (1 Bft) N-NO 24 0 min 0,000 mm 0,0 UV-I 0 W/m 2,6 C 5,1 C 3,2 km/h (1 Bft) 100,00 %
28.02.2016 19:22 5,1 C 85 % 1009,7 hPa 0,0 l/m 2,0 km/h (1 Bft) N-NO 24 0 min 0,000 mm 0,0 UV-I 0 W/m 2,8 C 5,1 C 3,2 km/h (1 Bft) 100,00 %
28.02.2016 19:23 5,1 C 85 % 1009,7 hPa 0,0 l/m 0,9 km/h (0 Bft) N-NO 24 0 min 0,000 mm 0,0 UV-I 0 W/m 2,8 C 5,1 C 3,2 km/h (1 Bft) 100,00 %
28.02.2016 19:24 5,0 C 85 % 1009,7 hPa 0,0 l/m 0,0 km/h (0 Bft) N-NO 24 0 min 0,000 mm 0,0 UV-I 0 W/m 2,7 C 5,0 C 0,0 km/h (0 Bft) 100,00 %
28.02.2016 19:25 4,9 C 84 % 1009,8 hPa 0,0 l/m 0,0 km/h (0 Bft) N-NO 24 0 min 0,000 mm 0,0 UV-I 0 W/m 2,4 C 4,9 C 0,0 km/h (0 Bft) 100,00 %
28.02.2016 19:26 4,7 C 84 % 1009,8 hPa 0,0 l/m 0,3 km/h (0 Bft) N-NO 24 0 min 0,000 mm 0,0 UV-I 0 W/m 2,2 C 4,7 C 1,6 km/h (1 Bft) 100,00 %
28.02.2016 19:27 4,6 C 84 % 1009,8 hPa 0,0 l/m 3,0 km/h (1 Bft) N-NO 24 0 min 0,000 mm 0,0 UV-I 0 W/m 2,1 C 4,6 C 4,8 km/h (1 Bft) 100,00 %
28.02.2016 19:28 4,4 C 85 % 1009,8 hPa 0,0 l/m 3,1 km/h (1 Bft) N-NO 24 0 min 0,000 mm 0,0 UV-I 0 W/m 2,1 C 4,4 C 3,2 km/h (1 Bft) 100,00 %
28.02.2016 19:29 4,3 C 86 % 1009,8 hPa 0,0 l/m 3,7 km/h (1 Bft) N-NO 24 0 min 0,000 mm 0,0 UV-I 0 W/m 2,2 C 4,3 C 4,8 km/h (1 Bft) 100,00 %
28.02.2016 19:30 4,2 C 86 % 1009,8 hPa 0,0 l/m 4,0 km/h (1 Bft) N-NO 24 0 min 0,000 mm 0,0 UV-I 0 W/m 2,1 C 4,2 C 4,8 km/h (1 Bft) 100,00 %
28.02.2016 19:31 4,1 C 86 % 1009,8 hPa 0,0 l/m 4,2 km/h (1 Bft) SW 228 0 min 0,000 mm 0,0 UV-I 0 W/m 2,0 C 4,1 C 4,8 km/h (1 Bft) 95,65 %
28.02.2016 19:32 4,1 C 87 % 1009,8 hPa 0,0 l/m 4,5 km/h (1 Bft) SW 228 0 min 0,000 mm 0,0 UV-I 0 W/m 2,1 C 4,1 C 6,4 km/h (2 Bft) 100,00 %
28.02.2016 19:33 4,1 C 87 % 1009,8 hPa 0,0 l/m 4,7 km/h (1 Bft) SW 228 0 min 0,000 mm 0,0 UV-I 0 W/m 2,1 C 4,1 C 6,4 km/h (2 Bft) 100,00 %
28.02.2016 19:34 4,0 C 88 % 1009,8 hPa 0,0 l/m 4,8 km/h (1 Bft) SW 228 0 min 0,000 mm 0,0 UV-I 0 W/m 2,2 C 4,0 C 6,4 km/h (2 Bft) 100,00 %
28.02.2016 19:35 4,1 C 88 % 1009,8 hPa 0,0 l/m 3,9 km/h (1 Bft) SW 228 0 min 0,000 mm 0,0 UV-I 0 W/m 2,3 C 4,1 C 4,8 km/h (1 Bft) 96,15 %
28.02.2016 19:36 4,1 C 88 % 1009,8 hPa 0,0 l/m 2,7 km/h (1 Bft) SW 228 0 min 0,000 mm 0,0 UV-I 0 W/m 2,3 C 4,1 C 4,8 km/h (1 Bft) 100,00 %
28.02.2016 19:37 4,1 C 88 % 1009,8 hPa 0,0 l/m 1,8 km/h (1 Bft) SW 228 0 min 0,000 mm 0,0 UV-I 0 W/m 2,3 C 4,1 C 3,2 km/h (1 Bft) 95,65 %
28.02.2016 19:38 4,1 C 88 % 1009,8 hPa 0,0 l/m 1,7 km/h (1 Bft) SW 228 0 min 0,000 mm 0,0 UV-I 0 W/m 2,3 C 4,1 C 3,2 km/h (1 Bft) 100,00 %
28.02.2016 19:39 4,0 C 88 % 1009,8 hPa 0,0 l/m 1,8 km/h (1 Bft) SW 228 0 min 0,000 mm 0,0 UV-I 0 W/m 2,2 C 4,0 C 3,2 km/h (1 Bft) 100,00 %
28.02.2016 19:40 3,9 C 88 % 1009,8 hPa 0,0 l/m 3,0 km/h (1 Bft) SW 228 0 min 0,000 mm 0,0 UV-I 0 W/m 2,1 C 3,9 C 3,2 km/h (1 Bft) 100,00 %
28.02.2016 19:41 3,9 C 88 % 1009,8 hPa 0,0 l/m 1,9 km/h (1 Bft) SW 228 0 min 0,000 mm 0,0 UV-I 0 W/m 2,1 C 3,9 C 3,2 km/h (1 Bft) 100,00 %
28.02.2016 19:42 3,9 C 88 % 1009,9 hPa 0,0 l/m 1,6 km/h (1 Bft) SW 228 0 min 0,000 mm 0,0 UV-I 0 W/m 2,1 C 3,9 C 3,2 km/h (1 Bft) 100,00 %
28.02.2016 19:43 3,9 C 88 % 1009,9 hPa 0,0 l/m 0,9 km/h (0 Bft) SW 228 0 min 0,000 mm 0,0 UV-I 0 W/m 2,1 C 3,9 C 1,6 km/h (1 Bft) 100,00 %
28.02.2016 19:44 3,8 C 88 % 1009,9 hPa 0,0 l/m 1,2 km/h (1 Bft) SW 228 0 min 0,000 mm 0,0 UV-I 0 W/m 2,0 C 3,8 C 1,6 km/h (1 Bft) 100,00 %
28.02.2016 19:45 3,8 C 88 % 1009,9 hPa 0,0 l/m 0,6 km/h (0 Bft) SW 228 0 min 0,000 mm 0,0 UV-I 0 W/m 2,0 C 3,8 C 1,6 km/h (1 Bft) 100,00 %
28.02.2016 19:46 3,9 C 89 % 1009,8 hPa 0,0 l/m 1,0 km/h (0 Bft) SW 228 0 min 0,000 mm 0,0 UV-I 0 W/m 2,3 C 3,9 C 1,6 km/h (1 Bft) 100,00 %
28.02.2016 19:47 3,9 C 89 % 1009,9 hPa 0,0 l/m 2,5 km/h (1 Bft) SW 227 0 min 0,000 mm 0,0 UV-I 0 W/m 2,3 C 3,9 C 4,8 km/h (1 Bft) 100,00 %
28.02.2016 19:48 3,9 C 89 % 1009,9 hPa 0,0 l/m 3,0 km/h (1 Bft) SW 227 0 min 0,000 mm 0,0 UV-I 0 W/m 2,3 C 3,9 C 3,2 km/h (1 Bft) 100,00 %
28.02.2016 19:49 3,9 C 88 % 1009,8 hPa 0,0 l/m 2,4 km/h (1 Bft) SW 227 0 min 0,000 mm 0,0 UV-I 0 W/m 2,1 C 3,9 C 3,2 km/h (1 Bft) 100,00 %
28.02.2016 19:50 3,9 C 88 % 1009,9 hPa 0,0 l/m 0,5 km/h (0 Bft) SW 227 0 min 0,000 mm 0,0 UV-I 0 W/m 2,1 C 3,9 C 1,6 km/h (1 Bft) 95,65 %
28.02.2016 19:51 3,8 C 88 % 1009,8 hPa 0,0 l/m 0,7 km/h (0 Bft) SW 220 0 min 0,000 mm 0,0 UV-I 0 W/m 2,0 C 3,8 C 1,6 km/h (1 Bft) 100,00 %
28.02.2016 19:52 3,8 C 89 % 1009,9 hPa 0,0 l/m 1,7 km/h (1 Bft) S-SW 209 0 min 0,000 mm 0,0 UV-I 0 W/m 2,2 C 3,8 C 3,2 km/h (1 Bft) 96,15 %
28.02.2016 19:53 3,8 C 89 % 1009,9 hPa 0,0 l/m 1,0 km/h (0 Bft) S 185 0 min 0,000 mm 0,0 UV-I 0 W/m 2,2 C 3,8 C 1,6 km/h (1 Bft) 100,00 %
28.02.2016 19:54 3,8 C 89 % 1009,9 hPa 0,0 l/m 1,9 km/h (1 Bft) S-SO 165 0 min 0,000 mm 0,0 UV-I 0 W/m 2,2 C 3,8 C 3,2 km/h (1 Bft) 96,55 %
28.02.2016 19:55 3,7 C 88 % 1009,9 hPa 0,0 l/m 1,7 km/h (1 Bft) S-SO 165 0 min 0,000 mm 0,0 UV-I 0 W/m 1,9 C 3,7 C 6,4 km/h (2 Bft) 95,83 %
28.02.2016 19:56 3,8 C 89 % 1009,9 hPa 0,0 l/m 0,2 km/h (0 Bft) S-SO 165 0 min 0,000 mm 0,0 UV-I 0 W/m 2,2 C 3,8 C 1,6 km/h (1 Bft) 100,00 %
28.02.2016 19:57 3,8 C 89 % 1009,9 hPa 0,0 l/m 1,3 km/h (1 Bft) S-SO 165 0 min 0,000 mm 0,0 UV-I 0 W/m 2,2 C 3,8 C 1,6 km/h (1 Bft) 94,74 %
28.02.2016 19:58 3,8 C 89 % 1009,8 hPa 0,0 l/m 2,5 km/h (1 Bft) S-SO 165 0 min 0,000 mm 0,0 UV-I 0 W/m 2,2 C 3,8 C 3,2 km/h (1 Bft) 96,15 %
28.02.2016 19:59 3,8 C 89 % 1009,8 hPa 0,0 l/m 1,6 km/h (1 Bft) S-SO 165 0 min 0,000 mm 0,0 UV-I 0 W/m 2,2 C 3,8 C 3,2 km/h (1 Bft) 100,00 %
28.02.2016 20:00 3,8 C 89 % 1009,8 hPa 0,0 l/m 1,5 km/h (1 Bft) S-SO 165 0 min 0,000 mm 0,0 UV-I 0 W/m 2,2 C 3,8 C 1,6 km/h (1 Bft) 93,75 %
28.02.2016 20:02 3,7 C 89 % 1009,8 hPa 0,0 l/m 1,5 km/h (1 Bft) S-SO 165 0 min 0,000 mm 0,0 UV-I 0 W/m 2,1 C 3,7 C 3,2 km/h (1 Bft) 98,00 %
28.02.2016 20:03 3,7 C 89 % 1009,9 hPa 0,0 l/m 1,7 km/h (1 Bft) S-SO 165 0 min 0,000 mm 0,0 UV-I 0 W/m 2,1 C 3,7 C 3,2 km/h (1 Bft) 100,00 %
28.02.2016 20:04 3,6 C 89 % 1009,9 hPa 0,0 l/m 2,2 km/h (1 Bft) S-SO 165 0 min 0,000 mm 0,0 UV-I 0 W/m 2,0 C 3,6 C 3,2 km/h (1 Bft) 91,67 %
28.02.2016 20:05 3,5 C 89 % 1009,8 hPa 0,0 l/m 3,0 km/h (1 Bft) S-SO 165 0 min 0,000 mm 0,0 UV-I 0 W/m 1,9 C 3,5 C 3,2 km/h (1 Bft) 100,00 %
28.02.2016 20:06 3,4 C 89 % 1009,9 hPa 0,0 l/m 2,5 km/h (1 Bft) S-SO 165 0 min 0,000 mm 0,0 UV-I 0 W/m 1,8 C 3,4 C 3,2 km/h (1 Bft) 91,67 %
28.02.2016 20:07 3,3 C 89 % 1009,9 hPa 0,0 l/m 3,1 km/h (1 Bft) S-SO 165 0 min 0,000 mm 0,0 UV-I 0 W/m 1,7 C 3,3 C 6,4 km/h (2 Bft) 100,00 %
28.02.2016 20:08 3,2 C 89 % 1009,9 hPa 0,0 l/m 3,0 km/h (1 Bft) S-SO 165 0 min 0,000 mm 0,0 UV-I 0 W/m 1,6 C 3,2 C 3,2 km/h (1 Bft) 95,83 %
28.02.2016 20:09 3,1 C 89 % 1009,9 hPa 0,0 l/m 3,7 km/h (1 Bft) S-SO 165 0 min 0,000 mm 0,0 UV-I 0 W/m 1,5 C 3,1 C 6,4 km/h (2 Bft) 96,15 %
28.02.2016 20:10 3,0 C 89 % 1009,8 hPa 0,0 l/m 3,1 km/h (1 Bft) S-SO 165 0 min 0,000 mm 0,0 UV-I 0 W/m 1,4 C 3,0 C 3,2 km/h (1 Bft) 100,00 %
28.02.2016 20:11 2,9 C 89 % 1009,9 hPa 0,0 l/m 3,7 km/h (1 Bft) S-SO 165 0 min 0,000 mm 0,0 UV-I 0 W/m 1,3 C 2,9 C 6,4 km/h (2 Bft) 96,15 %
28.02.2016 20:12 2,9 C 90 % 1009,9 hPa 0,0 l/m 4,6 km/h (1 Bft) S 181 0 min 0,000 mm 0,0 UV-I 0 W/m 1,4 C 2,9 C 6,4 km/h (2 Bft) 95,83 %
28.02.2016 20:13 2,8 C 90 % 1009,9 hPa 0,0 l/m 4,4 km/h (1 Bft) S 189 0 min 0,000 mm 0,0 UV-I 0 W/m 1,3 C 2,8 C 4,8 km/h (1 Bft) 95,65 %
28.02.2016 20:14 2,8 C 90 % 1009,8 hPa 0,0 l/m 3,9 km/h (1 Bft) S-SW 196 0 min 0,000 mm 0,0 UV-I 0 W/m 1,3 C 2,8 C 4,8 km/h (1 Bft) 100,00 %
28.02.2016 20:15 2,8 C 90 % 1009,8 hPa 0,0 l/m 3,9 km/h (1 Bft) S-SW 196 0 min 0,000 mm 0,0 UV-I 0 W/m 1,3 C 2,8 C 4,8 km/h (1 Bft) 96,15 %
28.02.2016 20:16 2,8 C 90 % 1009,8 hPa 0,0 l/m 3,8 km/h (1 Bft) S-SW 196 0 min 0,000 mm 0,0 UV-I 0 W/m 1,3 C 2,8 C 4,8 km/h (1 Bft) 100,00 %
28.02.2016 20:17 2,7 C 90 % 1009,8 hPa 0,0 l/m 2,7 km/h (1 Bft) S-SW 196 0 min 0,000 mm 0,0 UV-I 0 W/m 1,2 C 2,7 C 3,2 km/h (1 Bft) 91,30 %
28.02.2016 20:18 2,7 C 91 % 1009,8 hPa 0,0 l/m 2,6 km/h (1 Bft) S-SW 196 0 min 0,000 mm 0,0 UV-I 0 W/m 1,4 C 2,7 C 3,2 km/h (1 Bft) 100,00 %
28.02.2016 20:19 2,7 C 91 % 1009,7 hPa 0,0 l/m 2,9 km/h (1 Bft) S-SW 196 0 min 0,000 mm 0,0 UV-I 0 W/m 1,4 C 2,7 C 3,2 km/h (1 Bft) 96,15 %
28.02.2016 20:20 2,7 C 91 % 1009,8 hPa 0,0 l/m 2,5 km/h (1 Bft) S-SW 196 0 min 0,000 mm 0,0 UV-I 0 W/m 1,4 C 2,7 C 3,2 km/h (1 Bft) 100,00 %
28.02.2016 20:21 2,7 C 91 % 1009,8 hPa 0,0 l/m 1,7 km/h (1 Bft) S-SW 196 0 min 0,000 mm 0,0 UV-I 0 W/m 1,4 C 2,7 C 3,2 km/h (1 Bft) 100,00 %
28.02.2016 20:22 2,7 C 92 % 1009,7 hPa 0,0 l/m 1,4 km/h (1 Bft) S-SW 196 0 min 0,000 mm 0,0 UV-I 0 W/m 1,5 C 2,7 C 3,2 km/h (1 Bft) 94,44 %
28.02.2016 20:23 2,8 C 92 % 1009,8 hPa 0,0 l/m 0,0 km/h (0 Bft) S-SW 196 0 min 0,000 mm 0,0 UV-I 0 W/m 1,6 C 2,8 C 0,0 km/h (0 Bft) 100,00 %
28.02.2016 20:24 2,7 C 92 % 1009,8 hPa 0,0 l/m 0,1 km/h (0 Bft) S-SW 196 0 min 0,000 mm 0,0 UV-I 0 W/m 1,5 C 2,7 C 1,6 km/h (1 Bft) 95,65 %
28.02.2016 20:25 2,7 C 92 % 1009,8 hPa 0,0 l/m 0,9 km/h (0 Bft) S-SW 196 0 min 0,000 mm 0,0 UV-I 0 W/m 1,5 C 2,7 C 1,6 km/h (1 Bft) 100,00 %
28.02.2016 20:26 2,7 C 92 % 1009,8 hPa 0,0 l/m 0,6 km/h (0 Bft) S-SW 196 0 min 0,000 mm 0,0 UV-I 0 W/m 1,5 C 2,7 C 1,6 km/h (1 Bft) 96,15 %
28.02.2016 20:27 2,8 C 92 % 1009,9 hPa 0,0 l/m 0,3 km/h (0 Bft) S-SW 196 0 min 0,000 mm 0,0 UV-I 0 W/m 1,6 C 2,8 C 1,6 km/h (1 Bft) 95,83 %
28.02.2016 20:28 2,8 C 92 % 1009,9 hPa 0,0 l/m 0,6 km/h (0 Bft) S-SW 196 0 min 0,000 mm 0,0 UV-I 0 W/m 1,6 C 2,8 C 1,6 km/h (1 Bft) 100,00 %
28.02.2016 20:29 2,9 C 92 % 1009,9 hPa 0,0 l/m 0,1 km/h (0 Bft) S-SW 196 0 min 0,000 mm 0,0 UV-I 0 W/m 1,7 C 2,9 C 1,6 km/h (1 Bft) 100,00 %
28.02.2016 20:30 3,0 C 93 % 1009,9 hPa 0,0 l/m 0,1 km/h (0 Bft) S-SW 196 0 min 0,000 mm 0,0 UV-I 0 W/m 2,0 C 3,0 C 1,6 km/h (1 Bft) 100,00 %
28.02.2016 20:31 3,1 C 93 % 1009,9 hPa 0,0 l/m 0,0 km/h (0 Bft) S-SW 196 0 min 0,000 mm 0,0 UV-I 0 W/m 2,1 C 3,1 C 0,0 km/h (0 Bft) 95,83 %
28.02.2016 20:32 3,0 C 92 % 1009,9 hPa 0,0 l/m 0,2 km/h (0 Bft) S-SW 196 0 min 0,000 mm 0,0 UV-I 0 W/m 1,8 C 3,0 C 1,6 km/h (1 Bft) 100,00 %
28.02.2016 20:33 2,9 C 91 % 1009,8 hPa 0,0 l/m 0,1 km/h (0 Bft) S-SW 196 0 min 0,000 mm 0,0 UV-I 0 W/m 1,6 C 2,9 C 1,6 km/h (1 Bft) 100,00 %
28.02.2016 20:34 2,9 C 91 % 1009,8 hPa 0,0 l/m 0,2 km/h (0 Bft) S-SW 196 0 min 0,000 mm 0,0 UV-I 0 W/m 1,6 C 2,9 C 1,6 km/h (1 Bft) 100,00 %
28.02.2016 20:35 2,9 C 92 % 1009,8 hPa 0,0 l/m 0,1 km/h (0 Bft) S-SW 196 0 min 0,000 mm 0,0 UV-I 0 W/m 1,7 C 2,9 C 1,6 km/h (1 Bft) 100,00 %
28.02.2016 20:36 3,0 C 92 % 1009,7 hPa 0,0 l/m 0,2 km/h (0 Bft) S-SW 196 0 min 0,000 mm 0,0 UV-I 0 W/m 1,8 C 3,0 C 1,6 km/h (1 Bft) 96,55 %
28.02.2016 20:37 3,1 C 92 % 1009,7 hPa 0,0 l/m 1,0 km/h (0 Bft) S-SW 196 0 min 0,000 mm 0,0 UV-I 0 W/m 1,9 C 3,1 C 1,6 km/h (1 Bft) 100,00 %
28.02.2016 20:38 3,1 C 91 % 1009,8 hPa 0,0 l/m 1,7 km/h (1 Bft) S-SW 196 0 min 0,000 mm 0,0 UV-I 0 W/m 1,8 C 3,1 C 3,2 km/h (1 Bft) 95,65 %
28.02.2016 20:39 3,1 C 91 % 1009,8 hPa 0,0 l/m 0,2 km/h (0 Bft) S-SW 196 0 min 0,000 mm 0,0 UV-I 0 W/m 1,8 C 3,1 C 1,6 km/h (1 Bft) 100,00 %
28.02.2016 20:40 3,0 C 91 % 1009,8 hPa 0,0 l/m 0,3 km/h (0 Bft) S-SW 196 0 min 0,000 mm 0,0 UV-I 0 W/m 1,7 C 3,0 C 1,6 km/h (1 Bft) 100,00 %
28.02.2016 20:41 3,0 C 92 % 1009,8 hPa 0,0 l/m 0,8 km/h (0 Bft) S-SW 196 0 min 0,000 mm 0,0 UV-I 0 W/m 1,8 C 3,0 C 1,6 km/h (1 Bft) 100,00 %
28.02.2016 20:42 3,1 C 92 % 1009,8 hPa 0,0 l/m 1,3 km/h (1 Bft) S-SW 196 0 min 0,000 mm 0,0 UV-I 0 W/m 1,9 C 3,1 C 3,2 km/h (1 Bft) 100,00 %
28.02.2016 20:43 3,1 C 92 % 1009,8 hPa 0,0 l/m 1,3 km/h (1 Bft) S-SW 196 0 min 0,000 mm 0,0 UV-I 0 W/m 1,9 C 3,1 C 1,6 km/h (1 Bft) 100,00 %
28.02.2016 20:44 3,1 C 91 % 1009,8 hPa 0,0 l/m 1,3 km/h (1 Bft) S-SW 196 0 min 0,000 mm 0,0 UV-I 0 W/m 1,8 C 3,1 C 3,2 km/h (1 Bft) 100,00 %
28.02.2016 20:45 3,1 C 91 % 1009,8 hPa 0,0 l/m 1,0 km/h (0 Bft) S-SW 196 0 min 0,000 mm 0,0 UV-I 0 W/m 1,8 C 3,1 C 1,6 km/h (1 Bft) 100,00 %
28.02.2016 20:46 3,0 C 91 % 1009,9 hPa 0,0 l/m 1,3 km/h (1 Bft) S-SW 196 0 min 0,000 mm 0,0 UV-I 0 W/m 1,7 C 3,0 C 3,2 km/h (1 Bft) 100,00 %
28.02.2016 20:47 3,0 C 91 % 1009,9 hPa 0,0 l/m 2,4 km/h (1 Bft) S-SW 196 0 min 0,000 mm 0,0 UV-I 0 W/m 1,7 C 3,0 C 3,2 km/h (1 Bft) 100,00 %
28.02.2016 20:48 3,1 C 91 % 1009,9 hPa 0,0 l/m 2,1 km/h (1 Bft) S-SW 196 0 min 0,000 mm 0,0 UV-I 0 W/m 1,8 C 3,1 C 3,2 km/h (1 Bft) 100,00 %
28.02.2016 20:49 3,1 C 92 % 1009,9 hPa 0,0 l/m 0,6 km/h (0 Bft) S-SW 196 0 min 0,000 mm 0,0 UV-I 0 W/m 1,9 C 3,1 C 1,6 km/h (1 Bft) 100,00 %
28.02.2016 20:50 3,1 C 92 % 1009,9 hPa 0,0 l/m 0,9 km/h (0 Bft) S-SW 196 0 min 0,000 mm 0,0 UV-I 0 W/m 1,9 C 3,1 C 1,6 km/h (1 Bft) 100,00 %
28.02.2016 20:51 3,1 C 92 % 1009,9 hPa 0,0 l/m 0,7 km/h (0 Bft) S-SW 196 0 min 0,000 mm 0,0 UV-I 0 W/m 1,9 C 3,1 C 1,6 km/h (1 Bft) 100,00 %
28.02.2016 20:52 3,2 C 92 % 1010,0 hPa 0,0 l/m 0,6 km/h (0 Bft) S-SW 196 0 min 0,000 mm 0,0 UV-I 0 W/m 2,0 C 3,2 C 1,6 km/h (1 Bft) 100,00 %
28.02.2016 20:53 3,2 C 92 % 1010,0 hPa 0,0 l/m 1,4 km/h (1 Bft) S-SW 196 0 min 0,000 mm 0,0 UV-I 0 W/m 2,0 C 3,2 C 3,2 km/h (1 Bft) 100,00 %
28.02.2016 20:54 3,2 C 92 % 1010,0 hPa 0,0 l/m 1,2 km/h (1 Bft) S-SW 195 0 min 0,000 mm 0,0 UV-I 0 W/m 2,0 C 3,2 C 1,6 km/h (1 Bft) 100,00 %
28.02.2016 20:55 3,3 C 92 % 1010,0 hPa 0,0 l/m 0,5 km/h (0 Bft) S-SW 195 0 min 0,000 mm 0,0 UV-I 0 W/m 2,1 C 3,3 C 1,6 km/h (1 Bft) 96,15 %
28.02.2016 20:56 3,3 C 91 % 1010,0 hPa 0,0 l/m 0,6 km/h (0 Bft) S-SW 195 0 min 0,000 mm 0,0 UV-I 0 W/m 2,0 C 3,3 C 1,6 km/h (1 Bft) 100,00 %
28.02.2016 20:57 3,3 C 91 % 1010,0 hPa 0,0 l/m 0,9 km/h (0 Bft) S-SW 195 0 min 0,000 mm 0,0 UV-I 0 W/m 2,0 C 3,3 C 1,6 km/h (1 Bft) 96,15 %
28.02.2016 20:58 3,3 C 91 % 1010,0 hPa 0,0 l/m 0,7 km/h (0 Bft) S-SW 195 0 min 0,000 mm 0,0 UV-I 0 W/m 2,0 C 3,3 C 1,6 km/h (1 Bft) 100,00 %
28.02.2016 20:59 3,3 C 91 % 1010,0 hPa 0,0 l/m 0,8 km/h (0 Bft) S-SW 195 0 min 0,000 mm 0,0 UV-I 0 W/m 2,0 C 3,3 C 1,6 km/h (1 Bft) 100,00 %
28.02.2016 21:00 3,3 C 91 % 1010,0 hPa 0,0 l/m 1,7 km/h (1 Bft) S-SW 195 0 min 0,000 mm 0,0 UV-I 0 W/m 2,0 C 3,3 C 3,2 km/h (1 Bft) 100,00 %
28.02.2016 21:02 3,3 C 90 % 1010,0 hPa 0,0 l/m 2,2 km/h (1 Bft) S-SW 195 0 min 0,000 mm 0,0 UV-I 0 W/m 1,8 C 3,3 C 4,8 km/h (1 Bft) 100,00 %
28.02.2016 21:03 3,2 C 90 % 1010,0 hPa 0,0 l/m 1,0 km/h (0 Bft) S-SW 195 0 min 0,000 mm 0,0 UV-I 0 W/m 1,7 C 3,2 C 1,6 km/h (1 Bft) 100,00 %
28.02.2016 21:04 3,1 C 90 % 1010,0 hPa 0,0 l/m 2,1 km/h (1 Bft) S-SW 195 0 min 0,000 mm 0,0 UV-I 0 W/m 1,6 C 3,1 C 3,2 km/h (1 Bft) 100,00 %
28.02.2016 21:05 3,0 C 90 % 1010,1 hPa 0,0 l/m 2,9 km/h (1 Bft) S-SW 195 0 min 0,000 mm 0,0 UV-I 0 W/m 1,5 C 3,0 C 4,8 km/h (1 Bft) 91,30 %
28.02.2016 21:06 2,9 C 90 % 1010,1 hPa 0,0 l/m 1,7 km/h (1 Bft) S-SW 195 0 min 0,000 mm 0,0 UV-I 0 W/m 1,4 C 2,9 C 3,2 km/h (1 Bft) 100,00 %
28.02.2016 21:07 2,8 C 90 % 1010,1 hPa 0,0 l/m 0,7 km/h (0 Bft) S-SW 195 0 min 0,000 mm 0,0 UV-I 0 W/m 1,3 C 2,8 C 1,6 km/h (1 Bft) 100,00 %
28.02.2016 21:08 2,7 C 91 % 1010,1 hPa 0,0 l/m 2,5 km/h (1 Bft) S-SW 195 0 min 0,000 mm 0,0 UV-I 0 W/m 1,4 C 2,7 C 3,2 km/h (1 Bft) 100,00 %
28.02.2016 21:09 2,6 C 91 % 1010,0 hPa 0,0 l/m 1,7 km/h (1 Bft) S-SW 195 0 min 0,000 mm 0,0 UV-I 0 W/m 1,3 C 2,6 C 3,2 km/h (1 Bft) 100,00 %
28.02.2016 21:10 2,5 C 91 % 1010,0 hPa 0,0 l/m 2,2 km/h (1 Bft) S-SW 195 0 min 0,000 mm 0,0 UV-I 0 W/m 1,2 C 2,5 C 3,2 km/h (1 Bft) 100,00 %
28.02.2016 21:11 2,4 C 91 % 1010,0 hPa 0,0 l/m 4,0 km/h (1 Bft) W-SW 248 0 min 0,000 mm 0,0 UV-I 0 W/m 1,1 C 2,4 C 4,8 km/h (1 Bft) 100,00 %
28.02.2016 21:12 2,3 C 91 % 1009,9 hPa 0,0 l/m 3,8 km/h (1 Bft) W-SW 248 0 min 0,000 mm 0,0 UV-I 0 W/m 1,0 C 2,3 C 4,8 km/h (1 Bft) 100,00 %
28.02.2016 21:13 2,3 C 91 % 1010,0 hPa 0,0 l/m 3,4 km/h (1 Bft) W-SW 248 0 min 0,000 mm 0,0 UV-I 0 W/m 1,0 C 2,3 C 4,8 km/h (1 Bft) 100,00 %
28.02.2016 21:14 2,2 C 91 % 1010,0 hPa 0,0 l/m 3,4 km/h (1 Bft) W-SW 248 0 min 0,000 mm 0,0 UV-I 0 W/m 0,9 C 2,2 C 4,8 km/h (1 Bft) 96,15 %
28.02.2016 21:15 2,2 C 91 % 1010,0 hPa 0,0 l/m 2,9 km/h (1 Bft) W-SW 247 0 min 0,000 mm 0,0 UV-I 0 W/m 0,9 C 2,2 C 4,8 km/h (1 Bft) 100,00 %
28.02.2016 21:16 2,1 C 92 % 1010,1 hPa 0,0 l/m 2,0 km/h (1 Bft) S-SW 198 0 min 0,000 mm 0,0 UV-I 0 W/m 0,9 C 2,1 C 3,2 km/h (1 Bft) 100,00 %
28.02.2016 21:17 2,1 C 92 % 1010,1 hPa 0,0 l/m 3,6 km/h (1 Bft) S 173 0 min 0,000 mm 0,0 UV-I 0 W/m 0,9 C 2,1 C 6,4 km/h (2 Bft) 100,00 %
28.02.2016 21:18 2,1 C 92 % 1010,2 hPa 0,0 l/m 1,6 km/h (1 Bft) S 173 0 min 0,000 mm 0,0 UV-I 0 W/m 0,9 C 2,1 C 3,2 km/h (1 Bft) 91,30 %
28.02.2016 21:19 2,0 C 92 % 1010,2 hPa 0,0 l/m 1,1 km/h (1 Bft) S 173 0 min 0,000 mm 0,0 UV-I 0 W/m 0,8 C 2,0 C 3,2 km/h (1 Bft) 100,00 %
28.02.2016 21:20 1,9 C 92 % 1010,2 hPa 0,0 l/m 0,9 km/h (0 Bft) S 173 0 min 0,000 mm 0,0 UV-I 0 W/m 0,7 C 1,9 C 1,6 km/h (1 Bft) 100,00 %
28.02.2016 21:21 1,9 C 92 % 1010,2 hPa 0,0 l/m 0,6 km/h (0 Bft) S 173 0 min 0,000 mm 0,0 UV-I 0 W/m 0,7 C 1,9 C 1,6 km/h (1 Bft) 100,00 %
28.02.2016 21:22 1,9 C 92 % 1010,2 hPa 0,0 l/m 0,3 km/h (0 Bft) S 173 0 min 0,000 mm 0,0 UV-I 0 W/m 0,7 C 1,9 C 1,6 km/h (1 Bft) 100,00 %
28.02.2016 21:23 1,8 C 93 % 1010,2 hPa 0,0 l/m 0,1 km/h (0 Bft) S 173 0 min 0,000 mm 0,0 UV-I 0 W/m 0,8 C 1,8 C 1,6 km/h (1 Bft) 100,00 %
28.02.2016 21:24 1,8 C 93 % 1010,2 hPa 0,0 l/m 0,3 km/h (0 Bft) S 173 0 min 0,000 mm 0,0 UV-I 0 W/m 0,8 C 1,8 C 1,6 km/h (1 Bft) 100,00 %
28.02.2016 21:25 1,8 C 93 % 1010,2 hPa 0,0 l/m 2,0 km/h (1 Bft) S 173 0 min 0,000 mm 0,0 UV-I 0 W/m 0,8 C 1,8 C 3,2 km/h (1 Bft) 100,00 %
28.02.2016 21:26 1,8 C 94 % 1010,2 hPa 0,0 l/m 2,2 km/h (1 Bft) S 173 0 min 0,000 mm 0,0 UV-I 0 W/m 0,9 C 1,8 C 3,2 km/h (1 Bft) 100,00 %
28.02.2016 21:27 1,8 C 94 % 1010,2 hPa 0,0 l/m 2,8 km/h (1 Bft) S 173 0 min 0,000 mm 0,0 UV-I 0 W/m 0,9 C 1,8 C 4,8 km/h (1 Bft) 100,00 %
28.02.2016 21:28 1,8 C 94 % 1010,2 hPa 0,0 l/m 3,9 km/h (1 Bft) S 173 0 min 0,000 mm 0,0 UV-I 0 W/m 0,9 C 1,8 C 4,8 km/h (1 Bft) 100,00 %
28.02.2016 21:29 1,9 C 94 % 1010,2 hPa 0,0 l/m 2,9 km/h (1 Bft) S 173 0 min 0,000 mm 0,0 UV-I 0 W/m 1,0 C 1,9 C 4,8 km/h (1 Bft) 96,15 %
28.02.2016 21:30 1,9 C 94 % 1010,2 hPa 0,0 l/m 2,5 km/h (1 Bft) S 173 0 min 0,000 mm 0,0 UV-I 0 W/m 1,0 C 1,9 C 3,2 km/h (1 Bft) 100,00 %
28.02.2016 21:31 2,0 C 94 % 1010,2 hPa 0,0 l/m 1,7 km/h (1 Bft) S 173 0 min 0,000 mm 0,0 UV-I 0 W/m 1,1 C 2,0 C 3,2 km/h (1 Bft) 100,00 %
28.02.2016 21:32 2,0 C 94 % 1010,2 hPa 0,0 l/m 1,4 km/h (1 Bft) S 173 0 min 0,000 mm 0,0 UV-I 0 W/m 1,1 C 2,0 C 3,2 km/h (1 Bft) 100,00 %
28.02.2016 21:33 2,0 C 94 % 1010,2 hPa 0,0 l/m 0,7 km/h (0 Bft) S 173 0 min 0,000 mm 0,0 UV-I 0 W/m 1,1 C 2,0 C 1,6 km/h (1 Bft) 96,15 %
28.02.2016 21:34 2,0 C 94 % 1010,2 hPa 0,0 l/m 1,3 km/h (1 Bft) S 173 0 min 0,000 mm 0,0 UV-I 0 W/m 1,1 C 2,0 C 1,6 km/h (1 Bft) 100,00 %
28.02.2016 21:35 2,0 C 93 % 1010,2 hPa 0,0 l/m 0,1 km/h (0 Bft) S 173 0 min 0,000 mm 0,0 UV-I 0 W/m 1,0 C 2,0 C 1,6 km/h (1 Bft) 100,00 %
28.02.2016 21:36 2,0 C 93 % 1010,2 hPa 0,0 l/m 0,0 km/h (0 Bft) S 173 0 min 0,000 mm 0,0 UV-I 0 W/m 1,0 C 2,0 C 0,0 km/h (0 Bft) 100,00 %
28.02.2016 21:37 2,0 C 93 % 1010,1 hPa 0,0 l/m 0,1 km/h (0 Bft) S 173 0 min 0,000 mm 0,0 UV-I 0 W/m 1,0 C 2,0 C 1,6 km/h (1 Bft) 100,00 %
28.02.2016 21:38 2,0 C 94 % 1010,2 hPa 0,0 l/m 0,5 km/h (0 Bft) S 173 0 min 0,000 mm 0,0 UV-I 0 W/m 1,1 C 2,0 C 1,6 km/h (1 Bft) 100,00 %
28.02.2016 21:39 2,0 C 94 % 1010,1 hPa 0,0 l/m 1,2 km/h (1 Bft) S 173 0 min 0,000 mm 0,0 UV-I 0 W/m 1,1 C 2,0 C 1,6 km/h (1 Bft) 100,00 %
28.02.2016 21:40 2,0 C 93 % 1010,1 hPa 0,0 l/m 1,2 km/h (1 Bft) S 173 0 min 0,000 mm 0,0 UV-I 0 W/m 1,0 C 2,0 C 1,6 km/h (1 Bft) 100,00 %
28.02.2016 21:41 2,0 C 93 % 1010,2 hPa 0,0 l/m 1,3 km/h (1 Bft) S 173 0 min 0,000 mm 0,0 UV-I 0 W/m 1,0 C 2,0 C 1,6 km/h (1 Bft) 100,00 %
28.02.2016 21:42 1,9 C 93 % 1010,2 hPa 0,0 l/m 0,2 km/h (0 Bft) S 173 0 min 0,000 mm 0,0 UV-I 0 W/m 0,9 C 1,9 C 1,6 km/h (1 Bft) 100,00 %
28.02.2016 21:43 1,9 C 93 % 1010,2 hPa 0,0 l/m 0,0 km/h (0 Bft) S 173 0 min 0,000 mm 0,0 UV-I 0 W/m 0,9 C 1,9 C 0,0 km/h (0 Bft) 100,00 %
28.02.2016 21:44 1,9 C 93 % 1010,2 hPa 0,0 l/m 0,9 km/h (0 Bft) S 173 0 min 0,000 mm 0,0 UV-I 0 W/m 0,9 C 1,9 C 3,2 km/h (1 Bft) 100,00 %
28.02.2016 21:45 1,9 C 93 % 1010,2 hPa 0,0 l/m 1,2 km/h (1 Bft) S 173 0 min 0,000 mm 0,0 UV-I 0 W/m 0,9 C 1,9 C 3,2 km/h (1 Bft) 100,00 %
28.02.2016 21:46 1,9 C 93 % 1010,2 hPa 0,0 l/m 1,7 km/h (1 Bft) S 173 0 min 0,000 mm 0,0 UV-I 0 W/m 0,9 C 1,9 C 3,2 km/h (1 Bft) 100,00 %
28.02.2016 21:47 1,9 C 93 % 1010,2 hPa 0,0 l/m 2,9 km/h (1 Bft) S 173 0 min 0,000 mm 0,0 UV-I 0 W/m 0,9 C 1,9 C 3,2 km/h (1 Bft) 100,00 %
28.02.2016 21:48 1,8 C 94 % 1010,2 hPa 0,0 l/m 3,6 km/h (1 Bft) S 173 0 min 0,000 mm 0,0 UV-I 0 W/m 0,9 C 1,8 C 4,8 km/h (1 Bft) 100,00 %
28.02.2016 21:49 1,8 C 93 % 1010,2 hPa 0,0 l/m 3,9 km/h (1 Bft) S 173 0 min 0,000 mm 0,0 UV-I 0 W/m 0,8 C 1,8 C 4,8 km/h (1 Bft) 100,00 %
28.02.2016 21:50 1,8 C 93 % 1010,4 hPa 0,0 l/m 3,8 km/h (1 Bft) S 173 0 min 0,000 mm 0,0 UV-I 0 W/m 0,8 C 1,8 C 4,8 km/h (1 Bft) 100,00 %
28.02.2016 21:51 1,8 C 93 % 1010,3 hPa 0,0 l/m 2,5 km/h (1 Bft) S 173 0 min 0,000 mm 0,0 UV-I 0 W/m 0,8 C 1,8 C 4,8 km/h (1 Bft) 100,00 %
28.02.2016 21:52 1,7 C 93 % 1010,4 hPa 0,0 l/m 1,2 km/h (1 Bft) S 173 0 min 0,000 mm 0,0 UV-I 0 W/m 0,7 C 1,7 C 3,2 km/h (1 Bft) 95,65 %
28.02.2016 21:53 1,7 C 93 % 1010,4 hPa 0,0 l/m 2,6 km/h (1 Bft) S 173 0 min 0,000 mm 0,0 UV-I 0 W/m 0,7 C 1,7 C 3,2 km/h (1 Bft) 100,00 %
28.02.2016 21:54 1,7 C 93 % 1010,4 hPa 0,0 l/m 3,1 km/h (1 Bft) S 173 0 min 0,000 mm 0,0 UV-I 0 W/m 0,7 C 1,7 C 4,8 km/h (1 Bft) 100,00 %
28.02.2016 21:55 1,7 C 94 % 1010,4 hPa 0,0 l/m 3,4 km/h (1 Bft) S 173 0 min 0,000 mm 0,0 UV-I 0 W/m 0,8 C 1,7 C 4,8 km/h (1 Bft) 100,00 %
28.02.2016 21:56 1,7 C 94 % 1010,3 hPa 0,0 l/m 2,4 km/h (1 Bft) S 173 0 min 0,000 mm 0,0 UV-I 0 W/m 0,8 C 1,7 C 3,2 km/h (1 Bft) 100,00 %
28.02.2016 21:57 1,7 C 94 % 1010,3 hPa 0,0 l/m 1,9 km/h (1 Bft) S 173 0 min 0,000 mm 0,0 UV-I 0 W/m 0,8 C 1,7 C 3,2 km/h (1 Bft) 100,00 %
28.02.2016 21:58 1,8 C 94 % 1010,3 hPa 0,0 l/m 2,9 km/h (1 Bft) S 173 0 min 0,000 mm 0,0 UV-I 0 W/m 0,9 C 1,8 C 3,2 km/h (1 Bft) 100,00 %
28.02.2016 21:59 1,8 C 94 % 1010,3 hPa 0,0 l/m 2,7 km/h (1 Bft) S 173 0 min 0,000 mm 0,0 UV-I 0 W/m 0,9 C 1,8 C 3,2 km/h (1 Bft) 100,00 %
28.02.2016 22:00 1,8 C 94 % 1010,3 hPa 0,0 l/m 2,6 km/h (1 Bft) S 173 0 min 0,000 mm 0,0 UV-I 0 W/m 0,9 C 1,8 C 4,8 km/h (1 Bft) 92,86 %
28.02.2016 22:01 1,9 C 94 % 1010,3 hPa 0,0 l/m 4,7 km/h (1 Bft) S-SW 198 0 min 0,000 mm 0,0 UV-I 0 W/m 1,0 C 1,9 C 4,8 km/h (1 Bft) 92,59 %
28.02.2016 22:02 1,9 C 94 % 1010,4 hPa 0,0 l/m 4,4 km/h (1 Bft) S-SW 198 0 min 0,000 mm 0,0 UV-I 0 W/m 1,0 C 1,9 C 4,8 km/h (1 Bft) 96,15 %
28.02.2016 22:03 1,9 C 94 % 1010,3 hPa 0,0 l/m 3,2 km/h (1 Bft) S-SW 198 0 min 0,000 mm 0,0 UV-I 0 W/m 1,0 C 1,9 C 4,8 km/h (1 Bft) 100,00 %
28.02.2016 22:04 1,9 C 94 % 1010,4 hPa 0,0 l/m 3,1 km/h (1 Bft) S-SW 198 0 min 0,000 mm 0,0 UV-I 0 W/m 1,0 C 1,9 C 4,8 km/h (1 Bft) 95,65 %
28.02.2016 22:05 1,9 C 94 % 1010,3 hPa 0,0 l/m 1,0 km/h (0 Bft) S-SW 198 0 min 0,000 mm 0,0 UV-I 0 W/m 1,0 C 1,9 C 1,6 km/h (1 Bft) 100,00 %
28.02.2016 22:06 1,9 C 94 % 1010,3 hPa 0,0 l/m 0,6 km/h (0 Bft) S-SW 198 0 min 0,000 mm 0,0 UV-I 0 W/m 1,0 C 1,9 C 1,6 km/h (1 Bft) 91,67 %
28.02.2016 22:07 1,8 C 94 % 1010,3 hPa 0,0 l/m 0,1 km/h (0 Bft) S-SW 198 0 min 0,000 mm 0,0 UV-I 0 W/m 0,9 C 1,8 C 1,6 km/h (1 Bft) 100,00 %
28.02.2016 22:08 1,8 C 93 % 1010,3 hPa 0,0 l/m 0,2 km/h (0 Bft) S-SW 198 0 min 0,000 mm 0,0 UV-I 0 W/m 0,8 C 1,8 C 1,6 km/h (1 Bft) 95,83 %
28.02.2016 22:09 1,8 C 94 % 1010,3 hPa 0,0 l/m 0,1 km/h (0 Bft) S-SW 198 0 min 0,000 mm 0,0 UV-I 0 W/m 0,9 C 1,8 C 1,6 km/h (1 Bft) 100,00 %
28.02.2016 22:10 1,8 C 94 % 1010,3 hPa 0,0 l/m 0,6 km/h (0 Bft) S-SW 198 0 min 0,000 mm 0,0 UV-I 0 W/m 0,9 C 1,8 C 3,2 km/h (1 Bft) 95,83 %
28.02.2016 22:11 1,9 C 94 % 1010,3 hPa 0,0 l/m 0,5 km/h (0 Bft) S-SW 198 0 min 0,000 mm 0,0 UV-I 0 W/m 1,0 C 1,9 C 1,6 km/h (1 Bft) 95,65 %
28.02.2016 22:12 1,9 C 94 % 1010,3 hPa 0,0 l/m 0,8 km/h (0 Bft) S-SW 198 0 min 0,000 mm 0,0 UV-I 0 W/m 1,0 C 1,9 C 1,6 km/h (1 Bft) 100,00 %
28.02.2016 22:13 1,9 C 94 % 1010,3 hPa 0,0 l/m 0,1 km/h (0 Bft) S-SW 198 0 min 0,000 mm 0,0 UV-I 0 W/m 1,0 C 1,9 C 1,6 km/h (1 Bft) 95,65 %
28.02.2016 22:14 2,0 C 95 % 1010,3 hPa 0,0 l/m 0,0 km/h (0 Bft) S-SW 198 0 min 0,000 mm 0,0 UV-I 0 W/m 1,3 C 2,0 C 0,0 km/h (0 Bft) 100,00 %
28.02.2016 22:15 2,1 C 95 % 1010,3 hPa 0,0 l/m 0,0 km/h (0 Bft) S-SW 198 0 min 0,000 mm 0,0 UV-I 0 W/m 1,4 C 2,1 C 0,0 km/h (0 Bft) 92,86 %
28.02.2016 22:16 2,1 C 94 % 1010,3 hPa 0,0 l/m 0,1 km/h (0 Bft) S-SW 198 0 min 0,000 mm 0,0 UV-I 0 W/m 1,2 C 2,1 C 1,6 km/h (1 Bft) 100,00 %
28.02.2016 22:17 2,1 C 94 % 1010,4 hPa 0,0 l/m 0,0 km/h (0 Bft) S-SW 198 0 min 0,000 mm 0,0 UV-I 0 W/m 1,2 C 2,1 C 0,0 km/h (0 Bft) 95,65 %
28.02.2016 22:18 2,1 C 94 % 1010,3 hPa 0,0 l/m 0,0 km/h (0 Bft) S-SW 198 0 min 0,000 mm 0,0 UV-I 0 W/m 1,2 C 2,1 C 0,0 km/h (0 Bft) 100,00 %
28.02.2016 22:19 2,1 C 94 % 1010,4 hPa 0,0 l/m 0,0 km/h (0 Bft) S-SW 198 0 min 0,000 mm 0,0 UV-I 0 W/m 1,2 C 2,1 C 0,0 km/h (0 Bft) 95,65 %
28.02.2016 22:20 2,0 C 94 % 1010,3 hPa 0,0 l/m 0,0 km/h (0 Bft) S-SW 198 0 min 0,000 mm 0,0 UV-I 0 W/m 1,1 C 2,0 C 0,0 km/h (0 Bft) 95,83 %
28.02.2016 22:21 1,9 C 94 % 1010,3 hPa 0,0 l/m 1,0 km/h (0 Bft) S-SW 198 0 min 0,000 mm 0,0 UV-I 0 W/m 1,0 C 1,9 C 3,2 km/h (1 Bft) 100,00 %
28.02.2016 22:22 1,9 C 94 % 1010,3 hPa 0,0 l/m 0,2 km/h (0 Bft) S-SW 198 0 min 0,000 mm 0,0 UV-I 0 W/m 1,0 C 1,9 C 1,6 km/h (1 Bft) 92,59 %
28.02.2016 22:23 1,9 C 94 % 1010,3 hPa 0,0 l/m 0,1 km/h (0 Bft) S-SW 198 0 min 0,000 mm 0,0 UV-I 0 W/m 1,0 C 1,9 C 1,6 km/h (1 Bft) 100,00 %
28.02.2016 22:24 2,0 C 94 % 1010,2 hPa 0,0 l/m 1,4 km/h (1 Bft) S-SW 198 0 min 0,000 mm 0,0 UV-I 0 W/m 1,1 C 2,0 C 1,6 km/h (1 Bft) 96,15 %
28.02.2016 22:25 2,0 C 94 % 1010,2 hPa 0,0 l/m 0,7 km/h (0 Bft) S-SW 198 0 min 0,000 mm 0,0 UV-I 0 W/m 1,1 C 2,0 C 1,6 km/h (1 Bft) 100,00 %
28.02.2016 22:26 2,0 C 94 % 1010,2 hPa 0,0 l/m 0,0 km/h (0 Bft) S-SW 198 0 min 0,000 mm 0,0 UV-I 0 W/m 1,1 C 2,0 C 0,0 km/h (0 Bft) 95,65 %
28.02.2016 22:27 1,9 C 94 % 1010,2 hPa 0,0 l/m 0,0 km/h (0 Bft) S-SW 198 0 min 0,000 mm 0,0 UV-I 0 W/m 1,0 C 1,9 C 0,0 km/h (0 Bft) 91,67 %
28.02.2016 22:28 1,8 C 94 % 1010,2 hPa 0,0 l/m 0,9 km/h (0 Bft) S-SW 198 0 min 0,000 mm 0,0 UV-I 0 W/m 0,9 C 1,8 C 3,2 km/h (1 Bft) 96,15 %
28.02.2016 22:29 1,8 C 93 % 1010,1 hPa 0,0 l/m 1,7 km/h (1 Bft) S-SW 198 0 min 0,000 mm 0,0 UV-I 0 W/m 0,8 C 1,8 C 3,2 km/h (1 Bft) 100,00 %
28.02.2016 22:30 1,7 C 93 % 1010,2 hPa 0,0 l/m 1,9 km/h (1 Bft) S-SW 198 0 min 0,000 mm 0,0 UV-I 0 W/m 0,7 C 1,7 C 3,2 km/h (1 Bft) 96,15 %
28.02.2016 22:31 1,7 C 94 % 1010,2 hPa 0,0 l/m 0,2 km/h (0 Bft) S-SW 198 0 min 0,000 mm 0,0 UV-I 0 W/m 0,8 C 1,7 C 1,6 km/h (1 Bft) 96,30 %
28.02.2016 22:32 1,7 C 94 % 1010,2 hPa 0,0 l/m 0,0 km/h (0 Bft) S-SW 198 0 min 0,000 mm 0,0 UV-I 0 W/m 0,8 C 1,7 C 0,0 km/h (0 Bft) 100,00 %
28.02.2016 22:33 1,6 C 94 % 1010,2 hPa 0,0 l/m 0,0 km/h (0 Bft) S-SW 198 0 min 0,000 mm 0,0 UV-I 0 W/m 0,7 C 1,6 C 0,0 km/h (0 Bft) 95,83 %
28.02.2016 22:34 1,5 C 93 % 1010,2 hPa 0,0 l/m 0,0 km/h (0 Bft) S-SW 198 0 min 0,000 mm 0,0 UV-I 0 W/m 0,5 C 1,5 C 0,0 km/h (0 Bft) 100,00 %
28.02.2016 22:35 1,5 C 93 % 1010,2 hPa 0,0 l/m 0,0 km/h (0 Bft) S-SW 198 0 min 0,000 mm 0,0 UV-I 0 W/m 0,5 C 1,5 C 0,0 km/h (0 Bft) 96,30 %
28.02.2016 22:36 1,6 C 94 % 1010,2 hPa 0,0 l/m 0,0 km/h (0 Bft) S-SW 198 0 min 0,000 mm 0,0 UV-I 0 W/m 0,7 C 1,6 C 0,0 km/h (0 Bft) 95,65 %
28.02.2016 22:37 1,6 C 95 % 1010,1 hPa 0,0 l/m 0,0 km/h (0 Bft) S-SW 198 0 min 0,000 mm 0,0 UV-I 0 W/m 0,9 C 1,6 C 0,0 km/h (0 Bft) 100,00 %
28.02.2016 22:38 1,6 C 94 % 1010,2 hPa 0,0 l/m 0,1 km/h (0 Bft) S-SW 198 0 min 0,000 mm 0,0 UV-I 0 W/m 0,7 C 1,6 C 1,6 km/h (1 Bft) 100,00 %
28.02.2016 22:39 1,6 C 94 % 1010,2 hPa 0,0 l/m 0,6 km/h (0 Bft) S-SW 198 0 min 0,000 mm 0,0 UV-I 0 W/m 0,7 C 1,6 C 1,6 km/h (1 Bft) 96,30 %
28.02.2016 22:40 1,6 C 94 % 1010,2 hPa 0,0 l/m 0,2 km/h (0 Bft) S-SW 198 0 min 0,000 mm 0,0 UV-I 0 W/m 0,7 C 1,6 C 1,6 km/h (1 Bft) 95,65 %
28.02.2016 22:41 1,6 C 94 % 1010,1 hPa 0,0 l/m 0,0 km/h (0 Bft) S-SW 198 0 min 0,000 mm 0,0 UV-I 0 W/m 0,7 C 1,6 C 0,0 km/h (0 Bft) 100,00 %
28.02.2016 22:42 1,6 C 94 % 1010,1 hPa 0,0 l/m 0,3 km/h (0 Bft) S-SW 198 0 min 0,000 mm 0,0 UV-I 0 W/m 0,7 C 1,6 C 1,6 km/h (1 Bft) 96,15 %
28.02.2016 22:43 1,5 C 94 % 1010,1 hPa 0,0 l/m 1,7 km/h (1 Bft) S-SW 198 0 min 0,000 mm 0,0 UV-I 0 W/m 0,6 C 1,5 C 3,2 km/h (1 Bft) 100,00 %
28.02.2016 22:44 1,4 C 94 % 1010,1 hPa 0,0 l/m 0,4 km/h (0 Bft) S-SW 198 0 min 0,000 mm 0,0 UV-I 0 W/m 0,5 C 1,4 C 1,6 km/h (1 Bft) 100,00 %
28.02.2016 22:45 1,4 C 94 % 1010,1 hPa 0,0 l/m 0,9 km/h (0 Bft) S-SW 198 0 min 0,000 mm 0,0 UV-I 0 W/m 0,5 C 1,4 C 1,6 km/h (1 Bft) 100,00 %
28.02.2016 22:46 1,4 C 94 % 1010,1 hPa 0,0 l/m 0,0 km/h (0 Bft) S-SW 198 0 min 0,000 mm 0,0 UV-I 0 W/m 0,5 C 1,4 C 0,0 km/h (0 Bft) 100,00 %
28.02.2016 22:47 1,4 C 94 % 1010,1 hPa 0,0 l/m 0,0 km/h (0 Bft) S-SW 198 0 min 0,000 mm 0,0 UV-I 0 W/m 0,5 C 1,4 C 0,0 km/h (0 Bft) 100,00 %
28.02.2016 22:48 1,4 C 94 % 1010,1 hPa 0,0 l/m 0,1 km/h (0 Bft) S-SW 198 0 min 0,000 mm 0,0 UV-I 0 W/m 0,5 C 1,4 C 1,6 km/h (1 Bft) 100,00 %
28.02.2016 22:49 1,4 C 94 % 1010,1 hPa 0,0 l/m 0,0 km/h (0 Bft) S-SW 198 0 min 0,000 mm 0,0 UV-I 0 W/m 0,5 C 1,4 C 0,0 km/h (0 Bft) 100,00 %
28.02.2016 22:50 1,3 C 94 % 1010,0 hPa 0,0 l/m 0,3 km/h (0 Bft) W 263 0 min 0,000 mm 0,0 UV-I 0 W/m 0,4 C 1,3 C 1,6 km/h (1 Bft) 100,00 %
28.02.2016 22:51 1,4 C 94 % 1010,0 hPa 0,0 l/m 2,2 km/h (1 Bft) W 263 0 min 0,000 mm 0,0 UV-I 0 W/m 0,5 C 1,4 C 3,2 km/h (1 Bft) 96,15 %
28.02.2016 22:52 1,6 C 95 % 1010,0 hPa 0,0 l/m 1,6 km/h (1 Bft) W 263 0 min 0,000 mm 0,0 UV-I 0 W/m 0,9 C 1,6 C 1,6 km/h (1 Bft) 100,00 %
28.02.2016 22:53 1,7 C 95 % 1010,0 hPa 0,0 l/m 0,4 km/h (0 Bft) W 263 0 min 0,000 mm 0,0 UV-I 0 W/m 1,0 C 1,7 C 1,6 km/h (1 Bft) 100,00 %
28.02.2016 22:54 1,9 C 95 % 1010,0 hPa 0,0 l/m 1,2 km/h (1 Bft) W 263 0 min 0,000 mm 0,0 UV-I 0 W/m 1,2 C 1,9 C 3,2 km/h (1 Bft) 100,00 %
28.02.2016 22:55 1,9 C 95 % 1010,0 hPa 0,0 l/m 1,5 km/h (1 Bft) W 263 0 min 0,000 mm 0,0 UV-I 0 W/m 1,2 C 1,9 C 1,6 km/h (1 Bft) 100,00 %
28.02.2016 22:56 2,0 C 95 % 1010,0 hPa 0,0 l/m 2,1 km/h (1 Bft) W 265 0 min 0,000 mm 0,0 UV-I 0 W/m 1,3 C 2,0 C 3,2 km/h (1 Bft) 100,00 %
28.02.2016 22:57 2,1 C 95 % 1010,0 hPa 0,0 l/m 2,2 km/h (1 Bft) W 265 0 min 0,000 mm 0,0 UV-I 0 W/m 1,4 C 2,1 C 3,2 km/h (1 Bft) 100,00 %
28.02.2016 22:58 2,1 C 95 % 1010,0 hPa 0,0 l/m 1,9 km/h (1 Bft) W-NW 297 0 min 0,000 mm 0,0 UV-I 0 W/m 1,4 C 2,1 C 3,2 km/h (1 Bft) 100,00 %
28.02.2016 22:59 2,1 C 94 % 1010,0 hPa 0,0 l/m 2,8 km/h (1 Bft) N-NW 346 0 min 0,000 mm 0,0 UV-I 0 W/m 1,2 C 2,1 C 3,2 km/h (1 Bft) 100,00 %
28.02.2016 23:00 1,9 C 93 % 1010,0 hPa 0,0 l/m 2,6 km/h (1 Bft) N-NO 13 0 min 0,000 mm 0,0 UV-I 0 W/m 0,9 C 1,9 C 3,2 km/h (1 Bft) 100,00 %
28.02.2016 23:01 1,9 C 93 % 1010,0 hPa 0,0 l/m 2,4 km/h (1 Bft) N-NO 13 0 min 0,000 mm 0,0 UV-I 0 W/m 0,9 C 1,9 C 3,2 km/h (1 Bft) 100,00 %
28.02.2016 23:02 1,9 C 94 % 1010,0 hPa 0,0 l/m 2,7 km/h (1 Bft) N-NO 33 0 min 0,000 mm 0,0 UV-I 0 W/m 1,0 C 1,9 C 3,2 km/h (1 Bft) 100,00 %
28.02.2016 23:03 1,9 C 94 % 1009,9 hPa 0,0 l/m 2,4 km/h (1 Bft) N-NO 33 0 min 0,000 mm 0,0 UV-I 0 W/m 1,0 C 1,9 C 4,8 km/h (1 Bft) 100,00 %
28.02.2016 23:04 2,0 C 94 % 1009,9 hPa 0,0 l/m 2,7 km/h (1 Bft) N-NO 33 0 min 0,000 mm 0,0 UV-I 0 W/m 1,1 C 2,0 C 3,2 km/h (1 Bft) 100,00 %
28.02.2016 23:05 2,1 C 94 % 1010,0 hPa 0,0 l/m 3,0 km/h (1 Bft) N-NO 33 0 min 0,000 mm 0,0 UV-I 0 W/m 1,2 C 2,1 C 4,8 km/h (1 Bft) 100,00 %
28.02.2016 23:06 2,1 C 94 % 1010,0 hPa 0,0 l/m 1,9 km/h (1 Bft) N-NO 33 0 min 0,000 mm 0,0 UV-I 0 W/m 1,2 C 2,1 C 3,2 km/h (1 Bft) 95,65 %
28.02.2016 23:07 2,1 C 94 % 1010,0 hPa 0,0 l/m 2,2 km/h (1 Bft) N-NO 33 0 min 0,000 mm 0,0 UV-I 0 W/m 1,2 C 2,1 C 3,2 km/h (1 Bft) 100,00 %
28.02.2016 23:08 2,1 C 94 % 1010,0 hPa 0,0 l/m 1,7 km/h (1 Bft) N-NO 33 0 min 0,000 mm 0,0 UV-I 0 W/m 1,2 C 2,1 C 3,2 km/h (1 Bft) 100,00 %
28.02.2016 23:09 2,1 C 94 % 1010,0 hPa 0,0 l/m 1,9 km/h (1 Bft) N-NO 33 0 min 0,000 mm 0,0 UV-I 0 W/m 1,2 C 2,1 C 3,2 km/h (1 Bft) 100,00 %
28.02.2016 23:10 2,0 C 94 % 1010,0 hPa 0,0 l/m 0,4 km/h (0 Bft) N-NO 33 0 min 0,000 mm 0,0 UV-I 0 W/m 1,1 C 2,0 C 1,6 km/h (1 Bft) 100,00 %
28.02.2016 23:11 1,9 C 93 % 1009,9 hPa 0,0 l/m 0,1 km/h (0 Bft) N-NO 33 0 min 0,000 mm 0,0 UV-I 0 W/m 0,9 C 1,9 C 1,6 km/h (1 Bft) 100,00 %
28.02.2016 23:12 1,8 C 92 % 1009,9 hPa 0,0 l/m 0,1 km/h (0 Bft) N-NO 33 0 min 0,000 mm 0,0 UV-I 0 W/m 0,6 C 1,8 C 1,6 km/h (1 Bft) 100,00 %
28.02.2016 23:13 1,6 C 92 % 1009,9 hPa 0,0 l/m 0,0 km/h (0 Bft) N-NO 33 0 min 0,000 mm 0,0 UV-I 0 W/m 0,4 C 1,6 C 0,0 km/h (0 Bft) 100,00 %
28.02.2016 23:14 1,4 C 92 % 1009,9 hPa 0,0 l/m 0,0 km/h (0 Bft) N-NO 33 0 min 0,000 mm 0,0 UV-I 0 W/m 0,2 C 1,4 C 0,0 km/h (0 Bft) 100,00 %
28.02.2016 23:15 1,3 C 92 % 1009,9 hPa 0,0 l/m 0,0 km/h (0 Bft) N-NO 33 0 min 0,000 mm 0,0 UV-I 0 W/m 0,1 C 1,3 C 0,0 km/h (0 Bft) 100,00 %
28.02.2016 23:16 1,2 C 92 % 1009,9 hPa 0,0 l/m 0,0 km/h (0 Bft) N-NO 33 0 min 0,000 mm 0,0 UV-I 0 W/m 0,0 C 1,2 C 0,0 km/h (0 Bft) 100,00 %
28.02.2016 23:17 1,1 C 93 % 1010,0 hPa 0,0 l/m 0,0 km/h (0 Bft) N-NO 33 0 min 0,000 mm 0,0 UV-I 0 W/m 0,1 C 1,1 C 0,0 km/h (0 Bft) 100,00 %
28.02.2016 23:18 1,1 C 94 % 1010,0 hPa 0,0 l/m 0,8 km/h (0 Bft) N-NO 33 0 min 0,000 mm 0,0 UV-I 0 W/m 0,2 C 1,1 C 3,2 km/h (1 Bft) 100,00 %
28.02.2016 23:19 1,2 C 94 % 1010,0 hPa 0,0 l/m 1,8 km/h (1 Bft) NO 40 0 min 0,000 mm 0,0 UV-I 0 W/m 0,3 C 1,2 C 3,2 km/h (1 Bft) 100,00 %
28.02.2016 23:20 1,1 C 94 % 1009,9 hPa 0,0 l/m 1,3 km/h (1 Bft) NO 40 0 min 0,000 mm 0,0 UV-I 0 W/m 0,2 C 1,1 C 3,2 km/h (1 Bft) 100,00 %
28.02.2016 23:21 1,2 C 94 % 1009,9 hPa 0,0 l/m 1,7 km/h (1 Bft) NO 40 0 min 0,000 mm 0,0 UV-I 0 W/m 0,3 C 1,2 C 3,2 km/h (1 Bft) 100,00 %
28.02.2016 23:22 1,2 C 94 % 1009,9 hPa 0,0 l/m 1,2 km/h (1 Bft) NO 40 0 min 0,000 mm 0,0 UV-I 0 W/m 0,3 C 1,2 C 3,2 km/h (1 Bft) 100,00 %
28.02.2016 23:23 1,2 C 94 % 1009,9 hPa 0,0 l/m 0,9 km/h (0 Bft) NO 40 0 min 0,000 mm 0,0 UV-I 0 W/m 0,3 C 1,2 C 1,6 km/h (1 Bft) 95,65 %
28.02.2016 23:24 1,2 C 94 % 1009,9 hPa 0,0 l/m 0,0 km/h (0 Bft) NO 40 0 min 0,000 mm 0,0 UV-I 0 W/m 0,3 C 1,2 C 0,0 km/h (0 Bft) 100,00 %
28.02.2016 23:25 1,2 C 94 % 1009,9 hPa 0,0 l/m 0,3 km/h (0 Bft) NO 40 0 min 0,000 mm 0,0 UV-I 0 W/m 0,3 C 1,2 C 1,6 km/h (1 Bft) 95,65 %
28.02.2016 23:26 1,2 C 94 % 1009,9 hPa 0,0 l/m 0,4 km/h (0 Bft) NO 40 0 min 0,000 mm 0,0 UV-I 0 W/m 0,3 C 1,2 C 1,6 km/h (1 Bft) 100,00 %
28.02.2016 23:27 1,3 C 94 % 1009,9 hPa 0,0 l/m 2,0 km/h (1 Bft) NO 40 0 min 0,000 mm 0,0 UV-I 0 W/m 0,4 C 1,3 C 3,2 km/h (1 Bft) 97,37 %
28.02.2016 23:28 1,4 C 95 % 1009,9 hPa 0,0 l/m 2,4 km/h (1 Bft) NO 40 0 min 0,000 mm 0,0 UV-I 0 W/m 0,7 C 1,4 C 3,2 km/h (1 Bft) 100,00 %
28.02.2016 23:29 1,6 C 95 % 1009,8 hPa 0,0 l/m 3,7 km/h (1 Bft) N-NO 28 0 min 0,000 mm 0,0 UV-I 0 W/m 0,9 C 1,6 C 4,8 km/h (1 Bft) 100,00 %
28.02.2016 23:30 1,7 C 96 % 1009,8 hPa 0,0 l/m 4,5 km/h (1 Bft) N-NO 28 0 min 0,000 mm 0,0 UV-I 0 W/m 1,1 C 1,7 C 4,8 km/h (1 Bft) 100,00 %
28.02.2016 23:31 1,8 C 95 % 1009,8 hPa 0,0 l/m 2,2 km/h (1 Bft) N-NO 28 0 min 0,000 mm 0,0 UV-I 0 W/m 1,1 C 1,8 C 3,2 km/h (1 Bft) 100,00 %
28.02.2016 23:32 1,9 C 95 % 1009,8 hPa 0,0 l/m 2,1 km/h (1 Bft) N-NO 28 0 min 0,000 mm 0,0 UV-I 0 W/m 1,2 C 1,9 C 4,8 km/h (1 Bft) 100,00 %
28.02.2016 23:33 2,1 C 96 % 1009,7 hPa 0,0 l/m 0,6 km/h (0 Bft) N-NO 29 0 min 0,000 mm 0,0 UV-I 0 W/m 1,5 C 2,1 C 1,6 km/h (1 Bft) 100,00 %
28.02.2016 23:34 2,1 C 95 % 1009,7 hPa 0,0 l/m 2,4 km/h (1 Bft) N-NO 29 0 min 0,000 mm 0,0 UV-I 0 W/m 1,4 C 2,1 C 3,2 km/h (1 Bft) 100,00 %
28.02.2016 23:35 2,2 C 95 % 1009,8 hPa 0,0 l/m 2,2 km/h (1 Bft) N-NO 29 0 min 0,000 mm 0,0 UV-I 0 W/m 1,5 C 2,2 C 3,2 km/h (1 Bft) 96,15 %
28.02.2016 23:36 2,2 C 95 % 1009,7 hPa 0,0 l/m 2,4 km/h (1 Bft) N-NO 29 0 min 0,000 mm 0,0 UV-I 0 W/m 1,5 C 2,2 C 3,2 km/h (1 Bft) 100,00 %
28.02.2016 23:37 2,3 C 95 % 1009,7 hPa 0,0 l/m 2,8 km/h (1 Bft) N-NO 29 0 min 0,000 mm 0,0 UV-I 0 W/m 1,6 C 2,3 C 4,8 km/h (1 Bft) 100,00 %
28.02.2016 23:38 2,4 C 95 % 1009,7 hPa 0,0 l/m 2,1 km/h (1 Bft) N-NO 29 0 min 0,000 mm 0,0 UV-I 0 W/m 1,7 C 2,4 C 3,2 km/h (1 Bft) 100,00 %
28.02.2016 23:39 2,3 C 95 % 1009,7 hPa 0,0 l/m 1,4 km/h (1 Bft) N-NO 29 0 min 0,000 mm 0,0 UV-I 0 W/m 1,6 C 2,3 C 3,2 km/h (1 Bft) 100,00 %
28.02.2016 23:40 2,2 C 93 % 1009,7 hPa 0,0 l/m 1,4 km/h (1 Bft) N-NO 29 0 min 0,000 mm 0,0 UV-I 0 W/m 1,2 C 2,2 C 1,6 km/h (1 Bft) 100,00 %
28.02.2016 23:41 2,2 C 93 % 1009,7 hPa 0,0 l/m 2,3 km/h (1 Bft) N-NO 29 0 min 0,000 mm 0,0 UV-I 0 W/m 1,2 C 2,2 C 3,2 km/h (1 Bft) 93,33 %
28.02.2016 23:42 2,1 C 93 % 1009,6 hPa 0,0 l/m 2,6 km/h (1 Bft) N-NO 29 0 min 0,000 mm 0,0 UV-I 0 W/m 1,1 C 2,1 C 3,2 km/h (1 Bft) 100,00 %
28.02.2016 23:43 2,1 C 93 % 1009,5 hPa 0,0 l/m 3,3 km/h (1 Bft) N-NO 29 0 min 0,000 mm 0,0 UV-I 0 W/m 1,1 C 2,1 C 4,8 km/h (1 Bft) 100,00 %
28.02.2016 23:44 2,0 C 94 % 1009,5 hPa 0,0 l/m 3,0 km/h (1 Bft) N-NO 29 0 min 0,000 mm 0,0 UV-I 0 W/m 1,1 C 2,0 C 4,8 km/h (1 Bft) 100,00 %
28.02.2016 23:45 2,0 C 94 % 1009,6 hPa 0,0 l/m 4,3 km/h (1 Bft) N-NO 29 0 min 0,000 mm 0,0 UV-I 0 W/m 1,1 C 2,0 C 4,8 km/h (1 Bft) 100,00 %
28.02.2016 23:46 2,0 C 94 % 1009,6 hPa 0,0 l/m 5,9 km/h (2 Bft) N-NO 26 0 min 0,000 mm 0,0 UV-I 0 W/m 1,1 C 2,0 C 8,0 km/h (2 Bft) 95,83 %
28.02.2016 23:47 2,0 C 94 % 1009,5 hPa 0,0 l/m 5,5 km/h (1 Bft) NO 40 0 min 0,000 mm 0,0 UV-I 0 W/m 1,1 C 2,0 C 8,0 km/h (2 Bft) 100,00 %
28.02.2016 23:48 2,1 C 94 % 1009,6 hPa 0,0 l/m 6,1 km/h (2 Bft) NO 34 0 min 0,000 mm 0,0 UV-I 0 W/m 1,2 C 2,1 C 8,0 km/h (2 Bft) 100,00 %
28.02.2016 23:49 2,1 C 94 % 1009,7 hPa 0,0 l/m 5,2 km/h (1 Bft) NO 34 0 min 0,000 mm 0,0 UV-I 0 W/m 1,2 C 2,1 C 6,4 km/h (2 Bft) 100,00 %
28.02.2016 23:50 2,2 C 94 % 1009,7 hPa 0,0 l/m 3,2 km/h (1 Bft) NO 35 0 min 0,000 mm 0,0 UV-I 0 W/m 1,3 C 2,2 C 4,8 km/h (1 Bft) 95,65 %
28.02.2016 23:51 2,3 C 95 % 1009,7 hPa 0,0 l/m 2,8 km/h (1 Bft) NO 36 0 min 0,000 mm 0,0 UV-I 0 W/m 1,6 C 2,3 C 4,8 km/h (1 Bft) 100,00 %
28.02.2016 23:52 2,4 C 95 % 1009,7 hPa 0,0 l/m 2,3 km/h (1 Bft) NO 34 0 min 0,000 mm 0,0 UV-I 0 W/m 1,7 C 2,4 C 4,8 km/h (1 Bft) 100,00 %
28.02.2016 23:53 2,4 C 95 % 1009,6 hPa 0,0 l/m 2,6 km/h (1 Bft) NO 34 0 min 0,000 mm 0,0 UV-I 0 W/m 1,7 C 2,4 C 4,8 km/h (1 Bft) 100,00 %
28.02.2016 23:54 2,5 C 94 % 1009,5 hPa 0,0 l/m 2,3 km/h (1 Bft) NO 34 0 min 0,000 mm 0,0 UV-I 0 W/m 1,6 C 2,5 C 4,8 km/h (1 Bft) 100,00 %
28.02.2016 23:55 2,6 C 94 % 1009,5 hPa 0,0 l/m 1,1 km/h (1 Bft) NO 34 0 min 0,000 mm 0,0 UV-I 0 W/m 1,7 C 2,6 C 1,6 km/h (1 Bft) 96,30 %
28.02.2016 23:56 2,5 C 94 % 1009,6 hPa 0,0 l/m 0,0 km/h (0 Bft) NO 34 0 min 0,000 mm 0,0 UV-I 0 W/m 1,6 C 2,5 C 0,0 km/h (0 Bft) 100,00 %
28.02.2016 23:57 2,3 C 93 % 1009,5 hPa 0,0 l/m 0,0 km/h (0 Bft) NO 34 0 min 0,000 mm 0,0 UV-I 0 W/m 1,3 C 2,3 C 0,0 km/h (0 Bft) 100,00 %
28.02.2016 23:58 2,2 C 92 % 1009,6 hPa 0,0 l/m 0,4 km/h (0 Bft) NO 34 0 min 0,000 mm 0,0 UV-I 0 W/m 1,0 C 2,2 C 1,6 km/h (1 Bft) 100,00 %
28.02.2016 23:59 2,0 C 92 % 1009,6 hPa 0,0 l/m 0,1 km/h (0 Bft) NO 34 0 min 0,000 mm 0,0 UV-I 0 W/m 0,8 C 2,0 C 1,6 km/h (1 Bft) 100,00 %
_ Min-Zeit 02:26 15:40 00:24 - 02:06 - - - - - - 02:23 04:45 02:06 07:56
Minimum _ -0,3 C 74 % 1007,2 hPa - 0,0 km/h (0 Bft) - - - - - - -2,3 C -5,3 C 0,0 km/h (0 Bft) 86,67 %
_ Max-Zeit 15:27 23:30 21:50 00:00 12:35 - - 14:19 14:00 12:31 14:27 15:20 16:15 13:03 00:00
Maximum _ 9,9 C 96 % 1010,4 hPa 0,0 l/m 26,7 km/h
O-NO (4 Bft)
- - 1 min 0,152 mm 1,3 UV-I 335 W/m 5,8 C 9,4 C 33,8 km/h
O-NO (5 Bft)
100,00 %
Durchschnitt _ 3,9 C 84 % 1008,3 hPa #0,0 l/m 8,9 km/h (2 Bft) O-NO - #1:00 h #1,016 mm 0,9 UV-I 150 W/m 1,4 C 1,2 C 12,1 km/h (2 Bft) 98,66 %